GFSGL_sfc_thetae_000.txt.gz
Theta_e
337 335 334 334 333 330 330 329 329 329 330 332 332 331 329 328 330 329 329 329 327 327 327 326 326 324 320 320 319 316 315 314 313 313 314 317 317 318 321 325 331 336 340
340 337 336 336 333 331 330 330 330 330 329 328 328 328 328 330 330 329 328 329 327 326 326 324 324 326 320 320 318 316 315 315 315 312 315 315 316 317 319 322 326 333 337
341 337 332 329 329 330 330 329 329 328 327 328 326 324 327 328 328 329 329 329 327 327 326 323 323 323 320 318 318 317 317 318 316 316 316 316 316 317 318 321 322 325 334
340 338 330 327 327 329 330 329 329 328 327 326 326 328 328 327 327 328 328 328 327 326 325 324 324 322 321 319 318 318 317 315 314 315 316 315 314 316 318 317 317 322 325
339 336 332 331 329 328 329 329 329 328 328 327 328 328 328 328 330 329 329 327 325 324 325 325 324 325 328 324 321 319 316 315 316 317 315 313 313 314 314 317 317 319 321
337 336 334 333 331 330 331 330 329 328 327 327 328 328 326 329 328 328 325 321 321 321 320 321 321 327 327 328 327 327 323 315 315 315 314 313 314 315 317 316 316 315 314
335 334 333 333 332 332 332 330 329 328 326 327 327 325 326 326 324 323 328 320 318 317 317 318 320 324 326 322 323 324 323 323 323 316 314 315 315 317 317 316 316 316 316
333 333 334 334 333 332 330 329 329 329 328 328 325 327 326 325 324 321 325 319 318 318 319 319 318 319 319 319 317 314 314 315 316 317 316 318 318 318 318 317 317 317 318
332 332 333 334 333 331 329 329 330 328 327 327 328 328 324 325 321 319 320 318 317 316 315 317 318 317 317 316 313 311 311 313 318 318 318 318 318 318 319 318 316 315 313
332 333 334 334 332 330 330 331 332 330 328 331 329 327 322 324 318 316 317 317 313 312 315 316 317 314 312 311 310 309 312 314 313 314 315 316 318 318 319 320 317 315 315
333 332 332 334 333 332 332 333 331 328 324 323 324 324 323 321 319 314 313 313 313 313 311 310 311 310 307 307 307 306 309 311 313 314 314 315 316 316 317 319 319 319 316
329 328 327 323 332 336 333 331 327 325 323 322 322 320 320 317 313 313 313 310 314 309 309 309 308 306 306 306 307 308 308 311 312 311 311 312 313 314 315 317 320 322 322
326 326 323 325 324 326 331 329 325 322 320 319 319 317 314 314 310 309 309 310 311 307 308 307 308 304 306 308 309 310 311 310 309 308 307 309 312 314 315 317 320 321 323
324 324 324 322 322 327 328 327 324 321 318 317 316 313 310 306 305 306 307 306 308 306 305 301 307 309 308 308 306 307 308 309 308 307 308 310 312 312 312 316 316 317 321
324 325 324 325 327 322 314 313 316 306 310 312 310 310 311 305 304 300 300 303 304 302 299 305 306 306 305 301 301 302 305 305 303 305 307 307 308 308 311 314 316 316 314
318 323 323 326 321 313 310 306 301 299 298 297 301 302 301 301 298 297 295 295 295 296 301 301 300 299 298 297 296 297 299 301 300 303 305 306 306 307 308 312 313 313 313
325 324 322 320 319 312 308 308 306 305 300 297 296 298 299 298 295 295 294 295 297 300 298 295 294 293 293 292 292 293 294 298 298 301 303 304 306 306 307 308 309 310 311
322 315 317 318 318 313 310 308 306 304 303 302 299 299 297 297 296 295 297 298 298 295 293 292 292 290 289 289 290 291 294 296 298 297 299 299 300 305 304 304 306 306 307
321 318 318 318 318 316 315 313 311 308 307 304 302 300 298 297 297 296 297 300 297 292 291 290 291 290 289 289 290 291 292 292 295 294 295 296 297 300 302 303 304 303 304
318 316 317 314 314 312 310 310 309 308 306 303 302 300 300 300 299 298 297 296 295 294 293 292 292 291 290 290 288 287 290 290 291 291 292 293 295 295 297 301 302 302 303
318 314 317 314 314 312 310 310 309 306 304 302 301 301 297 299 298 297 296 295 295 295 294 293 290 290 288 285 284 285 286 288 288 288 290 291 293 293 294 296 298 302 302
314 314 316 314 312 311 310 308 307 308 304 302 299 300 296 297 297 297 296 296 296 295 293 290 288 286 284 283 283 283 283 284 285 286 287 289 292 292 293 293 294 297 299
313 313 312 311 309 309 309 310 312 309 306 305 302 301 298 297 296 296 297 297 295 292 290 289 286 284 283 283 282 282 281 281 282 284 285 288 290 291 292 291 292 293 295
309 308 307 306 306 305 305 306 305 306 308 306 303 301 298 297 297 296 296 294 292 291 289 287 285 283 282 281 280 280 280 281 282 282 285 288 289 289 291 291 291 292 293
306 306 305 305 304 304 304 304 302 301 302 303 304 301 299 298 296 296 295 292 290 289 288 287 285 284 283 281 280 280 282 284 283 285 286 287 288 289 289 289 289 291 292
302 303 304 304 304 303 302 301 301 300 300 298 298 298 300 298 296 295 292 290 289 288 288 287 286 285 284 283 282 283 282 283 283 284 287 286 286 287 288 288 289 289 289

GFSGL_sfc_thetae_003.txt.gz
Theta_e
335 331 329 329 331 329 328 326 325 325 324 325 326 327 328 326 325 326 326 327 326 325 326 326 326 324 320 319 318 316 313 312 312 311 313 315 315 317 319 320 321 322 325
337 333 331 332 331 329 327 327 326 325 325 328 328 327 326 325 326 327 327 327 326 325 325 324 325 326 321 318 317 316 315 313 312 312 313 315 314 319 318 317 319 322 323
337 334 333 332 332 329 329 328 327 326 326 324 324 322 321 322 324 325 326 326 325 326 326 323 323 321 320 318 317 317 316 317 314 314 315 319 318 318 316 317 318 319 322
339 336 334 334 334 332 331 329 326 325 324 323 323 322 322 323 324 324 324 325 325 326 325 323 322 321 321 319 318 318 317 315 314 313 316 316 315 316 316 314 313 317 317
341 338 335 334 333 332 331 329 327 327 327 324 323 322 324 325 326 324 325 326 325 324 323 322 323 324 329 324 320 318 316 315 314 314 315 314 313 312 311 314 314 316 316
342 339 336 332 330 329 329 328 326 328 326 324 323 324 324 326 325 327 328 322 321 320 318 317 318 323 323 326 327 327 322 315 314 313 314 312 312 312 315 314 314 312 310
342 339 335 334 331 328 329 327 327 327 326 323 323 324 324 323 323 323 328 320 317 316 314 315 317 321 322 319 321 323 323 323 324 317 312 312 311 314 315 313 313 313 312
339 337 336 334 332 329 326 327 328 327 326 324 324 324 322 324 321 320 325 321 317 315 316 316 314 314 316 317 316 313 312 312 313 315 314 314 315 316 316 316 315 315 316
336 335 335 335 332 329 329 330 330 326 325 325 324 324 324 323 320 319 319 319 316 315 313 313 315 314 316 317 311 309 309 310 316 317 317 317 317 317 318 316 313 312 311
335 335 336 335 333 329 330 330 330 328 327 326 326 323 323 324 318 316 315 316 313 311 312 313 314 313 312 310 308 306 308 308 309 311 313 314 316 316 319 318 315 311 311
334 333 332 330 330 331 329 327 327 329 326 326 328 327 326 322 321 313 313 314 312 312 310 308 309 311 307 307 306 305 305 307 308 310 311 312 313 314 315 316 316 314 312
332 331 325 326 330 328 323 322 325 327 326 323 322 321 321 320 312 312 311 312 314 309 307 307 307 307 305 306 307 308 308 309 307 309 308 308 309 311 313 314 316 317 320
329 326 325 327 328 326 323 321 321 324 324 322 320 319 318 315 310 309 309 309 310 306 306 306 306 304 303 306 309 309 308 303 304 304 305 307 309 311 312 314 315 317 320
326 324 325 325 324 327 325 323 327 324 321 320 320 318 312 308 306 305 306 304 307 305 304 301 305 307 308 308 304 302 302 302 302 301 304 307 308 309 309 312 312 313 315
325 325 323 326 323 324 315 312 318 312 312 317 315 313 308 304 304 302 302 302 301 300 298 305 307 302 300 298 296 297 298 298 298 298 300 303 305 306 307 310 311 311 312
322 323 322 322 326 323 312 306 301 301 298 297 301 305 301 302 299 296 295 294 294 296 303 304 299 296 294 293 292 292 293 296 296 297 298 301 301 302 305 307 308 308 309
321 320 321 319 320 313 311 308 305 302 298 295 295 297 298 297 296 295 294 294 294 298 301 297 293 291 290 290 289 289 290 292 293 295 295 297 298 299 304 304 305 306 306
317 315 319 318 318 313 311 309 307 303 302 301 297 297 296 297 296 296 296 297 297 296 292 291 289 288 287 287 288 288 289 291 292 292 293 294 295 296 299 301 302 303 304
318 316 316 317 315 311 310 308 307 304 303 302 301 299 296 297 293 295 296 297 295 292 290 289 288 288 288 288 288 287 288 289 290 289 291 292 293 293 295 298 300 302 303
316 316 316 315 313 312 311 312 308 305 304 302 301 301 299 299 298 297 295 294 293 291 291 290 290 290 289 287 284 284 287 287 287 287 288 290 291 292 293 294 296 299 301
313 312 316 313 312 310 309 309 309 311 306 303 302 301 299 302 300 298 295 294 294 293 292 290 288 287 284 283 283 284 285 285 285 285 287 288 290 290 292 292 294 297 299
311 312 312 311 311 312 312 311 307 305 304 304 301 299 295 300 299 297 295 294 294 294 291 288 285 283 282 282 283 282 282 282 283 284 285 287 289 289 290 291 292 294 294
311 311 310 308 309 308 307 306 305 305 305 305 301 300 299 299 298 295 296 296 295 291 288 287 284 282 281 281 281 281 281 281 281 282 284 287 288 288 289 289 290 291 291
309 309 308 307 306 305 305 306 310 306 307 304 302 301 299 299 296 296 296 295 292 290 288 286 284 282 281 280 280 279 279 280 282 282 284 286 287 288 288 288 288 290 290
305 305 304 303 303 302 302 302 301 302 304 304 301 301 298 297 295 295 295 291 290 288 287 285 283 282 281 280 279 279 281 283 284 285 285 285 287 287 287 287 288 288 289
302 303 303 303 302 301 300 300 300 299 299 299 300 298 298 297 295 294 294 289 288 288 286 285 284 283 283 282 281 283 282 283 284 284 285 285 285 286 286 287 288 287 287

GFSGL_sfc_thetae_006.txt.gz
Theta_e
343 339 335 330 329 329 330 330 328 327 328 329 329 329 330 330 332 330 330 331 331 332 332 331 331 332 330 327 325 323 321 318 315 320 319 323 323 325 325 326 325 324 325
345 337 333 330 331 330 330 330 329 328 328 329 330 330 331 332 332 330 330 333 332 331 331 331 331 330 329 328 324 324 323 321 319 318 323 321 322 326 325 324 323 323 324
345 335 332 330 331 331 331 330 329 328 328 328 330 330 329 329 328 328 330 331 331 330 331 330 330 328 327 326 325 324 324 324 321 319 320 323 322 324 323 324 323 323 323
342 336 333 331 332 332 332 330 330 329 328 328 329 328 327 327 327 329 330 330 329 330 331 330 329 327 327 327 326 325 325 323 322 319 319 320 321 324 321 318 317 320 320
339 337 335 334 334 333 332 332 331 329 329 329 328 327 328 327 327 329 330 329 330 330 330 329 328 327 328 328 327 326 323 322 321 319 318 319 319 319 318 319 316 318 320
341 338 338 336 335 334 334 333 330 329 328 328 327 328 327 328 325 326 331 330 330 329 327 326 324 324 325 325 326 327 327 324 322 319 318 317 319 319 319 317 316 314 312
342 341 339 336 333 331 332 333 330 328 328 328 328 328 328 329 322 323 327 330 327 325 324 323 323 324 324 322 322 322 324 323 324 324 317 318 318 319 319 317 316 313 314
342 342 338 335 333 331 330 329 331 328 327 328 328 328 328 328 321 320 324 330 327 325 323 322 322 321 321 321 321 320 319 318 319 317 318 318 318 318 319 318 315 315 316
341 340 337 336 334 333 332 329 330 329 329 330 330 329 327 329 320 319 322 327 326 324 322 320 319 321 318 316 318 317 316 316 316 316 316 316 316 316 317 317 313 312 310
340 339 338 338 334 330 332 331 330 331 330 332 329 328 324 327 319 318 320 325 323 320 319 320 316 316 312 311 316 314 313 313 312 313 313 315 316 316 317 319 317 311 310
338 339 339 338 336 333 330 329 328 330 330 328 325 323 327 327 327 317 313 322 320 318 317 317 316 311 308 307 306 313 312 312 311 311 310 311 312 313 314 317 317 313 310
335 333 332 332 333 329 326 326 327 326 324 326 326 322 320 324 317 316 310 314 316 318 316 314 314 306 305 305 310 308 307 309 310 309 308 308 309 310 312 313 315 314 315
328 327 328 328 328 328 326 325 325 325 324 325 325 325 326 321 317 309 309 307 310 312 312 310 307 303 302 307 308 307 307 308 307 305 304 306 308 310 312 312 313 314 315
326 327 328 327 325 325 326 327 325 323 323 324 325 324 322 317 315 313 312 311 309 310 307 307 308 308 308 307 306 305 305 306 305 303 302 305 307 308 307 310 309 310 310
326 325 325 324 326 325 324 320 322 317 318 324 322 322 318 314 312 307 307 310 310 305 303 310 311 310 304 303 302 301 302 302 301 301 301 302 304 304 303 308 308 308 308
326 324 323 324 325 324 313 309 301 299 299 299 299 310 310 304 299 297 295 294 293 295 305 309 306 301 301 300 298 298 298 298 298 298 298 299 300 300 301 304 306 306 306
326 321 320 320 322 318 315 312 310 304 297 296 296 297 298 297 295 294 293 294 294 298 306 304 302 299 298 297 296 295 295 296 297 297 297 297 297 299 300 302 302 304 305
323 314 322 321 321 317 315 314 312 311 309 305 298 299 295 295 295 294 294 297 303 301 301 300 298 295 295 295 295 294 294 295 296 295 295 295 296 296 297 299 301 301 303
321 320 320 320 318 315 315 314 312 309 308 306 305 299 296 294 293 294 296 304 303 300 297 296 295 295 296 296 294 292 292 294 294 293 294 294 295 296 297 298 298 299 302
322 317 317 318 315 314 313 312 310 309 308 307 306 307 305 303 305 304 302 301 299 298 297 297 297 297 297 293 291 291 293 293 293 293 293 293 295 296 296 297 298 297 301
319 319 317 318 316 315 314 313 312 310 309 308 308 306 300 307 306 303 302 301 300 299 298 298 296 295 291 290 291 292 292 292 292 292 293 293 295 295 297 297 297 298 299
316 317 318 318 316 315 315 315 314 313 309 309 308 305 296 305 305 304 302 301 301 301 298 295 293 291 290 290 291 292 291 291 292 291 292 293 294 295 296 296 297 297 298
316 315 315 315 315 311 313 313 312 311 310 309 307 304 301 304 304 303 302 301 301 300 297 294 291 290 289 289 290 290 290 291 290 290 291 293 294 294 295 295 296 296 296
314 314 313 312 312 312 312 311 312 306 310 308 306 303 303 302 303 303 302 302 302 298 295 293 291 290 288 288 289 288 288 289 290 291 291 292 293 294 295 295 295 295 295
310 310 310 310 310 309 310 310 311 312 310 307 307 306 305 304 302 302 303 302 300 297 294 292 291 290 288 287 287 287 286 283 288 287 293 293 294 295 294 294 295 295 295
307 308 308 308 308 308 307 307 306 306 306 308 307 306 305 304 303 302 301 299 297 296 294 292 291 289 288 288 288 286 283 283 288 284 293 294 294 294 294 294 294 294 294

GFSGL_sfc_thetae_012.txt.gz
Theta_e
359 363 362 361 362 364 363 361 359 355 353 350 350 346 346 343 344 345 344 340 340 341 340 341 342 344 337 334 334 333 331 330 326 327 329 334 337 338 337 338 337 337 335
362 364 361 362 362 361 364 361 360 355 351 351 349 347 344 343 343 343 340 338 338 337 338 340 340 338 341 342 336 338 334 334 328 329 332 330 337 339 336 337 335 333 334
359 357 358 360 360 362 362 361 352 352 347 346 346 343 343 343 342 343 343 341 339 338 340 339 339 340 339 336 337 334 331 331 332 327 327 330 330 331 333 337 335 336 332
354 356 360 360 360 359 361 356 349 343 344 340 344 342 342 343 343 341 341 341 339 338 340 341 340 340 338 338 336 337 336 333 333 328 327 326 328 333 330 327 325 327 326
357 356 359 362 361 359 361 355 349 345 344 341 338 339 340 341 338 343 341 338 338 339 340 340 341 342 337 335 334 337 336 330 327 325 324 323 324 324 327 325 323 325 328
359 357 362 364 362 359 361 353 348 342 343 337 334 332 334 337 330 329 336 337 339 340 339 341 341 337 336 330 329 328 329 331 329 325 323 324 328 327 326 324 323 321 318
358 359 360 363 360 358 358 352 347 345 342 336 332 333 335 337 326 326 329 335 337 339 341 343 340 335 336 337 331 327 326 324 325 329 327 328 327 328 328 325 323 321 319
358 359 360 361 358 355 352 349 348 344 340 340 337 337 337 337 326 324 328 337 338 341 342 342 341 337 340 337 336 332 331 333 333 330 331 329 329 328 325 323 322 322 320
355 357 358 358 356 353 349 344 344 343 339 337 337 340 339 339 321 320 326 337 337 340 341 338 337 336 327 322 329 329 330 330 324 320 318 317 316 316 318 320 319 316 314
354 356 359 359 357 351 350 348 343 339 337 335 339 340 334 338 321 317 321 334 338 331 334 340 323 325 319 316 324 326 325 327 328 327 326 324 320 323 320 323 320 317 317
355 357 359 359 356 352 352 347 342 337 337 340 341 341 337 336 335 315 315 335 333 332 334 335 331 316 311 310 310 327 324 322 322 323 322 321 319 322 322 322 324 319 315
358 357 358 354 350 348 343 341 339 339 342 340 340 339 338 338 323 314 313 316 323 335 334 332 323 309 309 308 311 312 310 310 320 321 319 316 317 317 318 319 321 321 320
356 355 348 349 346 344 338 337 336 339 336 336 336 333 329 336 335 312 311 311 314 328 334 319 310 308 305 306 309 310 307 319 320 317 314 314 316 316 318 320 321 325 327
349 344 344 340 338 339 337 337 337 337 335 337 334 332 331 333 334 333 322 323 316 321 314 321 317 314 309 312 316 314 320 320 317 314 314 315 315 314 312 311 310 314 317
345 344 343 340 342 339 321 322 336 334 322 335 332 329 330 328 332 323 321 331 330 319 323 326 324 324 323 322 322 321 320 317 314 314 313 312 311 310 309 310 309 315 314
343 343 341 341 340 338 334 330 299 302 300 300 301 317 319 308 302 299 298 297 299 301 317 322 321 321 320 320 319 318 316 312 313 312 311 310 308 307 307 307 309 313 312
342 342 336 333 337 334 333 330 327 311 297 295 296 298 302 302 297 295 295 294 295 299 318 319 319 319 319 319 316 314 311 313 313 310 309 308 307 306 306 306 308 311 313
341 321 337 335 334 333 333 333 330 328 326 323 301 305 295 294 294 294 294 299 312 309 318 318 318 318 317 314 313 312 311 310 309 308 307 306 306 305 305 305 307 309 312
337 335 333 332 331 328 331 330 330 328 329 325 314 306 300 294 294 295 296 318 320 319 318 315 315 314 314 313 313 311 310 307 304 305 306 305 305 305 305 305 305 304 307
333 321 326 331 330 332 332 331 329 329 329 326 322 320 316 309 316 317 318 319 318 317 317 314 315 314 314 313 311 309 306 305 306 305 305 305 305 305 304 304 305 305 308
331 331 325 331 330 329 328 328 328 327 325 325 324 322 310 321 320 320 318 317 316 317 316 314 315 313 312 310 307 305 304 305 306 305 304 304 304 304 304 305 304 305 305
331 330 328 327 327 327 328 329 327 326 325 324 323 316 302 319 321 319 318 317 316 316 316 315 311 310 310 306 305 303 304 304 306 304 303 303 304 304 304 304 304 304 304
329 328 328 329 329 321 326 327 326 325 324 323 321 320 318 319 319 319 318 317 316 315 314 312 310 308 308 304 303 304 304 306 305 304 303 303 303 303 304 303 303 303 303
328 328 328 327 326 324 325 325 324 315 322 321 320 320 319 319 319 318 318 316 315 314 314 311 309 307 305 301 302 303 305 304 304 304 303 303 303 302 304 303 303 303 303
327 326 326 326 324 323 324 323 322 320 320 320 319 319 320 320 319 317 318 316 315 314 312 310 309 306 303 301 299 299 288 286 295 288 302 304 303 304 303 303 303 303 303
324 324 323 323 321 321 320 320 319 320 319 318 318 318 318 318 318 318 317 316 314 313 312 310 308 305 302 301 299 289 283 285 292 284 296 303 303 303 301 302 302 302 302

GFSGL_sfc_thetae_015.txt.gz
Theta_e
366 367 367 366 368 371 370 369 368 360 362 357 357 351 348 349 346 347 347 344 343 345 343 341 342 345 336 335 334 334 331 330 326 327 330 336 344 342 340 341 339 339 337
363 367 367 368 368 366 369 370 370 365 361 359 356 352 350 347 348 345 343 342 340 339 339 343 340 337 348 348 337 340 335 339 328 333 334 332 338 342 343 344 336 333 334
360 361 365 365 367 366 369 369 369 366 363 354 354 348 349 344 342 342 346 345 343 343 342 343 342 344 346 340 343 338 332 336 335 328 328 332 331 334 336 336 336 335 334
353 354 360 364 365 366 370 369 369 368 361 352 354 351 347 342 342 340 342 342 344 343 344 344 343 343 346 346 341 344 341 336 334 328 327 327 329 328 333 329 327 326 328
356 355 359 365 367 368 368 370 369 365 359 355 353 350 347 342 339 336 342 341 343 343 343 344 344 344 339 339 338 341 344 334 329 327 325 324 326 327 326 328 325 326 326
362 360 363 368 368 367 369 369 368 364 359 355 351 347 341 338 329 332 341 341 342 343 343 345 346 341 338 333 332 330 332 333 333 328 325 325 329 328 328 326 325 321 318
365 369 368 371 370 370 370 369 365 363 356 351 349 345 342 339 327 328 331 339 340 340 341 345 343 338 338 340 332 329 328 326 326 331 330 329 330 332 333 329 328 324 320
368 367 371 371 372 371 368 366 362 356 349 350 348 344 339 341 327 325 329 337 337 337 341 346 346 344 343 339 337 332 333 338 336 330 332 333 334 334 329 326 326 325 324
365 367 369 370 369 368 364 361 355 351 347 343 343 341 340 344 324 322 327 333 335 335 339 344 345 342 329 325 328 329 334 335 330 325 323 321 319 319 320 321 318 317 316
362 363 367 368 367 364 361 357 356 353 346 342 340 338 333 343 322 320 325 337 339 336 338 344 327 331 320 319 325 328 328 330 330 330 330 325 321 325 320 324 322 318 317
358 359 362 365 365 365 362 356 353 350 345 342 338 341 344 343 340 315 316 335 333 331 333 338 338 317 314 311 313 327 327 324 328 325 323 324 325 326 321 325 329 322 316
363 362 363 365 359 357 356 353 349 344 338 337 338 339 344 348 326 314 314 317 326 333 333 337 334 313 310 310 312 317 313 313 321 320 321 320 321 318 319 321 327 324 322
362 364 363 359 355 354 351 346 342 340 336 335 336 341 343 340 344 313 312 314 316 326 334 323 314 311 311 309 310 314 312 319 320 320 320 317 316 318 325 323 325 327 327
360 354 352 349 346 347 346 343 339 337 337 337 338 339 338 337 332 336 332 324 316 320 318 324 321 319 317 316 318 315 320 321 321 318 315 316 316 315 313 313 311 311 310
348 345 344 343 344 338 330 332 339 328 328 339 337 339 335 334 334 320 322 329 331 324 328 331 326 325 324 323 321 321 321 322 320 317 315 313 312 312 311 311 309 310 310
346 344 343 342 338 335 330 327 301 303 299 299 302 322 322 308 301 300 299 302 304 307 324 326 324 323 325 322 323 321 322 320 318 316 314 312 310 309 308 308 309 309 310
348 348 343 340 339 339 338 336 332 312 299 297 298 302 306 303 297 296 296 296 299 303 321 321 321 321 322 324 323 319 317 316 318 314 312 311 309 308 307 307 307 308 309
345 326 340 339 337 336 335 333 332 330 327 325 302 307 297 296 296 296 296 300 315 311 319 319 320 321 320 319 317 315 315 314 313 311 309 308 308 307 306 306 306 307 307
340 338 338 337 335 331 333 333 331 329 329 327 317 309 302 295 295 296 297 319 321 320 320 319 318 317 316 316 315 315 314 312 308 306 308 307 307 306 306 306 306 303 304
338 325 331 334 331 331 331 330 329 328 327 326 323 321 316 310 315 317 317 320 320 319 320 318 317 316 315 315 314 313 311 308 308 307 307 306 307 306 305 305 305 305 305
334 332 328 332 330 331 331 329 328 327 326 326 325 322 310 320 321 321 320 321 320 318 319 318 316 316 315 314 311 309 307 306 307 306 306 306 306 305 306 306 305 305 305
332 332 330 330 329 329 327 327 327 326 326 324 322 318 304 322 322 321 322 321 320 320 319 319 315 313 312 310 308 306 305 305 306 306 305 305 305 305 305 305 305 305 304
331 329 328 327 328 323 327 327 326 324 323 324 322 320 322 322 322 322 322 321 319 320 319 317 314 312 311 310 306 304 304 305 306 305 304 304 304 305 305 305 304 304 304
329 328 326 329 327 328 324 324 326 314 323 322 322 322 320 320 320 322 321 321 320 318 317 316 313 311 310 307 304 304 305 306 305 305 305 304 305 304 305 305 304 304 304
329 327 325 326 325 324 324 323 323 322 321 320 320 320 320 319 318 320 320 319 318 317 316 315 313 311 309 306 304 303 291 288 297 288 302 305 305 306 305 304 304 304 304
324 323 325 326 324 323 322 321 321 321 320 320 320 320 320 319 319 320 319 317 316 317 316 315 313 311 308 305 303 289 284 286 292 285 297 301 305 304 302 303 303 303 303

GFSGL_sfc_thetae_018.txt.gz
Theta_e
365 365 366 366 367 365 366 363 361 363 358 358 356 352 349 348 350 346 343 343 341 344 343 343 342 345 339 339 340 338 335 333 328 329 331 335 336 336 335 338 340 337 336
364 364 365 366 366 366 363 366 365 361 363 358 355 351 348 346 347 344 340 340 341 340 341 341 340 339 341 343 340 338 338 335 332 329 333 333 335 339 339 338 337 333 333
362 361 363 362 364 363 366 363 367 363 359 353 355 350 347 346 344 342 342 341 338 340 340 340 338 340 341 340 340 338 337 336 336 330 328 331 333 332 329 333 333 336 335
359 359 359 361 361 361 364 366 365 364 360 357 353 351 347 346 344 342 341 342 342 342 343 342 342 341 341 342 340 340 338 336 333 330 328 327 331 330 330 327 325 330 329
354 356 358 361 362 363 362 365 365 365 362 359 353 352 348 345 343 342 342 342 342 341 342 342 342 343 341 340 339 339 338 332 330 326 325 326 325 326 324 326 324 325 327
350 353 357 359 362 361 364 362 365 364 363 359 354 351 348 345 332 333 340 341 343 341 338 342 341 341 339 336 333 330 330 328 328 325 323 324 325 326 327 325 323 321 317
353 354 355 358 360 361 362 363 363 363 363 359 353 350 349 346 327 328 333 342 342 342 339 341 334 337 337 337 332 329 329 328 327 323 323 325 326 327 327 324 323 322 318
354 357 358 359 360 362 362 362 363 363 362 359 353 348 346 345 327 326 330 339 340 341 336 333 335 336 335 333 335 334 332 332 329 329 326 326 330 331 329 325 322 320 320
358 361 362 366 364 363 363 363 364 364 361 353 348 344 342 341 324 323 327 334 334 335 335 331 336 334 332 327 331 330 328 329 331 325 327 324 322 320 321 322 318 315 314
358 363 367 370 370 367 367 366 366 360 353 348 345 344 335 338 321 320 323 331 330 334 340 337 328 334 325 320 327 329 328 328 330 330 330 325 322 323 321 321 320 316 315
363 368 368 370 370 370 369 364 355 351 349 345 341 339 337 336 336 317 317 335 334 334 334 334 333 322 315 314 317 330 327 323 325 327 326 323 322 324 324 324 324 321 318
368 366 367 369 364 365 363 357 351 348 344 341 340 338 338 339 325 315 315 319 329 332 332 334 336 317 311 312 315 318 314 315 321 320 319 319 320 320 320 321 322 321 319
363 363 365 365 362 357 353 349 347 344 340 337 334 335 338 346 343 317 313 314 315 327 334 319 315 313 313 311 312 314 314 319 318 318 318 318 317 319 322 319 321 323 323
363 362 357 354 351 351 348 347 342 339 337 338 337 339 341 342 339 332 328 322 316 322 318 321 318 319 317 320 319 313 317 319 320 321 319 319 320 317 314 315 312 311 308
355 351 347 344 344 332 321 325 340 329 334 339 338 337 337 337 335 330 329 332 330 323 326 330 325 321 321 320 321 323 319 321 320 320 320 317 314 314 312 313 311 308 307
346 344 343 339 338 336 330 323 302 303 300 301 305 330 323 312 302 301 301 303 306 313 325 331 327 325 322 322 322 322 321 318 317 318 318 315 313 311 310 310 309 309 307
344 345 341 336 338 336 336 332 324 311 300 298 300 305 310 304 298 298 297 298 302 309 328 328 326 324 323 320 320 318 316 318 319 318 316 315 312 310 308 308 308 308 307
351 333 343 342 340 340 338 337 334 328 325 321 302 306 297 296 296 296 297 304 315 313 322 321 322 325 324 325 320 319 318 318 317 315 311 309 309 310 308 307 307 306 305
342 336 341 339 337 336 337 335 333 331 330 323 315 307 299 296 297 298 299 321 322 322 318 317 323 321 321 320 320 319 317 315 312 310 309 309 310 307 307 306 305 303 304
335 329 334 336 333 335 334 333 331 332 328 323 322 319 314 311 314 316 317 320 321 322 322 321 320 320 320 319 319 317 315 313 311 311 310 309 309 308 305 305 304 303 305
336 336 325 334 332 331 331 330 330 329 328 325 325 320 309 319 320 321 321 321 322 323 323 321 321 320 319 318 317 313 310 309 309 309 308 307 308 306 307 306 304 304 304
333 333 330 330 331 334 333 332 330 329 326 324 325 316 303 321 323 325 320 320 322 320 322 323 319 317 316 313 312 310 308 306 308 308 307 306 306 305 306 304 305 304 304
329 327 324 330 323 324 323 328 329 324 320 325 323 318 316 322 325 323 322 322 319 318 318 320 318 315 315 312 310 308 305 306 307 307 305 306 304 306 305 305 304 303 303
330 325 325 329 329 327 329 328 321 317 323 323 322 322 322 323 323 320 321 320 319 317 316 320 317 314 313 311 310 307 305 306 305 303 303 302 303 304 305 305 304 303 303
327 325 327 327 325 324 326 320 323 323 323 323 323 324 323 322 321 320 320 320 318 318 317 316 316 315 313 311 307 299 288 289 297 290 301 303 302 305 306 302 303 302 304
324 323 324 324 321 320 321 323 322 321 318 321 322 323 323 322 319 319 318 317 318 317 317 317 315 315 313 309 303 290 284 288 293 287 294 298 300 304 304 302 304 302 303

GFSGL_sfc_thetae_021.txt.gz
Theta_e
358 356 359 360 358 357 355 352 350 349 347 347 348 346 341 341 342 340 335 334 337 333 335 335 334 331 329 328 330 327 326 327 322 321 323 324 328 326 329 329 331 330 329
360 358 356 358 359 356 354 355 354 349 349 349 348 346 342 338 341 340 335 336 334 335 334 332 331 335 330 330 331 329 328 327 322 319 324 324 326 328 329 329 332 335 330
359 359 358 357 358 358 355 356 357 352 351 349 349 345 342 340 340 342 337 334 334 334 335 333 332 332 331 332 333 331 329 329 326 323 321 324 324 325 323 324 326 326 331
359 358 357 357 358 358 359 356 356 357 352 347 347 345 343 340 341 339 336 334 334 334 334 335 334 332 331 334 333 332 329 328 326 325 323 322 322 324 323 320 319 322 323
356 356 355 357 358 359 358 359 356 356 354 350 347 345 343 339 340 336 336 335 334 334 334 334 336 338 338 337 335 332 331 328 326 325 322 319 320 321 318 320 319 320 320
353 354 355 355 356 355 356 356 359 355 356 351 346 345 342 342 335 334 337 336 335 334 333 335 335 339 338 334 333 331 330 327 324 323 320 318 320 323 321 320 319 317 315
348 352 353 353 353 354 355 355 356 357 357 354 350 345 344 342 330 330 335 334 335 334 334 336 336 339 335 334 330 330 330 329 329 325 319 319 319 321 322 319 317 317 316
345 348 351 352 352 354 354 355 355 357 356 356 353 347 345 342 329 328 333 333 333 334 336 336 332 329 331 332 331 330 329 330 329 327 322 324 323 325 324 322 319 316 314
342 344 348 350 351 352 353 353 355 355 356 356 353 348 345 338 323 324 328 330 332 332 332 333 326 326 328 326 328 325 325 327 327 324 325 325 323 323 324 317 313 311 309
342 346 348 350 350 352 354 354 356 356 355 352 346 346 337 337 322 320 324 330 328 329 330 331 326 328 323 321 327 323 324 324 323 322 322 321 319 318 321 317 317 312 310
348 349 351 354 353 356 355 357 356 352 346 343 342 340 338 336 328 318 317 330 329 327 328 332 331 321 316 316 317 324 322 319 319 315 315 315 315 315 318 318 318 315 311
357 355 361 361 362 362 358 354 350 347 344 340 337 335 335 336 325 316 316 319 327 329 327 326 327 318 314 314 315 318 314 314 313 312 312 311 311 313 313 312 313 316 317
357 358 358 357 359 355 351 346 344 343 340 338 336 334 334 336 332 317 314 315 319 327 326 318 314 314 312 312 314 316 313 311 311 310 310 312 311 313 313 309 309 307 306
355 354 351 350 348 348 346 344 341 338 336 335 333 332 332 333 330 322 319 318 317 320 318 317 315 314 313 315 314 312 310 310 310 311 314 311 310 306 305 306 303 302 299
349 346 344 342 334 323 313 323 336 325 331 336 334 333 332 330 329 322 321 322 322 321 317 318 316 314 312 312 312 314 310 312 311 314 316 309 305 304 304 303 301 299 297
340 340 336 335 330 326 322 316 302 302 301 304 311 325 316 313 310 306 306 308 311 311 317 319 314 314 314 314 313 313 316 317 315 316 312 305 303 303 301 301 300 298 298
338 336 335 333 332 329 327 323 316 308 301 299 300 306 309 303 302 300 299 301 305 309 317 318 318 318 316 317 317 318 317 315 315 308 306 304 301 300 301 299 298 298 298
338 324 335 333 333 331 329 324 321 318 316 313 301 302 298 297 297 297 298 304 309 308 314 314 312 313 311 311 308 307 306 307 304 300 299 299 298 299 298 298 297 296 296
338 336 336 335 333 331 332 329 325 324 320 313 304 302 297 296 296 297 299 312 313 312 311 310 312 309 307 308 307 307 304 302 301 299 298 298 300 297 297 297 297 299 299
331 331 333 335 334 334 333 331 326 325 319 313 311 309 303 302 304 305 307 310 311 311 311 310 309 308 307 307 306 304 302 302 301 301 300 299 297 297 296 297 297 295 296
329 325 328 327 328 327 326 326 328 325 320 317 316 312 305 310 310 310 310 312 312 313 310 309 308 307 307 305 304 302 300 299 298 298 297 296 296 296 297 297 296 297 296
327 325 324 323 323 324 324 324 325 325 322 319 318 311 302 312 314 314 314 313 315 315 315 311 307 305 305 303 301 299 297 296 297 296 296 296 296 297 297 296 297 297 295
323 325 322 322 323 321 321 319 318 322 321 319 316 311 308 312 315 316 316 315 315 314 314 312 307 304 303 300 298 297 294 296 297 297 296 295 295 296 296 296 296 295 294
323 324 324 322 323 322 321 319 317 315 317 317 315 314 312 313 316 316 316 314 314 314 314 311 308 303 301 299 297 294 296 295 294 293 293 293 294 295 296 297 295 295 294
323 322 322 321 320 319 319 319 321 319 319 317 317 315 314 315 314 315 315 314 312 311 312 311 307 305 302 295 292 290 289 289 289 291 292 292 292 293 295 294 293 295 295
321 322 320 320 320 319 318 316 318 319 319 317 317 316 316 314 313 313 312 311 310 311 311 308 307 306 303 298 293 288 285 288 288 287 288 289 290 292 295 294 294 295 295

GFSGL_sfc_thetae_024.txt.gz
Theta_e
352 352 353 352 351 353 354 350 348 343 343 343 346 342 339 336 335 337 334 334 331 331 334 332 331 329 327 324 328 324 323 324 321 321 321 321 326 324 326 329 329 327 328
354 354 354 354 353 351 352 352 350 346 344 344 345 344 341 338 336 337 335 335 334 332 330 332 330 333 331 328 327 326 326 325 322 319 321 323 323 324 324 325 327 331 329
353 353 354 355 354 352 351 352 350 349 345 345 344 344 341 339 338 338 337 334 332 333 333 331 330 327 327 327 329 328 329 330 327 324 320 322 322 323 322 322 324 324 328
354 352 351 354 356 355 353 352 352 351 346 345 345 344 343 339 337 340 339 335 333 332 333 333 331 330 329 330 330 332 330 329 327 325 324 324 323 323 324 320 318 319 320
353 354 352 353 355 357 355 353 352 354 350 346 345 344 343 341 339 337 338 335 332 331 332 333 333 334 335 331 333 331 331 328 326 324 323 324 322 319 320 321 318 318 320
354 353 355 355 354 354 355 355 353 351 354 347 344 344 340 341 334 334 337 335 334 333 331 331 332 336 336 333 333 332 330 327 325 323 323 322 321 320 320 319 317 315 313
353 354 354 354 354 354 355 355 355 352 351 349 343 343 340 341 330 331 334 334 333 335 334 331 332 337 335 333 329 329 329 329 329 327 323 322 318 319 319 317 316 315 314
351 352 354 354 353 354 354 354 354 356 352 352 347 344 344 342 329 327 333 337 336 336 335 334 333 334 331 331 330 327 328 329 329 329 327 325 322 321 321 321 318 315 313
347 350 352 353 351 352 351 352 353 354 354 353 353 346 344 342 325 324 331 335 335 334 336 336 336 331 325 325 327 325 326 326 327 324 324 323 322 321 323 318 316 311 309
344 346 351 353 351 350 352 351 353 354 354 354 353 348 340 345 321 320 330 333 331 330 332 332 325 325 320 319 324 323 321 322 323 322 320 319 320 319 321 319 315 312 309
345 345 347 351 350 351 351 352 352 353 353 353 350 345 343 337 324 317 320 331 331 328 328 326 329 319 315 314 316 325 323 321 321 318 315 314 314 312 313 315 315 314 309
342 342 343 347 349 350 350 352 352 352 350 344 340 338 338 336 321 315 316 321 325 326 323 326 328 317 313 312 314 316 316 318 316 313 310 309 309 311 311 310 310 313 316
341 340 344 345 347 351 351 352 351 348 345 340 339 335 334 334 329 316 314 315 319 328 330 324 317 311 308 313 314 316 313 314 312 308 307 308 310 310 308 305 306 304 303
344 346 352 353 353 354 353 352 348 344 340 338 337 334 334 333 332 325 320 315 317 323 320 316 315 315 313 314 314 312 312 310 309 307 307 310 310 305 303 303 301 300 297
352 353 354 350 347 333 320 331 341 332 336 336 335 334 333 331 328 320 317 319 319 319 317 315 314 313 312 311 311 310 309 308 309 310 310 310 307 302 302 301 299 297 295
346 341 337 331 328 325 324 317 307 308 308 308 313 324 319 316 307 304 302 303 305 307 317 315 313 311 311 311 310 310 310 312 309 310 310 307 302 301 300 298 297 295 294
339 335 332 330 331 330 328 325 318 311 301 300 305 307 312 310 303 301 300 300 302 309 316 315 315 313 314 313 312 311 311 313 311 310 304 302 300 298 297 297 295 295 295
335 322 334 332 331 330 330 324 323 324 320 311 300 303 299 300 299 298 298 303 309 309 313 314 313 312 311 310 309 306 307 306 302 299 298 297 296 297 297 295 294 293 294
333 331 332 331 330 327 325 323 321 321 319 311 306 304 298 296 297 297 301 314 311 311 309 309 309 307 306 305 304 303 302 301 300 298 296 296 297 296 294 294 294 298 296
331 326 328 331 330 329 326 323 322 319 315 313 312 309 302 307 309 308 308 310 311 310 310 307 305 305 305 305 303 302 300 299 298 298 297 297 295 295 293 294 294 293 294
329 331 327 331 330 330 328 325 324 322 315 312 313 309 303 313 309 307 306 308 309 309 307 306 305 305 304 304 301 300 298 297 295 295 295 294 293 293 294 293 293 294 294
323 326 327 328 328 329 328 327 324 323 319 315 314 307 298 309 309 309 309 310 311 310 309 308 305 305 304 304 301 299 296 294 295 295 294 293 293 294 294 294 294 294 293
323 322 322 322 321 319 320 322 326 323 320 318 314 308 308 310 312 311 312 312 312 311 309 307 304 301 300 300 298 296 294 295 295 295 294 293 292 292 293 293 293 292 291
322 321 321 320 319 319 319 320 320 315 320 316 314 312 311 313 313 313 314 313 311 310 311 308 306 302 299 296 294 294 296 295 294 294 293 292 291 291 292 292 292 291 292
322 321 320 320 320 318 318 319 319 319 319 317 315 315 312 311 312 314 313 312 312 312 311 308 305 301 299 296 293 293 291 290 289 289 290 291 290 290 292 292 291 292 293
321 321 321 320 319 319 320 319 319 318 318 316 314 312 314 313 312 312 310 309 309 309 309 307 304 301 297 294 293 291 286 287 289 287 287 287 287 290 291 293 292 292 291

GFSGL_sfc_thetae_027.txt.gz
Theta_e
347 348 348 348 348 348 346 346 346 343 342 343 345 342 339 336 336 335 333 331 330 330 330 329 327 326 325 326 324 322 321 318 315 321 323 322 323 322 324 326 330 326 326
347 347 347 347 349 349 348 348 348 344 341 342 343 342 339 337 334 337 335 334 330 328 329 330 329 331 327 325 325 323 321 323 322 319 322 324 323 323 323 323 326 329 328
347 347 347 347 347 347 349 351 349 347 342 342 343 342 340 337 335 335 336 335 333 332 328 328 330 328 326 326 324 324 324 328 327 323 322 324 324 323 324 323 323 323 326
347 348 347 349 349 349 348 349 350 349 344 342 342 343 342 340 337 336 334 334 332 332 332 331 329 329 327 325 325 325 326 325 327 325 324 324 324 324 324 322 321 321 322
347 348 348 350 351 350 349 348 349 349 347 345 342 342 342 340 339 338 336 334 332 332 331 332 332 332 334 329 328 327 326 325 325 323 323 322 322 322 320 321 319 318 319
347 347 349 350 351 351 351 349 348 348 348 345 343 342 341 341 334 333 338 337 333 333 331 332 332 336 335 332 331 331 330 327 321 320 322 321 322 321 322 321 318 316 314
348 349 349 349 349 351 352 351 349 347 349 345 344 344 341 341 330 330 334 337 334 333 332 334 333 335 334 332 330 330 330 328 328 324 321 323 321 322 321 315 315 314 313
348 349 350 350 349 350 351 351 351 349 348 349 345 344 343 341 328 326 332 335 333 334 335 335 334 333 334 330 327 326 326 329 326 328 326 325 324 324 321 319 317 315 314
347 348 350 352 350 350 349 350 351 351 349 348 347 343 342 342 325 323 328 336 335 335 336 335 334 333 327 325 329 324 323 324 326 323 323 322 322 322 322 317 315 312 309
347 349 351 352 351 351 351 351 352 353 352 351 349 346 340 345 322 320 328 337 334 334 335 334 327 330 320 319 327 323 322 321 321 322 321 319 319 319 321 319 317 311 307
348 350 350 352 352 352 352 352 352 352 352 352 351 351 346 344 332 317 322 336 335 333 333 331 330 318 313 314 317 322 320 323 322 320 317 315 312 311 312 312 313 312 307
343 345 347 350 352 351 350 351 351 351 350 351 351 349 347 338 319 315 318 324 328 332 329 327 325 315 310 310 313 316 313 319 317 314 311 308 307 308 310 307 309 309 312
341 342 343 347 350 350 349 349 348 350 350 349 347 343 336 333 325 315 316 321 320 326 325 322 319 312 308 311 312 312 313 316 313 311 308 306 308 310 307 304 304 302 301
336 339 341 342 346 349 349 349 349 350 349 346 341 337 337 333 331 325 325 321 318 323 319 318 317 315 314 314 313 313 314 313 311 308 306 307 308 306 302 302 300 298 296
334 336 339 340 341 339 321 339 350 345 345 344 341 338 334 332 330 322 320 322 321 319 318 319 317 313 313 311 311 311 310 310 309 306 307 307 307 304 301 300 298 296 294
340 339 342 337 328 325 328 320 306 316 315 316 315 325 329 317 310 305 304 303 305 307 320 319 318 314 313 311 310 309 308 311 307 307 307 307 306 301 300 297 296 294 293
330 333 329 328 330 331 333 330 324 314 310 308 308 310 310 314 306 300 299 300 301 309 319 317 315 312 311 310 310 309 310 310 309 308 308 304 301 299 297 296 294 293 293
329 322 334 334 334 333 331 330 330 329 328 321 302 303 301 300 299 297 297 304 312 313 315 314 314 313 313 312 311 310 309 308 306 305 300 297 296 295 296 294 293 291 292
333 331 335 333 332 328 329 327 327 330 329 314 309 304 299 296 297 298 301 320 316 312 311 311 312 310 309 307 305 304 303 301 298 297 296 295 295 295 293 293 292 296 295
330 325 328 329 326 325 325 325 323 320 318 319 318 312 305 310 314 312 311 312 312 311 310 309 307 305 304 304 303 302 300 299 297 296 296 294 295 294 292 292 292 291 292
329 330 325 329 326 325 325 325 322 320 318 318 317 312 306 320 315 312 309 311 311 309 308 306 304 304 304 303 302 300 299 297 296 294 294 295 293 292 293 292 292 292 292
328 328 329 328 327 325 324 323 321 319 318 316 312 304 299 311 312 310 309 310 309 308 308 307 305 305 305 303 301 299 297 295 293 294 293 292 292 293 293 292 292 292 291
323 324 324 323 324 320 323 322 322 321 318 317 311 307 307 310 310 310 310 310 309 307 306 305 305 303 303 303 301 299 296 294 295 294 293 292 292 291 292 291 292 290 290
320 320 320 320 322 323 322 322 320 313 317 314 312 310 311 312 311 311 310 310 309 308 307 305 306 306 304 299 297 295 294 294 294 294 294 292 291 291 290 291 291 290 291
321 319 318 319 319 315 316 317 318 320 319 317 315 311 311 312 312 312 311 311 310 308 309 307 306 305 302 298 294 294 292 291 292 290 290 290 289 289 289 291 291 290 291
319 319 319 319 316 316 316 317 317 318 317 317 318 315 313 311 310 311 311 310 309 309 309 306 303 301 300 298 295 293 287 288 289 287 288 288 287 287 290 292 292 291 290

GFSGL_sfc_thetae_030.txt.gz
Theta_e
347 347 347 348 348 349 346 347 347 348 348 347 349 349 347 343 340 339 337 336 336 335 335 333 334 333 330 331 331 328 327 325 324 328 327 330 330 333 333 335 335 336 335
347 348 348 348 348 348 347 347 348 346 347 347 348 348 346 344 341 339 337 337 335 334 335 334 334 332 332 332 330 331 330 330 329 330 329 328 330 329 330 331 332 333 335
344 347 347 347 347 347 347 348 348 347 346 346 347 346 344 343 340 341 340 338 337 336 335 335 335 335 334 332 331 330 330 332 332 329 329 328 331 331 330 327 332 332 330
343 345 345 347 347 348 349 349 348 349 345 345 345 346 345 344 342 340 340 339 338 338 337 335 335 335 334 334 332 332 332 333 332 332 331 331 330 331 329 324 325 327 326
343 343 344 346 348 348 349 350 350 350 348 345 345 345 345 344 342 341 339 338 338 337 338 338 336 335 335 333 333 333 333 332 331 330 328 327 326 325 324 325 322 324 326
343 343 346 347 347 347 348 348 349 350 350 347 345 344 344 344 335 333 339 338 338 337 336 337 338 336 335 331 330 331 334 333 331 330 328 327 329 328 327 326 322 324 320
343 344 346 347 347 348 349 348 347 347 349 347 346 345 344 345 329 330 335 341 338 337 337 337 336 338 335 337 330 329 329 329 331 332 329 328 330 331 329 326 325 323 322
344 344 347 347 347 349 349 349 348 348 347 348 347 346 345 345 326 326 333 342 340 339 338 337 338 338 336 336 337 334 334 334 333 334 334 334 333 332 331 329 326 325 325
344 345 347 349 348 349 349 349 350 349 348 348 348 346 345 346 324 324 329 340 338 337 337 338 337 336 329 326 333 333 332 331 326 324 325 323 322 322 326 326 323 321 320
346 347 349 349 348 348 349 350 352 351 350 350 349 349 341 346 324 320 328 340 336 336 338 337 328 334 321 320 335 331 329 328 331 329 332 326 324 326 322 327 325 321 318
347 349 349 350 350 349 350 350 350 351 351 350 349 349 347 345 341 318 320 341 339 337 335 335 336 321 315 314 321 333 331 330 326 327 327 326 323 321 320 322 324 321 318
347 348 349 351 351 351 351 351 351 351 351 350 349 348 347 348 329 317 317 328 331 337 335 337 333 315 311 311 317 316 314 321 326 326 323 322 318 318 319 318 320 321 322
342 345 348 350 352 353 351 350 349 351 350 349 348 347 347 348 333 315 315 319 322 336 335 329 317 309 307 310 313 313 314 327 325 322 321 320 317 319 319 316 315 315 314
338 340 344 347 348 352 352 351 350 349 348 348 348 346 346 336 331 323 325 327 322 324 320 321 319 318 318 319 317 316 324 325 323 322 320 318 317 317 315 312 312 309 308
335 336 339 342 343 348 339 342 350 352 346 349 349 348 341 331 327 321 321 329 329 322 320 321 322 322 320 320 319 321 321 321 319 318 316 315 316 315 314 310 309 307 306
339 340 337 339 335 329 330 324 307 313 310 312 315 327 330 317 309 308 310 304 305 309 322 323 323 322 321 319 319 317 317 317 318 316 316 315 315 315 313 307 306 305 304
332 333 332 330 332 332 333 330 324 313 307 307 307 312 315 317 308 306 301 301 306 311 325 324 324 322 322 320 318 317 317 317 317 316 315 315 315 312 307 305 305 303 302
331 316 333 332 335 335 335 332 329 327 328 324 310 313 308 309 303 300 298 304 312 318 325 324 324 322 321 319 318 317 318 317 316 316 315 315 311 307 304 304 303 302 302
326 330 335 337 335 330 331 329 327 327 326 324 317 308 302 299 296 297 303 326 323 322 321 322 324 322 320 319 319 317 317 316 314 313 310 307 305 305 304 303 302 299 300
327 322 327 330 328 327 326 326 325 324 319 318 320 316 308 310 312 316 322 324 323 322 320 320 319 319 318 316 313 312 310 307 307 307 306 304 305 304 303 302 302 302 303
332 330 324 329 327 326 325 324 323 323 322 323 321 315 307 325 321 320 319 318 319 320 318 317 314 314 313 312 311 310 309 308 307 307 305 304 304 302 302 303 302 302 302
330 331 330 328 327 327 326 324 324 323 322 317 313 309 304 323 321 320 319 318 318 319 318 316 313 313 312 311 311 310 309 308 306 305 304 303 303 302 302 302 302 302 301
328 328 328 327 325 320 323 323 322 322 321 319 316 314 317 318 319 318 317 317 317 315 314 314 313 311 312 312 312 311 308 307 306 304 303 302 301 302 302 302 301 301 301
324 325 325 323 324 324 323 322 320 311 317 317 316 315 316 316 318 317 317 317 316 314 313 313 313 313 312 311 310 309 307 306 304 304 303 302 301 298 301 301 301 299 301
323 321 322 322 323 323 323 322 320 320 320 319 317 316 316 316 316 317 316 316 316 314 312 313 313 312 311 310 309 307 299 291 301 296 302 302 301 300 299 300 301 300 300
322 322 320 319 319 319 319 320 320 320 319 318 317 315 315 315 315 314 314 315 316 315 314 312 311 308 307 309 307 298 287 288 295 290 300 299 298 297 297 299 301 300 300

GFSGL_sfc_thetae_033.txt.gz
Theta_e
354 355 356 356 357 359 358 360 360 362 361 361 360 360 360 360 358 356 354 351 347 347 346 345 345 347 340 340 340 339 336 334 330 334 336 341 340 341 341 345 342 343 340
354 355 356 357 357 357 358 359 361 361 361 363 361 360 360 359 358 356 353 350 348 346 346 345 344 342 344 344 340 342 339 339 334 336 339 337 339 343 342 342 339 337 339
354 354 355 355 357 357 358 359 361 361 361 358 360 360 358 359 358 356 355 352 350 349 347 346 345 344 342 340 340 339 338 339 339 335 333 337 338 339 339 340 340 340 337
351 353 354 356 356 357 359 359 360 361 361 361 361 360 359 358 358 356 355 353 351 350 349 347 346 345 344 344 341 342 341 339 339 336 334 335 337 339 337 333 332 334 334
351 352 354 357 358 358 359 359 360 360 360 361 360 360 359 357 354 356 355 353 352 350 349 348 347 346 340 342 342 344 344 339 337 335 334 334 334 333 332 331 332 333 334
351 350 354 357 358 358 358 359 359 359 360 360 359 359 358 355 340 337 350 354 353 352 350 349 350 341 339 333 333 336 342 341 340 336 334 333 336 335 333 333 331 326 326
351 352 353 356 356 357 358 359 358 358 359 359 358 358 357 358 332 332 337 353 352 353 353 351 347 346 341 343 331 330 331 332 336 343 338 338 339 339 339 335 333 332 330
351 352 354 354 355 356 357 357 358 359 359 358 358 358 358 357 329 328 334 352 355 354 353 352 351 348 346 346 345 342 341 341 340 340 343 344 343 342 340 337 338 336 334
351 352 353 352 351 356 355 356 357 357 357 358 359 359 357 358 326 325 332 349 352 352 351 351 351 349 338 328 344 343 342 343 331 327 329 327 325 326 332 336 334 329 324
352 353 355 356 355 356 356 357 358 358 357 357 358 360 349 358 325 321 331 349 351 349 352 352 331 345 325 321 343 344 341 341 341 338 337 328 328 330 323 337 335 325 322
352 353 357 358 357 358 359 360 360 357 357 356 357 359 359 355 352 319 320 351 351 349 348 347 348 323 316 316 324 345 342 341 336 340 338 336 336 334 333 334 335 327 322
354 356 359 360 356 356 359 357 358 358 358 356 356 355 355 358 333 319 317 324 340 350 348 348 343 316 314 313 320 323 317 327 338 335 333 331 331 330 330 328 330 330 328
354 356 357 359 359 361 358 356 354 358 355 354 353 352 352 353 353 321 317 318 323 346 350 336 321 312 312 315 317 315 317 336 334 332 330 330 332 331 330 327 327 328 328
353 356 357 356 356 360 357 351 353 354 354 354 354 351 351 352 347 329 326 322 320 330 324 325 322 321 323 326 322 318 335 337 334 332 332 332 329 326 324 324 321 320 319
350 350 351 353 353 357 359 358 355 359 354 355 355 355 354 340 328 320 322 330 326 319 325 327 327 326 327 327 330 327 332 334 332 333 331 327 325 323 323 323 322 320 317
351 347 345 346 349 352 353 342 310 309 313 315 318 342 347 318 308 306 304 307 309 312 326 325 324 326 327 328 327 328 329 329 332 331 329 327 324 322 323 321 320 317 315
342 343 341 338 345 344 343 342 340 327 304 305 307 308 312 312 306 306 305 307 309 315 327 327 326 327 327 326 326 326 327 329 332 328 327 325 323 324 321 320 317 314 313
339 319 337 339 338 339 340 340 337 334 330 318 306 311 305 304 304 304 304 310 316 324 328 327 327 328 329 328 328 327 328 327 327 326 325 325 324 323 320 317 315 313 310
335 336 337 333 330 328 330 329 330 331 332 325 320 312 305 300 298 300 302 327 323 328 328 329 330 331 332 331 329 329 328 326 325 325 325 324 323 320 317 315 312 304 305
337 323 330 332 329 327 328 326 326 324 325 324 324 320 311 312 315 316 326 327 327 328 329 332 332 333 334 332 328 328 327 323 324 324 323 321 319 317 314 311 309 307 307
334 335 326 339 337 333 330 327 328 324 323 324 323 319 305 322 320 321 327 327 327 329 332 333 334 333 331 328 326 324 323 322 321 319 318 316 315 313 312 310 308 308 307
333 332 334 332 332 331 331 330 329 327 325 321 317 311 302 324 324 327 328 330 334 334 332 330 329 328 326 324 324 321 319 318 318 317 316 314 313 312 310 309 308 307 306
337 333 332 333 333 324 331 329 329 327 325 321 320 320 321 327 328 328 329 328 327 328 329 328 327 324 324 324 322 320 318 318 317 316 314 312 311 309 309 308 307 306 305
335 335 334 332 332 330 329 327 324 315 322 321 321 324 327 328 327 327 326 326 325 326 326 326 325 324 322 321 321 320 319 317 316 315 313 311 309 306 308 307 306 305 305
329 330 331 332 330 329 328 330 328 326 325 322 323 323 323 323 325 326 325 326 326 324 324 324 323 322 321 321 320 319 303 296 311 303 312 310 309 309 307 306 305 304 304
326 328 326 324 324 325 324 323 323 325 324 321 320 319 322 323 325 324 324 325 325 323 322 322 322 322 322 320 319 302 287 289 301 294 309 309 308 307 305 304 303 303 304

GFSGL_sfc_thetae_036.txt.gz
Theta_e
363 365 365 363 364 366 367 369 370 368 370 367 367 364 363 364 366 366 365 361 358 357 353 350 351 353 342 342 342 341 339 337 332 334 339 345 347 345 343 345 345 344 342
362 366 365 365 365 364 367 368 372 370 370 369 368 366 364 363 365 365 362 359 358 356 354 352 350 347 350 351 343 351 345 346 336 340 343 339 345 347 347 347 342 340 340
360 358 359 360 362 365 368 368 370 370 371 365 367 370 365 364 365 365 363 362 359 358 356 353 351 349 349 344 345 343 342 341 342 337 336 340 339 342 344 346 345 344 341
354 356 360 363 364 365 368 369 369 371 370 370 370 370 368 365 364 363 363 362 361 359 358 356 353 349 349 349 344 346 346 341 343 338 336 336 338 343 341 336 336 339 337
358 355 360 364 367 367 367 369 370 370 370 371 370 370 371 365 359 366 366 362 363 360 359 358 355 351 342 345 344 349 351 343 338 338 336 336 336 335 337 337 334 335 339
359 359 362 366 367 367 368 369 370 370 370 370 369 369 368 362 343 340 357 363 364 363 361 359 359 347 344 336 335 337 347 349 347 337 336 337 344 340 338 336 333 333 328
359 362 364 367 366 368 369 369 369 368 369 369 369 369 369 369 334 334 340 362 362 364 364 360 356 353 348 351 336 333 334 334 338 348 344 344 344 344 344 341 339 335 333
360 361 363 365 366 368 368 367 368 369 368 368 368 369 368 368 333 330 336 361 364 366 365 363 362 361 357 352 351 345 343 347 346 343 347 346 351 348 346 343 342 341 339
359 360 363 364 361 363 366 367 366 364 366 366 365 369 368 368 330 326 335 358 358 364 365 364 364 363 344 331 351 349 347 347 335 329 331 331 330 331 337 339 334 334 329
358 359 363 365 364 363 366 367 368 365 363 362 363 368 357 368 330 323 334 355 356 355 364 367 336 354 330 324 349 353 347 347 347 344 342 334 332 334 326 340 336 330 328
355 356 361 365 366 367 369 368 367 365 363 365 366 367 369 364 363 320 322 357 355 356 354 357 358 327 319 318 328 349 345 348 342 346 341 341 341 340 338 338 340 335 328
359 357 362 366 359 359 368 368 367 365 364 364 362 358 363 366 340 322 320 330 344 356 355 356 355 320 316 314 323 327 320 328 343 338 339 337 337 336 337 338 341 339 332
359 361 362 362 362 365 365 364 360 363 357 358 356 355 356 359 365 325 317 320 326 348 357 346 326 313 313 314 318 319 321 338 340 337 333 336 336 337 341 338 337 337 336
358 360 361 361 360 362 360 360 358 356 356 354 354 350 356 359 362 362 338 327 323 332 329 336 326 323 322 324 322 324 336 336 339 338 335 337 338 335 333 332 328 327 325
358 358 359 358 359 360 362 359 358 362 353 356 357 356 354 356 358 343 330 332 337 330 324 327 326 327 327 326 329 330 337 338 337 337 336 335 333 331 330 329 327 326 323
353 352 351 352 355 356 357 358 317 315 308 304 305 324 354 321 310 309 308 307 308 310 328 328 327 328 328 328 327 327 333 334 337 337 335 334 332 329 328 327 326 325 323
348 352 352 341 347 349 352 353 352 334 306 304 301 303 312 312 305 303 302 305 307 313 328 326 327 327 329 330 331 329 328 335 340 337 334 333 331 330 325 326 326 324 322
343 321 344 343 343 344 342 342 343 343 343 349 313 303 301 300 302 302 303 309 315 321 331 330 329 330 331 331 332 331 333 335 336 334 333 332 330 327 326 326 324 321 319
343 342 339 341 341 336 337 331 328 328 326 323 320 310 309 301 303 301 301 328 326 331 336 336 334 333 332 332 333 334 336 334 333 332 330 329 328 327 325 323 322 309 310
340 326 331 339 339 337 338 335 331 328 325 325 324 320 319 318 320 322 321 321 325 332 336 335 335 334 335 334 335 334 333 330 331 329 327 328 327 326 323 321 319 315 312
338 338 327 340 338 335 337 337 336 332 328 328 326 322 306 325 320 322 323 323 327 330 335 336 337 338 336 338 336 333 331 330 330 329 327 326 325 322 322 319 316 313 311
338 339 337 336 337 336 335 335 335 338 335 333 331 318 301 330 324 323 324 328 330 333 335 336 337 338 336 335 334 331 329 329 329 327 325 324 322 321 318 315 313 312 310
338 338 338 337 335 325 334 335 332 330 328 329 327 330 328 327 327 326 327 330 331 332 334 335 338 336 335 333 332 330 327 326 325 324 323 321 319 317 315 313 311 310 309
338 337 336 333 333 334 333 331 328 316 322 323 326 328 329 327 328 328 329 331 333 332 332 333 331 330 330 329 329 327 326 325 325 323 323 320 317 312 313 312 311 311 309
332 331 331 332 332 332 332 331 331 330 328 325 324 326 328 330 330 330 329 328 328 329 329 329 329 329 328 327 326 324 304 302 317 309 319 318 316 315 312 311 311 310 308
327 327 326 324 323 325 325 328 328 329 329 330 330 331 331 329 329 329 329 329 328 328 328 328 328 328 327 325 324 301 290 293 307 297 315 315 314 313 311 311 310 308 307

GFSGL_sfc_thetae_039.txt.gz
Theta_e
370 370 370 371 371 374 370 372 372 372 375 371 372 369 370 370 371 372 369 368 365 364 362 362 359 361 343 343 343 342 340 338 332 335 339 350 352 348 346 346 346 349 342
366 370 369 371 370 370 371 372 374 373 374 374 375 372 371 370 371 370 367 361 365 362 360 360 356 349 358 357 345 356 346 350 338 350 346 343 350 354 352 354 346 340 342
363 364 368 368 369 369 371 372 374 374 374 372 372 373 371 370 370 371 370 367 367 365 363 361 357 356 358 347 347 346 343 345 346 339 338 341 343 345 347 352 351 350 343
359 360 364 368 368 368 370 373 373 375 374 373 373 373 373 371 370 369 369 369 367 365 365 364 361 358 356 357 353 352 352 346 345 341 338 337 339 348 342 338 343 343 341
360 361 363 368 371 371 371 372 373 374 374 374 372 372 374 372 366 369 368 368 368 366 366 366 364 358 348 351 349 351 350 347 339 338 338 337 336 341 338 339 338 344 345
362 361 365 369 371 371 372 372 374 373 374 374 373 372 372 369 347 341 359 367 369 368 365 367 366 351 347 337 338 338 347 353 347 339 339 339 352 347 341 338 340 339 331
361 365 365 368 369 371 373 373 372 372 373 373 372 372 371 372 338 335 341 366 367 367 367 367 364 358 352 356 336 335 334 334 340 352 347 347 354 354 353 350 347 340 337
364 362 367 367 369 371 372 372 373 373 372 372 372 373 372 371 339 330 336 361 364 366 367 367 368 364 360 358 356 348 348 348 347 345 351 351 354 356 352 351 350 348 343
362 364 364 368 368 370 370 370 372 371 371 371 372 372 372 372 335 328 333 358 360 362 366 367 368 367 348 335 357 354 350 349 335 331 332 332 332 335 338 345 337 336 331
361 365 368 370 370 370 371 372 373 372 370 369 369 372 360 371 340 326 332 358 357 358 363 366 340 360 337 327 354 355 350 346 348 344 340 334 335 337 330 345 341 332 336
361 365 369 370 371 371 372 374 373 371 367 370 369 370 371 367 368 324 322 357 357 357 358 359 363 331 325 319 333 356 351 351 342 346 342 343 342 344 340 340 343 336 331
364 365 367 370 366 365 372 373 374 371 369 369 368 367 368 371 343 327 320 329 345 358 358 358 360 324 320 316 325 331 322 335 348 345 341 340 340 339 342 340 341 342 342
367 369 370 371 370 371 370 372 366 369 362 362 360 361 363 364 369 328 318 320 327 353 360 343 322 315 316 318 320 320 323 347 346 341 339 337 339 339 340 342 345 347 344
368 370 370 370 368 369 364 363 361 359 359 357 357 358 357 361 362 364 351 337 323 333 339 350 337 328 327 337 326 329 342 344 341 338 338 339 340 337 335 337 335 334 330
361 360 362 361 363 365 365 361 360 365 350 358 357 357 356 357 356 340 347 361 352 341 344 338 335 336 332 329 333 335 338 338 336 338 338 335 335 334 333 335 334 332 327
358 358 357 357 360 360 360 361 316 321 306 304 304 329 352 322 311 308 307 310 314 313 337 334 333 331 330 330 330 333 336 336 337 337 339 335 332 332 330 333 332 329 327
359 360 352 346 352 355 355 355 353 328 303 302 303 302 301 301 305 303 304 306 306 312 339 336 335 334 331 330 331 332 334 334 339 340 335 333 331 333 330 327 328 329 326
346 322 349 351 352 352 351 351 354 352 351 350 313 307 299 298 297 297 297 304 317 322 338 335 334 333 331 332 333 334 335 335 336 338 333 333 333 331 326 329 328 328 326
347 343 345 345 345 339 342 341 341 340 337 336 336 318 309 297 296 296 299 327 324 326 330 329 330 331 333 335 333 333 336 335 335 336 335 335 332 329 328 329 328 317 319
340 328 333 343 342 343 340 338 335 335 334 334 333 331 330 324 329 323 328 328 327 328 329 330 337 332 333 333 333 334 336 335 334 335 334 332 333 332 329 328 324 321 320
339 341 332 342 338 338 338 338 336 335 337 337 334 326 304 332 329 326 329 329 331 330 332 332 336 334 332 334 335 334 334 333 334 334 331 332 332 330 329 326 323 321 318
342 339 338 337 337 336 336 338 337 336 334 333 334 329 304 333 333 333 331 333 333 333 334 335 334 333 334 334 333 331 331 331 332 332 330 330 329 326 324 322 320 318 315
337 338 338 338 337 329 336 335 334 334 331 329 330 331 333 331 332 331 330 334 336 337 337 334 334 334 334 333 334 334 331 331 331 332 329 328 326 324 322 319 317 314 312
329 330 333 334 334 334 334 333 330 320 326 327 329 331 331 332 333 331 332 335 336 335 337 334 334 334 336 335 336 334 334 334 333 331 330 326 323 318 320 317 315 313 312
330 327 328 330 331 330 332 330 331 333 332 330 329 329 330 332 333 334 332 332 335 333 335 336 335 335 334 334 332 330 301 302 325 314 326 325 323 324 318 316 314 312 312
320 323 325 323 324 323 322 320 320 324 326 326 325 326 329 329 329 329 330 330 330 330 330 330 331 331 332 330 322 298 291 297 310 298 322 322 320 318 316 314 313 312 311

GFSGL_sfc_thetae_042.txt.gz
Theta_e
364 365 365 365 364 364 362 363 367 363 372 365 369 366 365 365 365 367 363 362 363 360 359 358 355 352 349 350 348 348 345 343 336 339 347 350 347 343 343 345 346 346 341
365 366 364 366 367 365 363 363 365 367 366 370 368 366 365 364 366 363 362 358 361 359 357 357 356 352 352 353 354 347 345 347 342 341 345 346 347 348 348 348 345 343 346
364 366 365 365 365 365 365 364 365 364 367 364 368 367 364 364 364 365 363 361 356 361 360 356 354 353 350 346 348 348 347 349 350 341 341 348 348 348 346 346 349 346 346
361 363 363 365 366 366 367 367 365 367 364 366 365 365 366 365 364 364 364 364 362 359 362 360 357 353 349 350 347 345 347 346 343 344 341 340 345 346 344 340 341 344 342
356 360 361 364 367 367 366 367 369 367 367 366 366 367 366 366 365 364 363 363 362 360 360 362 360 356 348 347 350 349 344 344 344 338 338 340 339 342 337 340 338 339 341
358 358 361 363 364 366 366 366 367 368 367 368 366 364 365 365 349 343 357 362 363 362 360 360 361 351 348 340 340 342 346 342 339 337 337 335 338 341 343 339 337 336 330
359 361 362 363 364 365 366 366 365 366 367 367 367 367 364 366 341 338 342 362 361 362 362 360 360 360 351 352 338 337 336 336 339 342 338 341 345 346 346 343 341 338 334
363 360 364 365 364 366 366 365 366 366 366 366 366 367 366 365 340 333 338 359 360 361 362 362 360 359 358 354 350 344 344 342 339 343 345 343 348 351 347 347 344 341 340
358 363 361 366 364 365 365 365 366 366 366 367 367 367 366 366 335 331 333 355 357 359 361 362 362 360 349 335 352 346 343 343 334 332 334 337 336 335 344 343 339 334 332
357 359 365 362 365 364 365 366 368 367 366 367 366 367 357 366 340 328 332 358 355 355 357 359 339 354 336 326 350 350 345 343 343 341 338 332 332 335 332 344 340 333 331
360 361 362 366 363 366 367 368 368 367 367 366 366 367 367 363 364 326 322 359 358 355 354 354 357 329 325 321 328 351 348 348 341 344 340 339 338 340 336 339 342 338 332
363 364 365 368 364 364 368 369 369 368 365 365 365 364 367 368 341 333 320 324 347 359 356 355 354 327 320 319 323 335 324 334 349 343 341 338 336 336 339 338 340 340 337
374 372 366 369 368 366 367 367 366 368 365 364 362 362 362 364 367 328 321 319 323 342 361 350 325 316 316 321 321 326 323 347 348 342 340 338 338 338 339 339 337 337 336
370 375 370 368 366 367 366 366 364 363 364 363 362 360 360 363 364 364 349 333 324 331 340 347 341 334 328 331 333 327 345 350 348 343 341 340 340 339 337 337 335 334 333
370 369 369 365 365 366 364 362 363 366 355 362 361 359 359 358 355 331 340 357 352 341 344 354 354 352 350 345 342 338 344 347 344 344 342 337 337 336 335 335 333 332 328
365 362 361 360 363 362 363 360 308 312 307 304 307 328 345 314 305 308 314 317 314 311 339 349 351 352 346 341 337 338 342 342 344 343 339 337 334 333 332 332 332 329 326
366 365 359 354 359 361 361 360 355 316 301 303 301 302 301 301 299 301 298 300 302 314 349 344 345 342 338 339 337 339 339 342 344 341 338 334 332 332 329 329 328 327 324
357 324 359 359 356 356 359 359 360 352 348 345 308 308 299 298 297 296 298 306 333 326 343 340 339 341 340 337 337 337 340 342 341 339 336 333 333 331 329 328 326 324 324
356 351 352 347 345 341 347 345 343 342 341 340 339 319 310 299 298 297 297 329 328 327 329 329 329 330 331 332 332 332 332 332 332 334 332 332 331 329 327 328 326 318 320
344 332 337 344 343 341 341 338 337 338 337 336 335 333 334 329 328 327 330 330 329 328 328 327 330 332 332 333 329 330 331 331 332 331 332 332 331 330 328 327 325 323 322
340 341 334 341 340 340 339 336 336 336 337 338 333 324 303 329 329 328 329 330 332 333 335 335 335 335 334 332 331 331 334 331 333 333 332 331 331 328 327 325 325 321 319
341 341 340 336 339 338 339 339 338 336 334 333 332 323 306 330 332 332 330 331 334 336 336 338 337 337 337 334 333 332 330 330 331 331 330 330 330 329 326 325 323 321 318
336 336 338 337 336 330 333 333 331 329 329 329 329 330 330 332 333 332 333 334 336 339 340 338 336 334 333 333 332 333 330 331 333 333 331 329 328 326 324 322 320 318 315
334 333 334 332 329 332 332 330 329 322 328 330 330 330 331 332 333 333 334 337 338 337 339 339 338 332 336 333 333 333 332 334 334 332 331 328 325 319 322 321 318 316 314
325 326 326 326 326 326 327 327 326 324 324 322 322 323 326 330 330 330 334 335 335 336 337 337 337 337 336 335 334 333 316 308 327 316 329 326 325 323 321 319 317 314 313
318 322 322 323 321 320 319 319 320 319 318 318 318 316 317 317 321 325 327 326 325 329 333 335 336 337 337 334 316 297 289 296 305 302 324 325 323 322 319 318 317 313 312

GFSGL_sfc_thetae_045.txt.gz
Theta_e
355 354 356 356 354 353 354 348 352 352 355 353 357 356 357 357 358 355 355 354 354 352 350 349 348 345 337 335 336 335 330 330 324 326 333 334 335 336 337 336 340 337 333
356 356 355 357 357 353 353 354 349 355 354 357 359 358 358 357 357 357 355 356 351 352 351 347 348 349 340 338 341 333 333 334 328 324 333 336 333 334 334 334 337 341 338
356 356 356 356 357 356 355 353 356 351 357 354 358 358 358 358 357 357 358 355 352 354 353 351 348 348 342 340 339 338 337 335 336 330 332 336 337 337 337 338 336 335 339
355 356 356 357 357 358 358 357 352 357 355 359 355 358 358 358 358 358 357 357 355 351 355 353 351 349 346 342 337 337 337 335 333 333 329 330 335 338 335 333 333 338 335
354 356 357 359 359 359 359 360 359 355 358 356 358 357 360 357 358 357 358 357 356 354 351 356 355 351 346 344 343 339 337 335 334 332 331 330 329 333 335 334 333 334 335
350 354 357 359 359 359 359 359 360 360 357 359 356 357 357 360 346 343 354 357 357 356 354 352 356 350 346 339 340 340 341 335 333 336 332 332 333 332 334 335 334 329 327
348 350 355 357 358 359 360 360 359 360 361 358 359 357 357 359 339 337 342 357 356 357 357 356 353 356 348 350 338 337 337 337 335 335 335 333 333 335 336 333 333 331 328
348 349 351 355 356 358 358 358 359 360 360 361 359 360 359 359 338 333 338 356 357 357 357 357 356 354 354 352 349 344 343 342 340 338 335 336 337 338 340 338 335 333 333
350 351 352 355 355 356 356 358 359 359 359 359 361 361 360 361 333 331 334 353 356 356 357 357 358 356 346 334 351 347 344 343 336 331 333 332 332 335 340 340 334 330 327
349 353 356 356 357 356 357 358 359 360 359 360 360 361 353 361 335 327 332 355 354 354 356 356 338 351 335 328 349 350 345 344 343 338 335 331 333 336 335 340 336 330 327
351 352 356 357 357 359 358 360 359 359 360 359 359 361 362 358 358 325 323 355 356 355 354 353 355 330 324 322 327 353 349 348 342 341 339 338 336 336 337 340 339 336 329
349 350 351 356 355 358 358 359 360 360 359 358 358 359 361 362 337 328 321 325 345 357 356 357 354 325 320 320 323 334 328 330 349 341 340 337 335 335 336 339 340 339 338
349 352 352 354 358 352 358 357 359 359 359 358 358 358 358 361 362 327 321 320 324 347 360 352 335 323 316 320 321 325 324 342 349 346 340 340 338 339 339 336 338 338 335
352 350 356 356 356 355 358 360 360 360 359 358 357 357 357 357 359 360 348 331 324 330 338 347 341 336 333 333 328 325 332 345 349 348 347 345 343 338 336 337 334 334 332
354 358 357 356 356 356 346 333 355 359 352 358 359 357 356 355 346 321 325 345 343 335 339 347 350 350 348 348 337 337 334 336 342 347 347 346 342 337 335 336 335 333 330
355 356 355 354 355 356 343 326 306 306 305 306 306 333 323 309 302 302 302 305 308 309 330 341 345 348 350 350 349 348 337 335 339 343 345 347 343 337 336 335 335 331 329
345 353 352 347 352 354 356 350 327 314 302 300 301 302 304 302 301 301 300 300 302 310 338 340 342 344 346 344 344 343 341 342 341 341 344 344 344 340 335 335 331 330 329
342 328 344 349 345 351 351 352 340 329 328 318 306 307 300 298 297 298 300 307 328 326 331 331 331 335 338 338 338 339 339 339 340 338 334 333 333 331 331 331 330 329 327
346 343 337 337 337 336 337 337 340 338 334 328 320 309 302 299 299 301 305 327 326 327 328 328 329 329 330 331 330 332 332 332 331 330 328 328 329 329 325 327 328 320 322
338 330 332 335 334 334 334 332 331 330 328 328 325 324 321 319 319 320 321 322 322 321 322 322 324 327 327 327 327 326 328 326 327 325 325 327 328 329 328 328 326 323 323
336 334 335 338 334 333 331 330 330 330 328 326 320 314 303 322 320 320 320 322 323 323 325 326 326 326 325 325 327 325 326 326 327 328 330 329 328 327 328 326 324 324 323
334 335 333 331 332 332 330 329 328 326 326 324 319 316 303 325 325 323 322 325 326 326 327 327 327 327 328 328 329 330 329 329 330 330 329 329 328 328 327 326 324 323 321
333 330 332 330 328 325 326 326 325 325 325 327 327 327 328 329 329 328 326 327 327 329 330 329 328 328 327 327 328 328 328 328 328 330 329 328 325 326 323 323 319 317 315
328 328 328 328 327 326 325 325 321 316 322 322 321 321 322 326 325 323 323 323 328 330 331 329 329 330 328 327 327 327 328 329 330 329 328 327 326 321 320 318 317 316 313
323 322 322 321 321 320 319 318 319 318 317 316 316 316 316 316 316 315 314 315 317 314 315 323 330 327 327 327 328 330 314 304 322 317 326 323 321 318 317 315 313 309 307
310 313 317 316 315 315 314 313 312 312 312 312 311 310 310 310 309 309 308 309 311 311 308 306 305 305 318 325 319 302 293 297 312 305 320 320 318 316 315 313 311 307 305

GFSGL_sfc_thetae_048.txt.gz
Theta_e
347 350 349 347 346 353 348 344 345 347 343 346 352 353 355 354 353 351 350 352 350 350 350 346 344 343 340 335 333 331 326 325 321 322 329 330 331 332 333 333 329 328 329
349 349 351 351 349 346 352 349 346 346 348 347 351 352 354 354 354 352 351 353 352 350 351 348 346 347 341 337 333 332 330 327 324 320 324 333 331 332 332 333 330 333 332
349 349 350 351 352 350 347 351 351 347 347 349 354 353 354 354 354 355 353 351 352 352 352 349 349 348 345 342 335 335 333 331 329 324 324 331 331 332 329 331 331 333 336
350 350 349 351 353 354 352 349 351 352 346 350 352 356 355 356 355 355 355 354 353 352 352 352 351 348 348 344 339 336 334 334 330 330 325 331 331 334 331 330 329 332 332
351 351 351 352 354 356 355 353 352 351 353 349 350 352 356 356 356 355 355 354 354 352 351 353 352 350 346 344 345 341 334 333 331 329 327 326 328 331 331 330 330 332 335
350 351 353 354 354 354 355 355 354 353 350 352 352 352 352 357 344 341 352 354 354 352 351 350 352 348 345 339 338 339 340 336 333 333 333 331 331 331 333 334 332 327 326
349 350 353 353 354 355 355 355 355 355 354 350 352 353 352 354 337 336 341 355 354 354 353 352 351 352 347 350 338 336 336 334 336 334 332 334 332 333 332 332 333 331 331
344 350 352 354 354 356 355 355 356 356 356 356 353 353 354 354 334 332 337 353 354 354 355 355 353 353 351 351 351 345 342 344 339 338 336 334 336 337 336 335 334 334 330
343 344 351 353 355 355 355 356 357 357 357 357 358 356 354 356 331 329 333 349 354 355 355 355 356 355 344 333 350 349 347 346 339 331 333 331 328 329 333 335 330 327 326
343 345 347 350 353 354 355 355 357 358 357 358 358 360 351 357 333 326 332 352 352 353 356 356 338 349 333 328 345 350 348 349 348 346 336 334 329 331 329 337 336 331 330
347 347 349 349 350 353 354 356 356 357 356 356 356 357 358 356 355 324 323 354 355 354 354 354 356 329 324 322 326 352 350 351 347 347 346 342 340 340 337 339 341 338 333
347 348 350 352 351 353 353 354 355 355 354 354 354 355 357 358 335 324 321 326 344 356 355 356 354 328 320 319 323 331 328 329 352 352 347 345 342 340 339 340 342 341 340
340 344 346 350 352 353 353 352 353 355 354 354 354 354 355 358 358 325 321 321 324 346 359 350 333 323 318 320 319 324 323 342 348 349 349 349 345 346 343 339 342 342 340
344 343 346 346 346 348 354 355 355 355 355 354 354 354 355 355 357 358 343 332 324 329 336 347 341 333 327 335 332 326 331 340 344 347 348 351 353 347 341 338 336 338 335
348 350 349 349 345 348 329 330 349 349 347 356 356 357 356 355 355 338 341 347 344 336 339 344 346 349 350 350 349 339 335 335 336 340 344 346 347 348 342 339 336 335 333
342 345 350 352 348 341 327 320 305 303 302 306 317 337 321 311 305 305 304 304 306 311 332 337 340 342 344 347 350 350 341 337 339 338 340 342 343 344 344 341 337 334 332
340 340 339 343 350 348 335 330 323 314 305 300 300 302 306 306 301 302 302 303 305 312 334 334 336 337 339 341 345 347 345 340 339 338 338 340 341 341 338 340 338 334 333
339 328 338 342 346 350 351 337 327 325 321 318 308 304 300 298 299 300 302 310 326 325 329 327 329 331 334 336 335 335 338 338 338 337 331 330 330 329 328 329 328 326 326
337 337 335 335 334 336 340 341 333 332 324 320 314 309 302 298 299 302 304 324 326 324 327 324 325 324 324 323 324 325 326 330 331 330 328 326 328 323 326 325 322 317 320
335 329 331 336 335 332 333 334 335 331 326 325 325 323 319 313 318 317 319 319 319 318 318 318 319 319 320 321 322 322 325 327 327 329 325 325 326 326 324 325 326 324 323
333 332 332 333 334 333 333 332 331 330 327 323 320 318 306 320 318 318 318 319 319 320 320 321 321 322 323 323 323 325 326 325 325 325 324 328 329 328 327 325 325 322 320
334 331 331 330 328 327 328 328 328 327 323 321 319 311 299 322 321 320 320 321 322 323 324 322 323 324 325 324 327 329 327 327 328 326 327 328 327 327 326 325 324 323 321
331 330 328 326 325 321 323 324 323 323 322 321 322 322 325 322 318 320 319 318 320 325 327 325 325 325 326 324 325 327 325 325 328 330 328 327 325 325 322 320 321 322 316
326 327 326 326 325 323 321 319 318 312 316 316 316 317 317 315 312 313 313 312 312 312 311 314 315 318 326 326 326 326 325 326 327 327 326 324 323 318 319 317 315 314 312
319 320 322 321 320 318 317 315 315 313 313 312 310 310 310 309 308 308 307 309 308 306 305 304 303 300 301 305 303 303 298 291 309 314 327 325 324 323 320 317 315 315 313
310 310 313 314 313 313 311 310 309 308 306 305 304 303 304 303 303 304 304 304 304 304 303 302 302 297 295 295 293 289 285 287 301 298 324 324 322 319 317 314 313 312 310

GFSGL_sfc_thetae_051.txt.gz
Theta_e
345 345 345 346 345 346 344 343 343 341 341 345 347 349 352 351 351 349 348 349 348 348 347 344 342 341 339 336 332 330 325 323 319 321 325 328 329 331 333 336 333 329 328
345 345 345 346 347 348 346 343 343 344 343 342 347 348 351 352 352 350 348 349 349 347 349 346 346 346 340 337 333 330 329 325 323 320 321 328 328 330 332 332 334 331 327
343 345 345 345 344 345 350 350 345 342 342 345 344 348 349 351 351 351 350 349 349 350 350 348 349 346 344 342 337 333 330 330 326 322 323 325 330 328 328 329 329 329 329
344 344 345 346 347 345 345 347 350 348 344 345 347 348 349 351 352 352 351 350 349 350 351 351 351 349 348 346 342 339 335 330 327 326 325 325 328 330 328 327 326 328 330
343 344 344 347 349 349 348 346 347 350 350 347 347 349 351 352 352 352 352 351 349 349 350 351 351 351 346 346 347 345 339 336 333 329 328 324 326 327 328 327 329 329 330
344 344 346 347 349 350 350 350 347 346 349 349 346 347 349 353 342 340 349 352 351 350 349 350 351 347 345 339 338 341 343 339 336 332 334 331 331 329 333 331 329 323 323
345 346 347 348 347 349 352 352 350 348 348 347 349 348 346 350 335 336 341 353 352 351 350 350 350 351 345 350 339 336 336 334 339 342 335 336 333 335 333 329 331 330 329
346 347 349 350 350 350 350 351 352 352 350 349 347 348 349 349 334 331 337 351 353 352 353 352 351 351 349 348 349 347 344 344 340 340 344 344 341 340 335 334 332 333 332
344 347 348 350 350 351 351 351 352 353 353 352 352 349 348 350 329 328 333 349 351 352 353 353 353 352 342 332 347 347 348 348 339 331 332 334 332 330 333 334 331 327 328
342 346 349 351 351 350 353 353 353 354 353 355 355 355 346 351 331 325 330 349 349 350 352 354 337 347 333 328 344 348 346 348 350 349 344 335 331 336 328 333 337 332 330
341 342 345 351 351 353 354 354 354 354 355 354 354 356 357 353 352 323 322 349 351 351 351 352 354 330 324 322 325 352 349 350 349 350 351 350 349 344 342 341 337 337 333
343 342 342 344 349 352 352 353 353 354 353 353 353 353 355 356 335 324 321 325 343 353 353 355 353 327 320 320 323 331 326 329 350 352 351 351 350 349 346 344 342 338 340
341 343 345 347 347 347 350 350 351 352 351 351 351 351 352 354 354 325 320 321 324 344 357 349 332 321 318 319 318 321 321 339 344 347 348 350 352 354 355 349 343 342 341
347 344 343 343 345 347 349 350 349 350 350 350 350 350 351 351 354 354 337 332 324 331 336 345 339 332 328 334 333 328 329 337 341 344 346 349 351 351 351 349 343 339 337
343 344 345 346 341 343 332 331 346 349 343 352 352 353 351 350 353 341 343 351 347 339 340 344 345 347 349 351 350 345 339 337 336 340 341 343 344 345 346 348 343 339 336
336 338 337 340 345 341 328 319 305 302 300 302 310 335 334 316 314 312 309 311 311 312 337 342 343 343 343 343 342 344 342 338 340 340 340 339 339 340 341 342 343 339 336
333 335 336 332 342 338 331 328 324 313 302 298 298 305 311 312 301 300 300 302 304 315 340 335 334 334 334 335 337 341 343 342 340 337 337 337 335 329 330 329 330 330 325
334 324 335 336 338 345 337 332 326 324 325 320 307 302 298 298 299 299 300 310 326 325 331 330 332 333 332 333 330 328 328 328 329 330 331 330 328 328 324 327 326 324 323
334 334 333 333 332 334 345 331 328 325 323 320 319 312 304 298 299 299 301 329 328 327 329 326 322 321 321 321 321 321 322 326 327 330 329 328 325 319 320 319 320 314 317
333 328 327 331 330 331 337 334 332 326 323 322 323 321 319 318 321 322 322 322 320 318 317 317 317 318 319 319 318 318 323 326 326 326 328 327 322 321 320 323 323 323 322
332 332 328 331 330 330 330 332 332 327 326 326 324 320 308 323 321 321 319 317 318 318 318 319 319 320 320 320 321 326 326 327 321 322 320 321 324 326 326 325 324 323 321
330 332 330 328 327 326 325 327 327 326 323 322 320 314 303 324 322 320 318 319 320 320 322 321 320 321 322 323 325 324 326 324 324 323 325 327 327 327 327 326 323 322 318
327 329 327 324 323 319 322 322 321 320 320 320 322 320 317 315 314 314 313 313 314 311 314 318 319 320 325 325 324 323 325 323 325 329 328 327 326 326 325 323 322 321 317
324 326 325 323 323 323 322 320 317 311 316 316 314 311 310 309 309 308 308 306 305 305 305 305 304 301 303 305 308 310 315 309 315 324 328 326 323 317 323 320 320 319 314
318 319 321 321 320 318 317 316 314 313 310 309 307 307 306 306 306 305 304 304 303 302 302 301 298 296 298 297 295 294 290 286 292 298 323 324 324 320 318 317 314 313 311
308 310 309 308 307 308 307 306 304 304 303 302 302 302 302 302 302 302 303 303 303 302 302 301 300 298 295 295 292 289 286 286 290 288 316 324 323 321 320 318 315 314 312

GFSGL_sfc_thetae_054.txt.gz
Theta_e
342 343 343 344 344 344 343 343 343 342 343 347 349 350 351 352 353 353 353 353 352 352 351 348 348 348 346 344 340 338 333 331 329 333 332 338 340 341 341 343 341 340 339
343 343 344 345 345 344 344 344 345 343 343 345 348 349 351 353 353 352 352 353 352 351 352 352 351 350 348 348 344 341 338 334 332 332 334 335 338 341 341 341 340 339 338
343 343 344 344 344 344 345 346 346 346 345 344 346 347 349 352 353 353 353 352 353 353 353 352 352 352 351 350 347 344 341 339 334 332 334 333 336 338 338 338 339 341 340
342 343 343 344 345 346 347 347 345 346 346 347 346 348 349 351 353 354 354 353 352 352 354 354 353 353 352 352 351 349 346 342 338 335 336 335 336 339 337 336 335 335 337
341 343 343 345 346 346 347 350 350 347 346 346 347 347 349 350 352 353 354 353 353 352 353 353 354 353 347 348 352 352 350 345 343 337 338 337 336 336 335 339 334 338 338
341 341 344 346 346 346 346 345 347 350 350 349 347 347 348 349 339 338 349 353 353 352 351 352 354 348 347 339 339 341 349 348 346 344 342 341 342 341 340 337 335 334 332
342 343 344 345 346 347 348 348 346 345 349 349 349 349 348 350 334 334 339 353 353 353 353 353 353 353 348 354 341 336 337 335 340 350 345 344 344 346 344 340 337 336 335
343 343 345 346 346 348 349 349 349 348 346 347 349 350 348 348 332 331 335 351 353 354 354 354 354 354 354 352 353 352 350 349 345 345 349 351 352 352 350 346 343 339 338
343 344 346 347 347 347 348 350 351 351 350 349 349 349 350 350 328 328 332 349 352 353 355 356 355 355 342 332 351 351 351 353 341 332 333 334 332 331 337 348 341 333 331
344 346 348 349 349 349 349 350 352 353 353 353 352 353 343 350 330 324 330 349 349 350 354 355 336 348 333 327 347 351 349 352 354 355 351 339 334 340 330 337 341 338 335
346 349 350 351 350 352 352 353 352 353 354 354 354 356 356 349 349 323 321 348 350 350 351 352 355 329 323 322 324 354 351 353 352 353 355 355 354 353 350 345 342 341 340
343 346 349 350 352 352 352 353 355 353 353 353 353 354 357 358 334 326 320 323 340 351 352 355 355 327 320 319 322 329 326 327 349 351 351 352 352 354 356 355 350 345 344
342 342 344 349 351 353 352 353 352 354 353 352 352 353 354 357 359 325 320 320 322 342 356 348 332 321 318 320 318 320 320 338 342 344 346 349 353 356 356 355 356 348 346
344 345 347 345 345 349 352 353 353 353 352 352 352 352 353 355 356 356 344 334 323 330 334 344 338 333 329 336 336 330 331 336 339 343 345 349 351 350 349 350 349 347 341
345 347 349 348 345 349 347 342 351 353 344 352 352 353 353 352 353 341 342 351 350 342 341 349 347 348 350 351 352 350 348 342 338 341 342 343 344 344 345 350 346 345 339
338 340 339 343 349 344 334 325 305 305 303 302 305 327 351 321 318 312 309 310 311 313 339 347 346 346 346 348 350 350 350 341 343 342 342 342 341 341 341 339 338 336 335
337 339 339 335 342 341 337 333 331 317 300 298 299 304 308 320 310 307 303 303 305 311 348 347 344 346 347 345 345 346 344 343 344 343 341 338 339 337 332 332 333 333 330
337 318 338 337 339 343 342 338 336 333 333 331 304 303 298 299 298 297 299 310 330 326 339 339 339 339 339 340 338 337 337 336 335 336 335 335 336 331 331 331 332 331 330
335 337 337 337 337 333 344 340 336 334 335 330 322 310 302 297 297 298 300 334 335 333 333 332 330 333 333 333 332 331 331 330 328 331 333 334 332 330 330 329 329 315 319
333 327 327 337 337 338 341 337 334 333 330 328 328 325 321 320 327 326 327 327 327 327 327 329 328 328 329 329 329 329 328 327 329 329 329 331 333 329 328 328 330 326 328
325 334 327 335 335 336 337 337 336 329 328 328 327 323 307 328 324 324 323 324 324 324 327 328 329 329 330 330 329 328 329 330 329 331 330 331 331 330 332 331 329 329 326
321 327 334 334 334 333 333 333 333 330 328 326 321 314 307 327 323 321 319 320 322 322 322 327 328 327 328 328 328 329 329 329 330 331 332 333 332 332 332 330 327 324 324
319 325 330 333 331 321 327 328 327 326 325 325 322 318 318 318 317 314 312 311 309 309 309 309 309 310 309 310 311 313 322 324 326 330 331 331 331 331 329 327 325 323 322
319 325 329 330 327 327 326 323 321 314 319 317 315 312 312 312 310 308 307 306 305 304 303 302 301 301 301 301 301 301 303 301 304 317 327 331 330 323 328 326 325 325 321
316 320 323 324 323 321 318 318 315 312 310 309 307 307 308 308 306 305 305 305 304 304 303 303 301 300 301 300 299 299 292 286 296 295 310 329 334 330 328 327 324 326 320
306 306 305 305 304 304 303 302 302 302 301 300 300 301 302 302 302 302 303 303 303 302 302 301 301 300 299 299 295 290 285 287 294 288 312 327 331 332 331 329 327 325 325

GFSGL_sfc_thetae_057.txt.gz
Theta_e
351 352 353 353 353 354 354 355 357 356 356 356 358 358 360 360 362 363 362 362 361 362 361 360 359 361 356 355 352 350 346 344 338 341 345 348 350 352 351 352 351 351 348
352 352 352 353 354 352 354 354 357 358 356 356 358 359 359 359 360 360 359 358 359 360 361 362 359 358 361 361 356 356 352 352 344 347 348 346 351 355 354 353 350 347 348
351 349 350 351 352 354 355 355 357 357 357 354 356 357 357 358 359 360 360 360 360 361 362 362 362 361 360 358 359 356 355 354 352 346 346 348 347 347 349 352 351 353 349
348 348 351 352 353 353 356 357 355 358 356 356 356 357 357 357 358 358 359 360 360 361 362 362 362 362 361 362 360 360 359 356 356 351 349 348 350 355 349 344 344 347 346
350 350 351 354 355 356 357 357 357 357 358 359 357 356 356 355 354 358 358 359 360 360 361 362 363 360 350 354 359 363 364 356 353 349 347 347 346 346 346 347 345 346 349
351 351 354 355 356 356 357 357 358 357 357 358 356 356 356 353 339 338 352 357 360 360 360 361 362 353 352 340 339 341 354 362 357 352 350 349 357 354 353 351 349 346 344
351 352 354 356 355 356 357 358 358 358 356 356 355 356 357 360 334 333 338 356 358 361 361 360 359 358 354 361 345 336 337 335 340 359 358 359 359 362 362 358 356 353 350
350 352 354 355 355 356 356 356 357 358 359 359 358 359 358 359 333 330 334 354 359 361 362 363 364 363 363 360 360 360 361 362 358 352 357 359 364 366 367 363 363 360 357
350 351 353 355 355 356 356 357 357 356 356 356 357 358 358 360 330 328 334 353 356 360 362 363 363 363 347 333 358 359 362 363 347 335 337 335 333 331 339 353 347 345 341
351 353 355 355 355 356 357 358 360 359 356 355 355 358 349 360 333 324 331 352 355 353 361 364 338 352 334 327 356 358 358 358 361 363 364 347 337 347 331 344 348 343 343
353 353 356 358 357 359 360 360 359 358 359 359 358 360 359 355 356 323 320 353 353 354 354 355 358 329 324 323 324 360 358 358 356 361 361 361 361 362 361 362 351 345 342
357 355 357 359 355 355 360 359 360 360 359 360 360 359 360 362 336 327 320 323 343 356 357 359 361 327 320 318 324 330 326 329 355 356 355 354 355 357 361 361 360 352 348
357 358 358 359 359 362 360 359 356 359 356 356 356 356 357 361 363 325 319 318 321 347 359 350 332 321 317 323 319 321 320 340 343 345 347 351 355 359 358 356 357 358 359
355 357 357 357 356 360 358 357 356 356 356 355 356 356 358 360 362 364 355 343 323 332 335 349 345 334 330 340 344 334 342 347 345 349 351 350 353 352 352 353 350 351 349
353 352 353 353 354 357 358 355 357 361 350 357 358 359 358 358 360 346 349 362 360 348 346 357 354 354 355 356 355 353 352 346 340 342 343 345 348 348 347 349 348 344 339
349 352 347 356 351 353 353 342 306 308 305 305 307 329 358 327 317 313 310 311 313 313 345 354 353 355 353 353 353 353 353 345 351 353 353 349 346 345 345 343 342 338 335
346 346 341 340 355 350 349 350 348 325 302 300 299 303 306 312 312 306 304 303 306 313 350 353 353 353 352 351 352 352 352 355 354 350 351 348 346 342 339 338 338 336 335
343 321 342 344 348 352 350 348 349 351 350 348 307 305 301 301 303 303 300 311 334 323 348 353 351 351 347 347 347 346 349 349 347 345 344 341 340 339 336 336 336 335 334
335 343 346 347 349 345 353 352 352 353 353 352 337 316 305 296 296 297 300 345 351 346 342 338 338 339 340 340 343 345 344 342 339 337 337 337 337 335 336 336 336 319 323
328 324 330 344 347 350 353 350 346 346 347 348 347 346 326 322 338 336 339 338 338 336 335 335 335 335 336 340 339 339 337 335 337 335 334 334 333 336 336 335 334 332 331
323 328 325 341 343 343 346 350 348 344 340 341 345 335 309 340 340 339 337 336 332 331 332 333 334 336 338 338 336 336 336 336 336 334 333 333 337 334 335 336 335 333 333
321 324 330 334 340 341 342 345 346 343 340 338 328 323 305 332 335 333 329 327 326 324 327 335 332 329 327 329 332 333 332 333 334 333 333 335 337 335 335 335 335 332 332
319 321 328 332 336 331 339 342 342 341 338 336 329 327 329 327 327 325 321 319 318 317 316 318 320 316 311 310 309 313 320 325 327 330 333 334 334 334 333 332 334 332 331
318 320 328 332 334 336 338 339 338 322 334 332 329 328 327 324 318 318 318 316 313 310 309 307 307 306 307 305 307 308 308 312 315 325 332 334 333 328 332 331 332 331 330
312 311 310 313 322 327 326 326 324 321 318 316 315 315 314 313 312 311 311 309 308 307 307 306 306 307 307 309 310 308 295 287 297 296 317 328 335 335 332 331 331 329 329
303 302 302 301 300 300 301 301 301 303 303 304 304 304 305 305 306 307 308 308 306 305 307 309 308 310 309 306 301 290 285 286 300 287 314 331 334 334 334 334 333 330 328

GFSGL_sfc_thetae_060.txt.gz
Theta_e
356 359 359 357 358 359 358 360 360 361 361 361 360 359 358 361 364 365 365 362 364 365 364 362 362 365 357 353 352 350 348 346 340 342 345 352 359 357 356 357 355 355 352
357 361 359 359 360 356 358 359 362 361 362 362 362 360 358 359 362 364 362 359 361 361 363 363 363 359 363 363 356 360 355 357 347 354 352 348 357 362 360 358 355 351 351
355 354 355 356 356 358 360 359 363 361 362 360 361 361 359 358 360 363 363 362 360 361 362 363 363 364 364 360 360 356 356 357 358 353 351 352 352 354 357 362 361 360 354
352 352 356 357 357 357 362 363 361 365 362 362 362 361 360 359 357 359 360 361 361 360 363 364 364 365 365 366 364 365 364 360 358 352 349 348 349 356 352 348 349 351 349
357 352 356 361 362 362 363 364 364 364 362 363 362 362 361 359 354 358 358 358 360 361 362 364 365 362 352 356 362 370 372 362 355 351 348 347 347 347 350 350 350 352 356
359 356 360 364 364 364 365 365 367 366 365 364 362 361 360 357 340 336 350 355 359 360 360 363 365 356 354 342 340 341 351 367 367 356 352 350 364 361 357 355 353 351 351
360 360 362 364 364 365 366 366 366 366 365 364 362 362 363 364 335 332 338 354 354 360 365 362 359 357 356 363 345 338 340 337 339 359 362 363 364 368 370 369 364 362 358
361 361 363 364 364 365 366 366 367 365 365 364 362 365 365 364 333 330 334 356 359 362 364 364 367 366 364 360 361 361 362 365 363 357 359 360 363 366 368 366 369 365 363
360 361 363 365 363 364 364 365 366 363 364 364 362 364 366 365 330 329 336 356 356 363 362 365 366 367 349 335 360 361 363 363 346 334 337 337 336 334 342 357 352 352 351
358 361 364 365 365 364 365 366 366 363 361 360 361 365 353 366 334 325 335 356 357 354 364 368 340 352 335 328 360 360 361 358 359 363 365 353 337 347 332 352 358 353 352
356 357 362 364 366 366 368 367 365 363 363 364 362 365 367 361 361 323 321 358 354 353 353 353 356 330 327 325 324 362 359 356 356 364 365 367 367 368 366 368 370 366 353
360 358 363 365 359 359 368 366 365 365 365 366 364 361 361 364 337 325 320 325 343 357 356 355 360 324 318 319 326 331 325 331 358 357 359 360 361 362 364 367 371 364 356
361 363 362 362 361 365 363 363 360 364 359 359 358 358 358 362 365 327 319 319 323 349 360 350 328 321 315 323 318 322 321 354 358 357 357 358 358 361 365 360 359 361 361
360 362 361 360 359 361 361 361 359 358 357 357 357 357 359 361 363 366 358 342 324 335 340 352 348 337 329 340 347 344 356 360 359 357 355 357 360 357 353 357 353 352 352
358 359 360 360 360 361 362 358 360 365 351 359 359 360 359 359 361 347 350 366 364 350 351 360 360 359 358 358 359 363 364 363 356 358 353 349 349 350 354 354 349 350 344
355 355 355 356 358 359 359 357 308 312 308 309 310 329 361 331 323 317 317 316 312 315 353 360 359 356 355 357 359 359 361 353 355 351 349 352 353 353 351 351 348 343 341
351 356 357 355 356 357 358 357 353 330 305 303 305 306 308 312 310 308 303 304 307 319 358 360 360 362 362 360 359 359 357 357 358 355 357 354 352 349 346 345 342 342 340
341 322 351 350 349 348 351 350 353 354 353 354 310 312 303 302 303 304 303 312 343 330 354 357 359 360 357 355 357 356 355 354 351 352 353 351 348 345 343 341 341 340 340
344 344 345 351 350 344 347 348 352 352 355 359 363 319 307 296 298 299 299 357 360 358 354 354 353 349 349 351 351 350 350 351 351 351 347 346 344 342 341 341 340 324 325
336 326 330 343 345 351 353 351 351 352 355 357 356 356 340 327 339 339 335 343 350 359 359 353 348 345 350 345 345 346 347 344 344 342 341 340 341 340 339 340 339 337 332
327 331 325 343 346 347 349 350 351 349 349 357 356 343 313 355 354 347 345 349 351 351 350 351 349 347 345 346 346 345 343 341 341 341 340 339 340 339 339 339 336 335 334
325 327 331 337 344 343 343 342 344 348 349 352 352 337 307 346 351 348 346 342 336 336 334 339 339 337 334 337 340 340 339 339 339 339 338 337 338 336 336 335 335 334 333
324 325 328 331 334 332 342 340 340 342 343 346 349 342 340 343 340 337 334 334 331 329 328 329 330 332 330 331 331 332 333 334 336 337 336 335 335 335 334 333 333 333 332
321 323 323 329 333 334 337 337 341 328 337 342 344 343 341 339 335 331 328 326 320 320 318 318 320 320 321 322 322 320 315 312 317 331 335 334 334 331 334 334 335 333 333
309 309 309 307 310 315 321 321 322 322 319 318 323 327 327 327 327 326 323 321 318 315 312 312 311 312 312 312 312 310 297 287 299 297 319 332 335 335 333 335 334 333 332
300 300 300 299 299 298 298 298 298 299 299 299 301 304 307 309 312 313 311 310 311 310 309 308 308 308 307 303 297 291 285 286 298 288 310 327 332 334 337 335 334 332 332

GFSGL_sfc_thetae_063.txt.gz
Theta_e
362 364 362 362 360 363 365 367 367 367 370 368 366 364 362 362 366 371 370 366 367 367 367 363 367 371 357 352 351 350 347 346 340 343 345 355 369 367 362 363 358 361 355
360 363 362 364 361 360 363 364 370 369 369 370 367 367 363 361 366 369 363 363 361 362 364 368 362 357 369 369 358 369 357 361 347 355 354 352 362 366 366 367 357 355 356
359 358 361 362 362 360 365 364 368 369 370 363 367 368 365 363 365 369 369 366 365 365 365 366 365 367 369 361 365 357 353 357 357 352 353 356 357 356 360 366 366 364 360
353 354 358 360 362 361 364 367 367 369 369 369 370 369 367 364 364 363 365 366 367 363 366 366 366 367 369 371 367 371 366 362 357 354 353 352 354 362 358 352 352 356 356
356 354 357 363 363 364 363 367 367 369 369 371 370 369 369 363 357 363 364 365 367 364 366 365 366 363 352 359 362 368 369 363 356 353 352 352 351 351 354 355 353 357 361
358 355 359 364 364 364 364 366 369 369 370 371 369 370 368 358 342 338 354 360 364 365 365 368 369 357 354 343 341 342 352 366 368 356 353 351 359 358 358 356 358 355 354
361 360 361 363 363 364 365 366 367 368 371 371 370 370 369 369 336 333 338 356 361 363 366 367 364 356 358 368 347 340 342 338 341 360 359 360 361 365 368 367 361 361 359
360 365 363 365 365 367 367 366 368 370 369 369 370 371 371 369 336 329 334 360 359 362 366 367 368 366 367 367 369 366 365 367 363 357 360 362 366 369 369 367 367 365 365
364 362 365 365 366 367 366 368 369 370 369 369 370 371 371 370 332 329 335 359 358 363 364 365 365 368 351 337 363 361 362 364 348 332 334 336 336 335 343 354 351 354 355
364 364 367 368 369 368 369 369 371 371 369 364 367 371 359 372 336 326 335 357 358 356 365 367 340 353 337 329 363 363 361 363 365 364 365 356 338 348 332 351 360 357 357
364 366 369 370 370 371 372 372 372 370 366 370 369 370 371 366 367 324 322 360 355 354 354 354 357 331 327 325 326 362 360 362 357 362 363 365 367 371 371 368 371 368 362
366 365 368 371 366 367 372 372 372 371 369 371 369 368 365 373 341 325 320 326 346 358 356 350 353 324 320 321 326 330 326 330 355 357 358 360 361 361 363 372 375 374 370
367 366 368 369 369 370 370 370 365 368 361 361 359 357 357 359 365 327 319 320 325 350 358 343 327 320 315 321 318 322 322 354 357 358 359 361 362 363 372 369 367 365 362
367 368 368 367 366 368 364 365 361 359 359 358 358 357 355 355 355 361 352 337 325 337 342 352 347 337 325 340 349 338 355 361 360 361 362 361 363 364 362 361 354 354 354
365 363 365 361 361 364 364 362 360 363 351 356 353 353 352 355 356 346 349 362 359 348 351 359 357 357 358 360 362 364 364 365 362 362 360 361 359 355 353 358 355 355 351
356 358 357 358 359 359 360 356 311 319 309 311 309 332 355 320 316 310 310 314 319 318 351 357 358 359 359 360 360 360 362 358 365 363 361 356 354 355 357 355 354 353 346
357 358 358 352 358 360 359 358 355 329 309 307 310 309 310 307 310 308 310 308 310 322 361 360 359 359 362 361 359 359 359 362 367 362 359 357 358 356 351 350 350 346 343
344 326 356 358 358 360 359 359 358 356 354 355 318 316 305 304 307 305 306 313 355 345 360 359 359 361 361 364 364 362 362 363 362 360 359 357 358 354 351 348 346 344 342
335 338 341 353 354 353 356 353 354 357 355 354 347 321 309 298 302 303 302 356 357 359 360 359 361 361 362 364 361 360 363 361 357 355 355 356 356 353 347 344 342 322 330
333 329 332 348 350 349 348 346 346 348 351 354 351 352 332 332 344 350 344 351 356 362 366 364 362 362 360 357 354 357 355 351 350 350 351 349 346 343 341 341 341 340 341
331 337 334 335 345 341 339 345 345 344 347 350 350 333 319 352 355 356 350 352 355 353 352 357 350 350 352 348 351 350 349 349 351 347 344 343 342 340 341 341 340 341 339
325 326 328 332 342 349 345 345 341 343 347 348 351 331 314 351 348 356 354 351 349 348 350 353 351 348 346 345 344 346 344 342 343 343 342 341 340 339 339 338 338 337 336
322 323 325 330 335 330 341 341 340 343 343 343 349 349 345 341 340 340 342 344 342 341 342 344 346 340 339 339 338 337 335 337 339 338 337 336 336 336 337 335 335 334 334
314 312 314 317 319 326 327 331 340 327 333 335 338 342 343 340 336 333 329 329 329 330 330 330 329 328 328 329 328 328 314 312 313 321 328 333 334 331 334 335 334 335 334
304 304 303 303 308 307 308 311 314 314 315 317 319 320 321 326 329 327 326 326 324 323 321 319 319 317 313 310 309 307 294 286 299 295 312 326 331 334 335 334 335 334 334
298 298 298 298 298 298 297 297 296 297 298 300 299 299 302 306 309 312 312 310 310 308 305 306 306 306 304 301 297 289 285 286 295 286 303 319 326 331 330 330 333 334 333

GFSGL_sfc_thetae_066.txt.gz
Theta_e
360 358 358 356 355 354 357 355 360 361 373 368 371 367 365 364 369 368 364 362 361 361 364 364 362 362 361 360 358 355 352 352 344 346 352 354 360 360 356 358 360 357 355
360 359 358 360 357 355 351 359 363 367 365 374 367 370 365 364 365 365 363 358 361 360 362 363 363 361 364 363 361 360 361 363 356 349 354 353 353 356 360 362 360 356 354
360 359 359 358 358 357 353 356 362 360 364 363 369 364 366 363 362 363 364 363 362 363 363 364 363 365 364 362 362 357 355 357 356 352 349 356 357 360 357 361 362 359 357
358 358 358 358 358 357 358 354 359 364 362 363 363 365 365 364 362 361 365 364 363 362 365 363 365 364 364 365 363 362 362 361 359 356 352 351 353 355 357 354 353 358 356
354 355 357 359 359 360 358 359 358 359 362 364 363 364 365 364 361 360 360 362 363 363 363 363 364 362 354 357 362 364 363 360 358 356 353 352 352 353 351 353 351 355 358
353 354 357 358 359 360 359 359 360 360 362 363 364 363 363 363 345 340 354 357 363 361 360 361 365 353 351 342 340 342 351 359 357 357 355 352 353 355 357 355 353 350 348
354 355 356 358 358 359 360 358 360 359 361 362 363 364 364 364 338 335 340 356 357 358 362 361 361 359 353 362 345 339 340 338 341 355 353 352 351 353 355 356 356 355 354
354 357 357 358 357 359 359 359 358 360 360 362 363 364 365 365 339 330 335 353 356 359 360 359 361 360 360 362 362 360 359 359 356 351 351 354 357 360 361 360 359 359 358
358 356 358 356 358 359 358 359 359 359 361 361 362 364 364 365 335 331 333 351 352 355 356 358 361 362 347 338 354 354 355 358 347 336 341 340 340 338 345 357 352 346 346
355 360 361 358 359 359 359 359 361 361 360 362 362 364 355 364 338 328 333 355 352 353 357 359 339 348 335 328 353 358 355 356 358 359 359 353 338 344 330 340 348 348 352
360 359 362 365 360 363 363 363 362 362 362 363 362 364 366 362 362 326 322 356 354 354 353 354 358 332 325 323 326 355 353 354 353 359 360 358 360 364 365 365 362 360 357
364 361 365 362 364 363 364 365 364 364 362 362 362 363 364 367 341 327 320 327 343 356 354 356 355 328 322 323 326 330 327 328 353 353 352 353 356 359 361 368 371 368 366
364 362 363 367 365 365 365 364 363 364 362 361 360 360 362 364 366 329 320 320 325 351 358 346 325 320 314 316 318 322 321 344 349 351 353 356 360 363 370 368 369 364 360
361 364 363 366 364 364 364 365 364 362 362 361 359 360 360 361 362 365 344 333 325 334 340 351 342 339 329 339 345 328 343 355 357 357 358 362 364 364 363 365 359 356 353
365 364 363 363 361 363 362 364 363 365 360 361 360 359 359 357 357 344 349 355 351 343 348 356 356 354 352 355 360 363 358 358 358 359 359 360 361 362 357 358 354 355 351
359 361 360 360 361 361 360 353 311 317 311 317 322 342 340 314 307 306 305 322 324 318 347 354 354 355 355 355 356 359 362 357 363 365 365 364 359 354 354 356 356 353 348
346 348 359 352 357 359 359 359 352 329 307 305 305 311 320 314 306 306 310 310 311 321 354 353 356 359 359 360 362 364 362 364 365 360 362 356 354 354 353 353 352 351 350
337 323 345 348 355 359 359 358 358 353 349 345 312 317 308 309 307 305 310 319 345 338 354 358 359 361 361 360 364 362 362 363 364 362 360 360 358 354 351 352 352 351 346
328 333 334 344 344 345 361 358 359 358 356 358 336 317 308 302 306 304 309 353 357 351 352 353 355 360 367 365 363 364 362 363 363 362 360 354 353 354 352 349 344 327 330
324 327 328 337 345 345 346 348 347 349 344 349 349 349 343 332 343 343 341 343 351 352 358 358 364 362 363 365 359 363 360 357 355 354 352 349 350 345 340 341 342 340 341
322 328 327 337 339 342 344 342 338 343 344 343 346 344 317 344 351 352 347 347 349 352 355 359 360 360 353 356 358 353 354 350 353 352 346 345 346 343 344 342 339 339 339
322 325 326 326 327 331 332 337 342 342 341 342 350 338 313 341 355 355 352 349 345 342 343 348 348 347 345 347 347 347 346 344 346 345 345 344 343 342 340 339 339 338 336
314 312 317 318 317 316 321 323 323 326 335 335 338 343 344 338 336 333 332 333 332 331 332 327 326 330 328 332 330 320 317 315 317 323 332 337 336 336 337 336 335 334 332
306 305 305 308 309 310 311 312 312 309 312 321 326 328 330 327 326 325 325 323 321 323 320 318 313 308 306 307 306 307 300 299 306 316 319 323 331 330 333 333 334 334 331
300 300 298 298 299 300 301 301 302 303 305 307 308 314 316 321 319 316 317 313 311 309 306 306 309 306 301 298 295 294 289 286 296 292 311 319 322 329 331 332 334 334 334
297 296 296 296 295 295 295 295 295 295 296 298 300 302 301 301 301 303 304 303 301 298 296 295 295 296 295 294 292 288 285 286 291 286 300 313 318 322 320 322 326 328 330

GFSGL_sfc_thetae_069.txt.gz
Theta_e
347 350 345 343 350 349 346 344 349 349 353 357 357 356 356 357 356 354 350 353 350 350 350 351 351 350 346 348 352 348 342 338 332 334 340 344 345 346 349 348 348 347 346
350 350 350 345 346 349 346 344 349 348 350 355 358 357 356 353 354 355 350 351 353 350 351 351 352 354 350 349 351 347 348 349 342 337 341 341 341 344 345 347 352 357 351
351 349 350 350 344 346 346 346 345 354 349 351 355 355 353 354 353 354 355 352 351 351 351 352 352 352 349 350 348 347 346 346 346 343 340 345 348 349 349 348 351 353 356
352 352 350 350 350 345 345 343 351 352 354 354 355 354 355 353 353 353 354 355 353 354 355 355 355 354 353 353 354 352 351 349 349 347 346 345 345 349 347 347 344 346 347
352 353 352 352 352 353 349 346 343 353 351 352 353 355 356 356 356 352 353 355 355 353 353 354 355 354 352 352 356 353 353 350 350 348 347 346 344 342 343 346 345 347 348
351 353 354 353 353 352 352 351 344 346 354 352 351 354 356 358 345 342 350 351 355 355 354 354 356 351 350 343 343 344 353 353 350 349 347 345 344 345 346 346 345 343 342
348 352 352 353 353 352 353 351 350 345 347 351 355 355 354 357 339 338 342 351 349 354 354 354 354 357 349 353 343 337 338 337 341 349 345 346 346 348 347 345 346 348 348
346 348 351 352 352 353 353 351 351 352 350 350 352 355 356 357 338 334 338 349 350 350 353 355 354 353 351 350 352 352 350 348 346 344 344 349 350 352 350 352 351 351 354
345 348 350 351 352 352 351 352 352 352 353 351 354 355 355 357 335 333 332 340 347 349 351 352 352 353 344 337 348 349 350 353 348 335 337 337 337 336 342 350 350 347 346
343 350 351 351 352 351 353 352 354 352 351 354 353 356 350 357 335 330 332 349 343 345 347 348 337 348 336 332 347 348 344 345 345 347 347 339 333 340 333 342 348 342 341
350 352 353 351 352 353 353 353 353 353 352 351 353 354 356 355 355 328 324 353 351 347 346 347 350 330 323 321 325 347 348 351 347 349 351 353 352 352 355 348 343 346 348
342 352 352 354 352 354 353 354 353 353 352 351 351 353 356 358 338 330 323 325 343 351 348 349 348 329 322 322 324 328 326 327 343 346 345 345 345 348 353 355 357 359 359
335 347 350 355 353 353 354 353 353 353 352 352 352 352 354 357 359 329 322 321 324 348 354 345 334 325 318 319 320 323 322 333 341 341 343 345 348 353 355 357 357 356 355
332 344 355 355 355 353 357 356 355 354 354 353 353 353 354 355 357 360 341 331 325 330 338 342 332 335 335 338 336 322 328 337 340 342 344 349 353 353 356 357 351 349 347
327 340 355 355 352 356 357 357 357 358 354 355 355 355 353 354 355 346 348 351 348 339 342 349 346 346 348 346 346 348 335 341 344 349 351 351 352 352 350 350 348 346 345
324 338 350 355 356 357 355 343 310 314 316 318 326 345 343 322 326 323 316 319 320 318 339 347 346 348 347 347 346 347 353 347 349 352 353 353 351 352 350 350 347 348 345
321 327 336 345 353 355 355 354 343 324 309 304 306 320 319 322 305 305 306 308 307 322 344 347 348 349 349 350 350 349 349 355 357 356 355 354 351 350 348 346 349 349 344
320 319 330 341 345 348 354 354 354 341 340 338 312 311 306 307 307 308 306 313 327 333 347 346 347 347 351 353 353 354 353 353 354 353 352 352 349 348 347 346 345 344 344
317 321 326 332 343 338 351 354 353 347 345 340 324 317 307 301 301 302 307 345 344 345 347 347 348 348 350 351 351 352 351 349 351 352 353 351 349 346 344 345 346 330 329
317 321 324 332 339 340 342 342 349 349 348 336 335 335 326 323 332 334 332 336 341 346 349 349 347 345 338 333 338 349 348 345 344 345 346 347 346 345 340 336 334 331 330
316 320 319 322 327 328 329 337 338 339 341 340 340 334 317 335 338 336 332 337 339 342 340 347 348 343 345 348 347 347 346 346 345 344 342 341 341 336 333 332 332 331 330
311 313 316 315 318 322 321 322 330 335 336 336 339 322 313 337 337 343 339 333 330 325 323 330 319 322 320 318 319 323 319 318 318 322 330 332 332 331 331 330 329 328 327
305 308 307 309 310 312 315 315 314 317 320 330 336 334 328 324 325 323 321 321 319 314 311 310 308 305 306 307 305 304 305 305 308 315 319 322 328 330 330 328 327 326 325
301 300 302 300 302 302 304 305 307 306 307 307 311 315 316 318 317 316 313 311 306 307 307 303 300 299 300 299 298 303 299 294 301 309 309 314 317 316 324 326 326 329 330
296 297 296 296 296 296 296 296 297 299 300 303 301 300 301 301 304 305 302 300 299 296 295 296 296 294 292 292 290 290 288 287 294 290 301 308 313 316 320 321 322 327 329
295 295 294 294 294 294 293 293 292 293 294 294 295 296 297 295 294 294 296 297 294 293 292 292 291 291 291 290 289 287 285 287 291 290 302 307 305 311 314 316 318 319 320

GFSGL_sfc_thetae_072.txt.gz
Theta_e
345 343 341 341 344 344 342 344 345 345 347 349 354 352 352 352 350 349 347 346 347 346 346 345 345 347 344 343 346 346 341 335 330 332 335 341 343 342 342 343 346 344 345
346 345 342 340 342 345 345 342 344 345 348 352 354 353 353 354 350 349 347 348 348 346 346 346 347 352 347 344 346 345 343 343 338 336 336 338 339 343 346 346 350 353 350
345 345 345 341 340 342 346 345 340 345 345 352 353 353 353 353 353 352 350 348 348 349 348 347 347 348 347 344 345 345 344 345 342 340 342 342 346 347 346 345 345 347 352
345 345 345 346 342 339 344 345 344 341 345 346 352 353 353 352 352 352 353 350 348 349 349 348 349 349 348 348 348 347 347 347 345 342 341 342 343 346 344 343 343 343 345
346 346 345 348 348 344 340 344 343 345 345 349 348 352 353 352 353 351 351 350 349 349 350 352 352 352 348 347 351 350 349 346 345 344 343 343 344 343 343 344 342 345 344
346 346 348 347 349 349 344 341 342 341 347 347 351 351 351 354 342 340 347 350 350 349 349 349 351 349 347 342 341 343 349 349 347 345 346 346 347 342 342 342 340 338 338
346 348 349 349 348 349 350 346 343 341 340 347 346 350 351 353 337 336 341 350 350 351 351 351 351 355 348 351 341 337 336 337 342 351 347 346 344 346 343 341 342 341 342
343 347 351 351 350 350 350 350 348 346 341 342 350 347 348 351 335 333 338 350 349 347 351 353 352 352 349 348 348 348 347 347 341 341 343 346 347 349 347 349 347 345 348
337 338 344 353 352 351 349 349 350 349 347 343 344 351 351 351 331 331 334 348 349 348 347 349 352 352 341 333 347 346 347 348 343 332 333 333 332 332 338 343 345 344 343
338 337 343 346 351 351 351 351 351 351 350 349 347 347 342 351 333 328 331 350 346 347 348 347 335 346 333 328 345 347 345 347 345 342 343 336 331 338 332 340 346 342 342
333 334 337 342 350 352 352 352 352 351 350 350 350 350 351 350 350 326 324 351 351 347 344 345 347 329 324 321 325 347 345 346 343 344 346 348 350 350 351 347 342 344 341
330 331 334 339 351 351 352 352 352 350 350 348 349 350 352 353 336 329 323 326 343 352 349 348 346 325 319 319 320 326 325 326 339 341 342 345 346 346 348 348 350 346 350
326 329 332 337 348 351 350 349 350 350 349 348 347 347 349 353 354 327 322 322 325 347 355 345 330 322 317 320 319 322 320 329 336 337 340 343 346 347 347 349 353 357 357
323 326 330 336 345 350 352 350 350 349 348 348 348 347 348 350 353 355 343 333 325 330 340 345 338 331 328 333 329 325 326 332 337 338 340 343 342 345 347 351 355 353 349
320 323 327 337 344 352 350 350 351 352 348 350 350 350 349 349 351 342 345 351 348 339 340 347 338 336 339 339 340 342 336 331 333 337 338 340 343 346 347 350 349 347 344
318 320 324 328 334 352 351 338 311 315 317 318 320 340 351 333 324 320 316 316 318 313 333 346 345 346 345 346 347 345 347 340 341 341 343 345 347 348 350 350 349 343 342
314 318 321 324 332 347 352 346 344 325 310 308 310 316 318 329 310 309 311 310 305 314 348 345 346 346 347 347 348 347 347 348 349 346 347 349 350 351 345 346 343 343 342
313 314 320 323 328 338 347 353 349 344 344 339 310 317 308 306 311 307 303 312 320 322 346 346 346 347 347 347 348 348 348 347 350 349 349 350 348 346 344 344 343 343 342
313 317 320 323 329 334 340 348 347 344 344 342 325 314 306 303 301 300 304 336 337 336 343 347 347 349 348 348 348 349 349 346 344 346 345 343 345 344 344 343 342 325 331
313 315 317 318 323 328 333 340 346 347 344 339 336 339 323 322 334 335 336 337 340 340 344 346 346 343 342 336 332 336 341 340 342 344 344 344 339 334 331 341 336 332 330
310 311 312 313 314 320 322 331 337 345 345 338 338 332 313 342 344 342 334 333 334 331 334 340 339 335 333 334 336 334 333 339 340 343 340 332 333 333 338 332 330 330 329
305 307 307 307 307 306 312 315 321 331 338 339 331 327 312 337 340 335 325 319 316 314 313 310 307 306 309 311 315 322 323 319 320 324 328 332 332 332 332 329 329 326 326
301 303 302 301 303 302 301 306 308 309 319 330 329 326 324 322 318 315 312 309 307 304 304 304 304 301 301 303 302 301 305 307 310 316 320 323 327 329 329 328 328 325 323
298 298 298 299 299 299 298 296 298 303 305 305 306 309 308 306 304 302 299 298 298 298 298 297 297 297 298 297 297 296 296 298 304 308 314 317 318 317 320 322 324 323 324
295 295 295 295 295 295 295 295 294 296 297 300 300 298 298 299 298 296 296 295 294 293 293 293 293 294 294 294 293 294 293 293 299 296 309 313 316 315 314 313 314 317 321
294 294 293 293 293 293 292 292 292 293 293 294 294 294 295 294 295 294 294 294 293 293 292 292 292 292 291 291 290 290 287 289 296 292 302 301 301 300 307 311 313 313 314

GFSGL_sfc_thetae_075.txt.gz
Theta_e
341 342 341 341 342 342 340 341 343 346 345 346 350 350 346 348 349 347 345 345 345 344 343 343 342 342 343 341 341 342 338 333 329 333 332 339 340 340 343 344 346 345 345
342 341 340 340 341 342 342 341 341 342 344 347 347 350 349 349 349 347 346 348 344 344 345 343 343 347 345 343 342 341 340 339 336 334 335 338 340 343 346 345 350 351 348
342 341 340 339 339 339 342 343 340 341 343 346 349 350 349 350 349 348 347 346 345 346 346 345 344 344 343 343 342 342 342 343 340 337 340 341 343 344 344 346 345 346 349
342 342 341 340 339 339 340 342 343 340 342 344 349 350 351 351 351 351 349 347 345 346 347 347 347 346 345 344 344 343 344 343 343 341 339 338 340 344 343 342 345 343 346
340 342 342 343 341 339 339 340 341 343 342 343 345 349 350 351 352 351 351 350 349 347 347 348 348 348 345 344 347 345 345 344 342 341 339 340 341 341 341 341 340 342 343
342 341 343 344 344 341 338 338 340 341 342 340 342 345 348 352 341 339 347 349 348 348 347 347 348 347 345 340 339 340 346 345 342 341 341 342 343 342 341 340 337 336 340
343 343 344 343 343 345 343 338 337 339 340 340 342 345 345 348 335 335 339 349 348 348 347 347 347 351 345 349 341 336 336 336 339 347 345 345 344 345 341 337 338 338 338
340 343 345 346 343 345 347 344 340 339 339 338 339 342 346 347 334 331 336 348 348 348 348 349 348 348 347 348 348 347 347 346 342 341 344 349 350 350 343 344 344 342 343
338 338 342 348 347 346 346 346 346 343 341 340 339 339 341 344 331 330 332 345 347 348 347 347 349 350 340 332 347 345 345 346 340 331 332 332 331 330 333 340 341 338 340
332 338 341 344 349 350 349 347 349 348 346 346 343 341 338 345 328 326 331 349 347 348 349 348 333 343 331 326 342 345 343 346 346 344 342 336 331 337 330 338 343 340 340
328 331 334 337 341 343 348 351 350 349 349 348 346 345 343 344 347 323 323 347 347 347 347 347 348 327 323 321 323 347 344 345 342 341 340 340 343 345 347 343 341 343 340
324 328 330 333 338 344 346 349 351 349 348 347 347 347 348 346 330 325 321 326 340 349 347 348 346 324 320 318 319 324 323 325 340 339 337 340 342 343 347 348 348 345 347
320 321 325 329 333 338 346 348 349 349 348 347 346 346 347 349 349 324 320 320 324 344 351 344 330 321 316 318 318 321 320 333 337 334 336 338 341 345 344 344 345 347 348
318 319 321 325 328 336 344 349 348 348 347 347 347 346 346 348 350 351 339 330 323 329 337 344 338 331 327 331 329 325 328 333 334 336 338 341 340 339 340 342 344 348 349
314 315 319 324 325 329 336 349 349 350 347 348 347 348 346 345 347 340 342 347 346 338 338 345 347 338 343 342 339 339 337 330 331 334 334 334 335 337 339 345 349 348 349
309 312 316 318 322 326 333 345 313 317 316 314 315 335 348 330 319 313 312 312 315 312 334 346 346 347 345 346 345 343 341 335 336 336 335 337 338 339 342 346 347 348 345
308 309 314 316 321 324 328 335 347 330 307 305 307 311 314 329 310 308 308 308 306 311 346 346 346 348 347 346 346 346 345 345 346 344 342 341 343 344 342 347 344 342 339
308 309 314 319 320 323 327 333 342 345 342 344 315 311 309 308 307 308 304 308 322 316 346 348 348 347 348 347 347 347 347 347 345 346 344 345 346 347 345 343 341 341 339
306 311 315 315 318 319 325 333 339 348 347 347 335 316 310 303 302 300 301 342 344 339 337 345 347 348 347 348 348 348 348 346 345 347 349 348 347 344 339 337 334 320 323
306 310 312 312 314 315 320 324 330 340 344 345 341 343 322 319 327 329 322 332 340 343 341 341 346 348 347 345 345 346 344 340 344 345 344 337 339 337 333 329 330 328 330
303 306 309 309 310 308 311 315 318 324 336 344 342 338 316 335 340 343 338 337 335 333 334 338 339 338 336 333 331 333 334 334 335 338 340 338 333 328 329 334 335 333 331
302 304 305 304 305 304 303 306 310 311 314 334 333 322 307 336 335 324 317 313 310 309 309 309 310 309 308 310 316 326 330 330 329 329 333 332 330 332 331 330 329 328 327
300 300 301 301 301 301 301 300 300 305 304 308 317 318 317 311 309 306 304 302 302 301 301 301 302 302 302 304 305 307 312 311 308 313 320 324 327 328 328 328 328 328 326
297 296 296 296 297 297 298 298 297 296 301 300 300 302 302 301 300 299 298 297 298 298 302 299 296 295 299 299 298 298 294 296 303 310 313 319 320 316 323 324 324 324 326
294 294 294 294 294 293 294 294 296 295 295 295 297 298 298 297 296 295 295 295 295 296 295 295 293 293 293 293 292 291 288 289 296 298 309 315 318 320 318 318 319 319 321
294 293 293 293 292 292 292 292 292 293 294 293 293 293 294 296 295 295 295 295 294 294 293 293 293 292 292 291 290 287 286 287 291 290 303 305 305 305 309 313 314 313 312

GFSGL_sfc_thetae_078.txt.gz
Theta_e
341 342 342 342 341 340 341 344 347 349 349 350 352 354 354 350 351 350 350 351 349 350 350 350 350 350 349 349 347 348 345 339 339 345 340 347 352 354 358 358 357 359 357
341 342 342 343 343 342 341 342 345 347 349 350 351 353 353 352 352 352 349 352 349 349 350 349 349 349 350 352 350 349 348 347 345 344 346 347 352 355 356 356 358 358 357
341 341 342 341 341 343 343 343 344 345 346 348 350 350 352 352 352 352 351 351 351 351 350 350 351 350 350 350 350 349 349 349 348 345 346 351 352 353 355 358 358 359 356
341 340 340 341 340 341 343 344 343 344 344 346 348 350 352 353 353 353 352 351 351 351 352 352 352 351 352 352 350 351 351 349 350 349 349 349 350 353 353 350 353 357 354
340 341 340 342 342 341 342 342 345 344 344 346 346 350 352 353 352 353 353 352 351 351 351 352 353 352 345 348 353 354 352 351 351 350 349 349 350 351 351 354 350 351 352
340 340 343 343 343 341 341 341 342 344 344 343 344 347 350 352 341 339 349 353 353 352 352 353 354 348 347 338 337 339 350 354 353 350 351 348 352 351 354 351 349 347 345
342 342 342 344 344 344 342 340 340 341 344 342 343 344 346 349 335 335 339 353 353 353 353 353 351 352 348 354 343 336 336 335 340 355 352 352 352 355 355 353 350 347 347
340 343 343 343 343 345 345 341 340 340 341 341 343 344 344 345 331 332 336 350 352 352 352 352 352 353 352 353 353 353 353 354 350 346 349 354 357 358 357 355 352 350 352
333 338 343 347 344 344 345 346 344 341 340 340 341 342 344 345 327 327 333 349 350 351 352 353 353 352 340 331 352 352 353 353 342 331 334 334 332 331 337 347 347 347 346
324 327 331 336 342 346 345 346 347 347 343 342 342 342 336 343 327 324 329 346 345 347 351 353 333 346 331 326 348 351 349 351 353 353 351 340 333 341 328 343 348 345 347
323 325 329 332 335 340 344 350 348 349 347 346 344 345 344 340 342 321 322 346 347 346 347 348 352 326 322 319 324 351 348 351 348 350 352 351 350 350 351 348 349 350 349
321 324 326 329 332 336 338 342 348 350 348 348 347 347 348 346 328 323 319 324 338 347 346 348 348 323 318 318 320 325 323 325 348 349 348 347 348 350 352 354 357 353 356
318 320 322 326 330 334 336 338 341 348 349 347 347 347 348 350 348 322 319 318 322 342 350 343 330 320 318 319 317 321 319 335 340 343 342 344 349 350 353 353 354 356 355
314 316 318 321 323 327 333 337 337 346 348 348 348 347 348 349 350 351 337 329 323 328 337 344 338 334 329 335 333 327 333 339 341 342 344 346 347 348 348 350 350 352 353
312 312 314 318 319 322 327 331 334 340 346 349 350 351 349 347 349 340 341 346 343 335 337 345 347 347 348 348 345 346 345 341 339 342 343 343 344 347 347 349 350 352 353
308 309 312 314 318 320 322 326 319 314 313 312 314 335 350 331 321 312 313 310 313 311 336 344 345 346 346 345 347 350 349 342 345 346 344 345 344 344 345 349 352 353 353
306 307 309 311 316 318 320 322 326 329 312 308 306 307 310 329 307 307 306 307 305 312 347 347 345 348 348 346 347 347 350 349 350 347 345 345 345 346 344 349 351 352 351
305 305 308 312 316 316 319 321 324 330 335 339 316 312 308 306 304 306 305 309 325 316 345 347 348 348 349 349 348 349 351 353 350 350 349 349 348 347 346 346 350 351 352
302 304 307 310 312 312 314 319 321 326 332 338 347 320 310 303 305 305 303 342 344 344 339 345 350 352 350 349 349 350 352 353 352 351 349 349 348 347 347 349 350 331 336
303 304 306 308 310 310 312 315 317 320 323 327 340 345 329 320 326 324 321 332 343 349 349 346 347 351 352 351 349 350 350 349 350 349 351 350 350 349 348 348 348 342 338
303 303 305 307 306 308 309 309 311 313 315 320 325 335 316 336 341 343 340 336 339 344 347 346 346 348 350 350 350 350 350 350 349 348 349 349 348 344 341 341 339 338 337
301 302 303 304 304 304 305 305 305 307 309 310 315 326 306 330 338 333 321 314 309 309 310 313 309 309 310 312 315 326 336 338 339 342 346 345 341 340 339 339 339 340 338
298 299 300 300 300 301 301 302 301 301 304 304 306 308 307 304 303 302 302 301 301 300 300 301 304 302 303 304 306 304 309 313 314 317 325 331 337 338 337 337 336 336 337
296 296 296 296 296 297 297 298 298 297 298 300 300 300 299 298 298 297 297 297 297 297 299 298 297 297 298 300 300 302 305 304 310 313 317 325 331 327 335 334 335 336 333
294 294 294 294 293 293 294 294 294 295 295 295 296 297 297 296 295 295 295 295 295 295 295 295 296 295 295 295 296 296 292 293 301 303 314 315 317 320 321 320 320 321 325
294 293 293 293 292 293 292 292 292 292 292 293 294 294 294 294 294 294 294 294 293 293 292 292 293 294 293 293 293 291 289 288 293 291 305 305 304 303 306 309 313 315 315

GFSGL_sfc_thetae_081.txt.gz
Theta_e
349 353 352 351 351 353 352 354 358 359 361 361 362 362 362 362 363 363 362 360 359 359 360 360 359 362 355 354 356 354 351 350 344 346 354 358 362 364 364 366 362 363 358
349 350 351 352 352 350 351 353 356 358 360 361 362 362 362 362 363 361 360 359 359 358 358 359 358 356 359 361 356 360 357 358 351 350 356 354 360 365 365 366 362 358 363
347 345 347 347 350 351 351 352 354 355 357 357 360 361 362 362 362 362 362 361 361 360 358 359 359 359 359 357 359 356 356 357 358 354 352 356 359 360 361 363 363 365 360
347 347 347 347 347 348 354 354 353 354 355 355 357 358 360 362 362 362 362 362 362 361 361 360 360 360 360 363 360 362 360 358 357 355 353 353 355 360 360 353 352 355 357
346 346 347 352 352 350 348 354 354 354 354 355 356 356 358 357 357 361 362 361 361 360 361 361 360 358 349 352 357 360 362 358 355 353 351 351 351 351 353 353 351 354 358
345 345 350 351 353 352 352 351 355 354 354 354 353 355 355 352 339 339 354 360 361 360 359 361 362 351 350 339 338 340 350 359 357 352 349 349 355 356 354 353 352 350 346
344 347 349 351 350 352 352 352 353 353 354 353 353 354 356 358 334 334 340 357 360 361 362 361 359 357 354 361 343 336 337 335 340 358 356 356 357 359 360 359 358 354 352
343 345 349 350 350 352 351 351 352 351 351 352 352 355 355 354 332 330 335 356 360 361 361 362 362 362 361 360 360 359 360 361 359 354 357 360 362 364 365 362 361 360 359
326 332 334 337 347 350 351 351 351 350 350 350 351 353 354 355 329 327 334 353 354 360 362 362 362 362 346 334 357 357 359 359 345 335 336 335 335 333 340 356 352 350 347
319 323 330 335 337 338 350 353 354 354 351 350 350 353 344 354 332 323 330 348 350 350 357 363 337 352 334 327 354 357 355 355 356 357 359 348 338 349 330 351 356 350 349
321 321 325 330 333 337 340 344 351 354 355 354 351 353 354 351 351 323 320 349 349 349 349 349 350 328 325 320 327 359 356 354 350 356 355 356 358 359 359 358 359 356 351
320 320 322 326 329 333 335 339 341 343 349 354 353 352 353 355 333 327 319 321 339 351 352 352 353 322 319 318 322 331 325 329 354 351 350 350 352 353 356 359 364 364 361
315 318 320 323 325 330 331 334 338 342 343 348 350 349 348 355 356 323 318 317 321 345 354 346 330 317 315 320 318 322 320 346 350 349 348 348 351 354 361 361 362 364 365
314 315 318 319 320 325 332 333 335 340 341 343 348 347 349 351 356 357 348 336 322 330 337 347 341 335 331 340 341 331 344 351 351 351 349 351 354 355 355 357 355 356 355
316 315 315 315 318 320 325 328 332 336 335 338 342 349 348 350 354 342 344 354 349 340 343 350 351 351 351 351 352 354 355 353 351 352 353 353 353 354 354 358 356 355 352
311 312 314 314 315 316 320 322 315 312 311 307 306 314 339 330 321 313 313 312 312 313 340 349 350 351 349 349 348 350 352 349 354 353 353 353 351 352 354 356 356 354 352
309 308 311 310 313 315 318 321 320 321 312 308 306 305 303 316 311 306 306 306 309 315 348 350 349 349 349 349 350 349 349 355 361 353 353 353 353 354 352 354 355 355 353
309 306 307 309 310 314 315 317 320 320 322 327 322 313 311 303 304 307 305 308 327 317 349 350 353 351 353 353 352 351 353 352 353 355 355 355 356 355 355 354 354 354 353
305 307 306 307 308 311 313 315 317 321 324 324 327 325 325 305 305 304 305 344 348 349 343 348 352 354 356 356 358 358 356 353 351 353 352 352 353 355 352 353 353 331 338
304 304 305 305 306 309 311 312 313 317 318 321 323 327 332 322 328 324 323 333 348 352 353 353 354 355 358 359 357 359 359 355 352 351 352 352 353 353 349 351 351 349 348
304 304 304 304 304 307 308 309 311 311 312 315 317 321 303 315 334 339 338 334 339 347 350 352 350 351 355 355 355 354 354 353 352 352 351 350 353 351 352 354 353 351 354
303 302 302 303 304 305 306 307 306 307 307 309 312 313 302 317 321 317 316 314 312 310 311 318 320 318 315 317 317 327 339 344 344 341 346 349 350 350 350 348 348 347 351
301 301 301 301 302 301 302 303 304 304 303 305 307 306 306 305 304 304 304 305 303 303 304 306 308 307 308 306 306 307 312 316 317 320 325 331 336 341 342 342 345 346 345
297 297 297 298 298 298 298 298 298 297 298 300 302 301 300 299 298 298 299 298 298 299 301 302 303 300 302 301 304 302 300 305 313 319 322 327 332 329 336 339 342 341 341
295 295 295 295 295 296 296 296 296 296 296 296 297 298 297 297 296 296 296 297 296 296 295 296 297 296 295 295 294 296 289 292 307 304 320 318 319 318 319 316 320 322 321
292 293 293 293 293 293 293 293 293 293 293 293 294 294 295 294 294 294 294 294 293 293 293 293 293 293 294 293 291 288 286 288 296 292 310 311 309 309 309 309 309 310 309

GFSGL_sfc_thetae_084.txt.gz
Theta_e
357 356 357 357 358 360 358 358 359 360 362 365 365 365 361 362 365 366 363 361 359 359 360 361 362 363 355 351 352 351 349 348 343 344 348 354 363 363 364 367 365 362 354
356 357 357 358 358 356 357 357 359 360 360 363 366 366 364 362 364 365 361 357 360 359 359 361 360 358 362 361 353 359 356 356 349 353 356 350 360 363 365 367 361 357 359
354 352 355 355 356 355 356 358 358 359 360 360 362 363 364 361 363 367 364 362 362 361 361 361 360 360 360 356 358 354 354 355 355 351 349 352 353 357 361 367 364 364 355
351 352 352 352 352 353 354 357 358 359 359 358 359 361 362 362 360 363 364 364 363 363 364 363 362 360 361 362 359 361 361 359 360 353 350 350 352 360 358 353 349 351 351
350 351 352 356 356 354 356 355 357 359 359 360 358 358 359 359 358 360 361 364 365 364 364 365 364 359 349 352 357 365 365 359 352 350 348 349 349 349 354 350 348 349 356
349 350 353 355 356 357 358 357 356 358 359 360 358 357 356 351 340 338 353 364 362 364 362 364 365 354 353 342 341 341 351 361 358 350 345 345 360 356 351 349 348 346 344
335 348 350 354 354 356 357 358 358 356 357 361 359 358 359 359 334 332 340 356 358 362 364 362 360 358 356 363 344 338 339 335 339 358 357 357 360 360 363 360 363 355 353
324 327 332 344 349 355 356 357 357 357 357 357 358 360 360 359 333 331 334 356 359 363 363 362 364 364 361 360 362 361 362 363 360 356 358 359 363 364 365 365 365 364 360
322 322 324 327 335 343 351 355 357 356 358 357 357 358 360 360 330 328 336 354 353 359 363 365 367 366 349 334 360 359 361 361 344 336 337 336 334 332 341 357 352 348 344
323 325 324 326 330 331 342 351 358 363 356 355 355 358 349 359 335 324 332 351 351 349 358 364 339 353 336 329 362 362 359 356 353 355 358 351 341 353 333 356 357 350 346
326 326 327 325 326 329 331 340 351 358 360 360 358 359 361 356 356 323 321 353 351 350 349 349 350 329 327 322 327 364 358 354 348 353 352 352 353 355 358 361 365 358 350
326 326 326 327 328 328 331 334 338 347 351 354 356 357 359 362 337 330 319 322 342 352 353 352 355 324 319 320 325 333 325 330 350 345 344 345 346 346 349 356 371 369 365
324 324 325 324 325 328 328 332 333 340 344 348 343 346 354 358 359 326 321 318 321 342 355 346 327 318 313 319 318 323 323 349 349 346 344 346 348 347 361 366 368 377 373
321 322 323 323 318 323 326 327 331 336 338 341 344 344 350 360 357 359 356 344 323 331 336 345 343 336 327 337 343 333 346 352 351 349 348 350 350 348 347 351 352 353 354
319 320 320 320 322 317 321 324 326 330 330 331 339 343 344 346 355 331 332 355 362 348 343 352 353 352 353 355 354 355 355 354 352 353 352 351 349 348 347 350 351 351 350
316 317 316 317 318 319 316 320 314 310 307 305 304 313 333 320 314 313 312 311 312 315 345 350 352 354 354 355 354 354 354 349 354 354 353 352 350 348 347 349 350 351 351
312 317 316 313 316 317 318 319 319 319 310 307 303 304 304 308 307 306 303 303 305 317 350 355 352 354 355 357 355 353 353 357 364 356 354 353 351 350 347 348 349 351 351
313 309 313 314 315 315 316 318 319 319 318 319 317 309 309 305 303 301 299 302 331 316 345 349 354 356 357 356 354 354 357 357 358 358 358 356 353 352 350 351 352 354 353
307 308 310 313 313 312 314 315 316 315 317 319 323 320 320 309 304 300 297 321 338 347 345 350 354 356 357 358 359 359 360 359 358 358 358 359 358 358 356 355 355 335 342
306 308 307 307 307 309 310 311 312 314 315 317 321 321 328 323 325 331 330 324 333 346 353 355 353 357 359 359 367 366 364 364 366 364 360 358 356 354 353 354 355 356 355
305 307 306 306 306 307 308 308 310 311 313 316 317 319 300 314 318 323 331 332 333 338 348 355 356 359 360 362 366 363 362 363 361 358 359 358 357 352 353 353 354 356 355
302 302 303 304 304 305 305 307 309 312 312 312 314 314 302 315 316 314 313 311 312 313 313 318 320 315 317 322 323 329 328 331 342 349 352 353 352 352 352 351 352 353 352
301 300 300 301 302 304 305 305 306 309 310 310 310 309 309 309 306 305 304 304 306 306 308 309 312 311 310 310 310 311 315 319 318 321 326 332 336 339 345 346 347 346 347
297 297 296 297 298 300 301 302 304 302 302 304 306 305 303 303 301 300 300 300 301 302 303 303 303 304 306 306 309 309 307 309 314 319 323 329 334 330 333 334 335 337 335
294 294 294 295 295 296 297 298 299 300 300 300 301 300 300 299 298 297 297 296 296 296 297 298 299 299 299 298 298 297 291 292 308 308 324 325 323 324 321 323 322 320 322
293 292 292 292 293 294 294 294 295 295 295 296 296 296 296 295 295 295 294 294 294 293 293 294 295 295 294 294 292 289 286 288 300 294 318 321 317 316 317 317 317 316 317

GFSGL_sfc_thetae_087.txt.gz
Theta_e
360 361 361 360 361 362 360 360 361 361 362 362 366 362 364 363 364 366 368 363 361 362 363 361 364 369 355 349 349 348 347 347 341 344 347 356 370 367 365 368 364 367 359
359 361 359 360 361 359 361 361 364 364 361 362 362 364 362 362 367 365 360 357 358 358 358 360 359 355 368 367 354 365 356 360 349 356 356 350 361 368 370 373 364 359 360
356 357 358 358 358 359 360 361 364 363 363 358 362 366 361 362 365 365 364 363 360 360 359 361 360 362 365 359 363 354 351 355 356 351 349 351 353 355 359 369 370 367 359
348 352 356 357 359 359 362 363 360 365 364 363 363 366 364 363 362 362 363 364 365 362 363 363 363 361 366 366 362 368 363 360 358 350 348 349 351 361 356 353 352 353 352
348 351 348 358 359 359 360 361 360 365 364 364 364 364 365 359 357 364 364 362 366 363 366 366 366 360 351 355 356 365 367 360 352 348 346 346 347 350 354 351 349 351 357
340 340 347 353 355 360 361 359 360 359 364 368 364 364 363 353 340 338 355 362 365 365 364 367 370 355 353 342 341 341 351 363 365 350 345 344 362 355 349 348 349 346 344
328 328 336 341 342 345 355 361 362 362 362 366 366 365 365 366 336 332 339 356 361 365 367 366 365 356 357 366 345 340 341 337 339 361 362 361 361 366 366 365 359 358 352
325 326 328 331 336 339 344 354 360 360 359 363 362 366 367 365 335 330 334 358 360 363 365 369 368 368 367 365 366 363 363 364 362 355 358 362 365 369 369 366 367 369 363
328 329 327 327 328 332 338 340 351 358 362 359 360 362 365 366 333 328 335 355 353 358 362 365 365 369 352 339 363 364 365 366 346 339 343 342 341 337 343 357 351 347 344
328 329 331 332 329 326 328 333 339 348 356 362 360 362 351 364 338 326 332 354 355 354 360 362 340 351 338 330 363 364 361 363 365 360 359 349 342 352 334 353 355 349 346
326 328 330 331 332 331 330 332 333 337 344 353 359 363 363 358 361 324 322 358 354 354 354 354 356 330 327 325 325 365 360 362 358 360 358 356 355 358 361 363 365 358 351
325 326 328 330 329 329 332 335 334 336 338 345 354 356 358 366 341 333 320 323 345 355 356 355 355 325 319 321 326 334 329 334 358 354 350 346 346 348 349 355 368 370 366
322 323 326 327 328 330 328 331 329 337 337 338 342 345 350 358 362 332 321 319 323 345 357 349 322 320 315 318 317 320 322 349 352 352 351 350 350 350 355 360 366 378 375
320 321 322 324 324 325 327 326 325 326 330 332 333 337 335 337 354 364 358 345 329 335 338 348 343 335 323 332 341 332 344 352 353 353 353 354 355 352 349 352 349 350 351
318 318 319 320 322 324 326 324 324 327 322 324 326 328 328 330 337 318 317 329 333 329 324 343 354 355 352 355 357 359 358 356 353 354 355 354 353 352 351 353 350 349 349
316 316 316 317 318 318 319 319 310 309 307 307 303 312 324 315 310 306 304 304 306 309 329 345 346 356 355 355 356 358 358 353 358 357 356 355 354 354 353 354 352 349 349
314 315 316 315 317 317 318 318 317 317 306 305 302 302 300 305 301 300 299 300 303 308 332 343 348 351 354 358 356 354 354 360 362 357 356 357 356 355 351 352 352 351 350
310 306 309 312 315 315 316 317 317 317 317 319 309 309 310 302 300 299 298 301 325 321 332 342 348 351 354 356 357 360 358 361 359 360 360 360 360 357 354 354 353 353 351
306 307 309 309 311 312 314 315 315 316 317 318 320 315 315 305 300 300 299 319 328 334 339 341 348 352 349 349 357 357 362 363 361 362 362 361 362 361 359 356 355 333 340
305 306 307 308 309 309 310 312 314 315 315 317 318 320 324 322 326 325 326 330 330 331 334 342 354 353 351 355 360 356 358 358 361 362 359 362 362 362 359 360 359 356 360
301 303 304 304 304 306 307 308 310 313 313 315 317 319 300 320 321 321 322 322 321 319 321 326 331 350 351 352 355 359 356 357 360 361 363 363 363 360 359 360 358 357 355
302 302 302 302 302 303 303 305 306 307 311 314 316 318 303 318 319 318 318 314 313 312 312 312 315 319 322 325 325 330 335 341 342 345 354 358 356 355 355 354 354 352 350
299 299 299 299 300 300 301 302 303 305 306 311 312 313 314 315 315 313 310 308 306 306 306 307 309 312 313 314 314 314 318 324 325 327 331 332 334 336 338 341 345 346 346
296 295 295 296 296 297 297 297 299 299 301 304 307 307 308 309 308 307 305 303 302 302 302 302 301 302 304 306 308 307 308 308 310 319 326 328 330 329 335 336 332 329 331
295 293 293 293 294 294 294 295 296 297 299 300 301 303 304 304 302 301 300 299 298 297 296 297 298 297 297 297 298 298 295 288 299 303 320 326 328 327 328 328 325 323 323
296 293 292 292 291 292 292 293 293 294 295 296 297 298 298 299 298 297 297 296 295 294 294 294 294 293 293 293 293 290 287 290 302 295 320 322 322 320 320 318 317 317 318

GFSGL_sfc_thetae_090.txt.gz
Theta_e
361 362 362 362 364 366 365 369 368 371 356 351 338 340 358 365 367 367 362 357 360 360 364 361 362 363 359 357 357 354 354 352 346 348 356 356 358 359 358 362 364 364 361
360 363 363 363 363 363 364 365 369 368 369 363 354 357 362 366 363 362 363 360 359 360 361 361 359 358 363 363 358 356 356 357 351 347 351 350 352 354 363 365 362 360 359
357 360 361 361 362 362 364 364 367 367 366 363 364 366 366 364 366 363 361 364 361 361 362 362 361 361 360 358 362 358 355 355 355 352 348 357 353 354 355 361 364 364 366
345 353 352 359 360 361 365 364 365 367 365 364 365 365 364 363 365 365 365 362 362 360 363 363 363 362 362 362 360 359 358 358 356 355 351 349 351 354 359 356 353 352 352
341 341 347 349 358 366 367 364 366 368 365 365 365 364 366 363 361 361 362 364 362 361 363 364 363 361 355 358 360 360 359 357 354 351 349 351 350 352 349 351 348 353 352
335 334 339 342 347 351 356 362 364 365 364 365 363 363 361 358 342 338 355 360 363 362 359 362 364 357 352 342 341 341 350 358 356 356 352 347 349 355 355 353 351 345 342
332 332 334 338 340 342 346 351 358 361 364 362 360 364 361 363 341 333 336 357 362 361 363 360 358 356 351 360 343 339 339 337 341 350 350 353 354 356 359 357 355 355 352
330 330 331 332 333 335 338 342 344 349 358 361 360 361 361 362 339 335 335 350 355 357 362 363 362 360 359 361 362 361 357 357 354 348 348 349 352 356 357 356 355 357 359
330 332 332 332 332 332 331 333 338 341 345 355 358 360 361 360 334 329 335 354 353 353 355 359 359 361 349 339 355 358 360 361 348 340 341 341 339 338 344 355 351 348 343
327 329 332 334 334 333 334 333 336 340 342 348 350 358 350 357 339 326 331 355 354 354 355 355 339 346 335 331 351 356 352 354 356 358 356 344 339 345 334 348 354 348 345
326 327 330 332 333 336 336 337 335 335 339 342 346 352 357 354 355 327 322 354 356 354 354 354 356 331 325 324 325 352 353 356 353 357 357 357 355 355 357 355 354 351 346
325 325 327 330 329 328 335 334 334 337 337 339 343 346 351 356 336 335 322 323 335 353 354 356 355 324 316 316 322 328 327 333 353 353 353 352 350 348 348 350 356 358 357
323 323 324 326 328 330 331 330 329 331 337 337 337 337 340 339 342 324 321 320 321 330 339 340 322 321 318 323 317 318 319 338 343 346 347 349 351 353 352 350 350 360 363
320 322 322 322 322 325 326 325 327 326 326 329 330 331 331 332 339 339 333 330 326 332 332 339 331 325 324 331 334 342 333 343 345 346 347 349 352 351 350 351 346 344 344
316 318 319 319 321 322 326 325 324 328 324 323 324 325 323 324 326 313 314 325 328 322 316 326 336 342 348 353 353 353 354 347 347 349 350 350 351 351 350 351 348 345 345
309 311 314 315 317 318 319 320 314 309 306 305 305 312 324 313 307 305 299 299 300 303 316 325 334 340 342 346 353 354 354 350 354 353 352 351 349 349 350 351 351 347 345
306 307 309 309 312 313 316 316 315 316 308 303 301 302 301 308 303 300 297 297 298 303 317 325 333 338 341 346 349 350 350 355 356 355 354 354 352 351 348 349 348 348 348
307 306 306 308 309 311 313 314 315 314 314 318 311 305 303 300 299 297 297 300 325 316 325 328 332 338 340 341 345 350 351 353 353 355 355 351 351 353 352 350 349 348 348
306 305 305 304 305 307 309 312 312 313 314 315 317 314 312 301 300 298 297 323 326 327 331 332 335 338 342 345 348 352 351 349 351 353 351 352 353 353 352 352 352 332 337
304 305 304 303 304 305 306 306 307 309 310 312 314 316 319 319 322 325 328 328 327 328 327 326 327 327 328 331 345 350 350 351 354 352 351 350 350 352 350 350 351 349 348
302 302 303 302 301 302 302 303 303 304 305 307 309 312 304 313 317 319 321 322 323 320 317 316 315 316 317 321 325 336 349 351 353 354 347 347 349 349 351 351 350 350 350
300 300 299 298 299 300 300 301 302 302 302 302 304 307 303 310 316 318 319 319 315 313 312 311 309 310 313 314 315 318 323 335 338 337 337 336 338 343 347 347 346 347 347
299 297 296 296 296 296 296 298 297 298 300 301 302 304 306 307 309 311 312 312 310 308 307 306 305 304 306 308 311 313 313 318 321 324 326 329 331 335 337 338 340 343 345
298 296 294 294 294 294 293 293 294 294 296 297 298 301 302 304 305 306 307 308 306 303 303 301 300 301 300 299 301 303 305 308 307 309 316 323 327 327 331 333 335 334 333
298 296 295 294 293 292 291 291 292 293 294 295 296 297 299 300 301 302 303 303 301 299 298 297 297 297 297 296 296 296 294 288 291 297 310 319 323 327 328 328 327 325 325
299 297 295 295 293 292 290 290 290 290 291 292 294 295 295 296 297 298 298 298 297 296 295 295 294 293 293 293 292 289 286 286 293 292 306 320 322 321 322 320 320 319 318

GFSGL_sfc_thetae_093.txt.gz
Theta_e
350 353 353 353 354 354 353 354 352 346 349 346 343 344 345 350 353 351 350 349 347 348 349 349 346 348 347 348 350 347 344 343 335 338 346 346 342 340 343 347 354 354 353
344 346 354 355 354 352 354 355 352 349 348 345 337 334 338 349 354 353 351 351 348 347 348 349 347 351 348 351 347 346 346 343 339 334 338 340 343 345 346 350 357 358 354
343 344 347 352 355 351 353 355 356 354 351 349 348 343 349 352 354 352 351 351 351 350 351 350 350 350 347 347 344 347 346 349 347 344 343 346 347 345 344 346 349 354 354
340 342 342 343 345 350 356 356 357 357 355 354 353 353 355 354 354 355 352 351 351 351 354 354 353 350 349 349 348 347 347 346 346 345 343 343 343 347 347 346 340 343 345
336 339 339 343 344 343 344 352 355 354 357 355 353 354 356 355 355 354 354 353 350 350 352 354 354 355 352 351 353 349 348 347 347 344 343 343 340 341 343 345 343 344 342
331 334 338 339 340 340 342 344 351 351 352 353 354 355 353 357 345 342 350 352 355 352 350 352 354 352 351 344 343 345 350 347 344 344 344 343 341 341 345 344 345 342 339
330 331 333 334 334 335 338 339 340 341 349 350 351 349 352 355 341 337 336 345 351 351 353 352 352 356 349 353 343 338 337 336 340 343 340 339 340 343 345 344 342 344 344
327 328 330 332 331 332 333 334 335 337 339 342 347 352 351 353 339 331 336 340 342 346 351 355 353 351 349 350 353 353 348 347 344 341 343 345 344 344 345 346 345 346 349
321 323 327 329 328 330 330 332 332 334 336 339 342 345 350 349 334 330 333 344 343 345 347 349 353 354 345 337 346 347 350 353 346 337 338 337 336 336 340 348 344 341 342
318 319 323 324 323 325 327 328 330 331 332 337 337 342 340 349 335 328 329 343 346 347 348 347 335 342 334 331 345 348 348 349 349 353 345 339 336 342 334 342 347 341 343
317 318 320 321 322 321 324 324 324 326 330 332 335 338 343 344 341 321 321 338 347 349 349 349 350 327 319 317 320 343 343 342 345 349 350 351 351 349 349 346 346 347 345
316 316 316 317 319 321 321 323 324 323 324 329 332 335 339 336 322 319 317 318 323 332 338 345 346 317 313 316 321 322 321 326 338 341 345 346 348 349 350 349 352 350 351
313 314 315 315 317 318 319 317 317 320 318 324 328 327 328 331 333 318 317 320 324 330 334 330 319 315 318 326 318 320 319 326 331 334 338 341 344 348 350 346 344 342 349
306 308 310 312 312 313 315 317 317 315 316 317 316 317 318 319 322 332 324 325 323 328 329 329 327 323 323 327 328 336 340 343 341 338 338 340 343 345 346 348 347 347 345
303 304 306 307 307 309 312 312 314 315 311 308 311 316 315 314 316 313 309 315 321 320 313 324 327 333 336 338 339 345 350 348 338 341 342 342 342 344 345 347 347 346 343
302 303 303 303 305 307 308 309 310 307 305 302 301 303 314 311 306 303 302 298 298 301 315 320 324 328 331 335 338 339 342 345 348 343 344 345 344 344 345 347 347 345 343
300 301 301 302 303 303 304 306 306 309 307 304 302 302 299 301 300 299 300 296 298 301 313 320 321 324 328 333 336 338 339 345 347 348 349 347 345 344 340 343 345 344 343
301 304 299 299 300 300 302 303 304 305 305 307 307 305 304 300 298 297 297 300 312 306 316 321 324 325 329 332 336 337 339 340 342 346 348 348 348 348 348 346 344 344 344
298 297 298 297 298 300 300 301 302 303 303 305 306 306 307 303 302 300 295 304 314 319 321 324 326 326 326 326 327 327 329 331 335 345 345 346 346 346 341 337 336 324 331
297 303 302 297 297 297 298 298 299 300 300 301 303 304 306 305 304 306 309 314 320 322 317 317 318 316 314 313 314 316 319 323 329 337 345 346 346 344 344 343 343 343 344
296 295 300 295 294 295 296 296 296 297 298 299 300 302 300 301 302 304 308 311 313 311 310 308 310 310 309 310 311 311 312 314 320 325 336 343 341 340 341 342 344 345 344
294 293 293 293 293 293 293 293 293 294 295 295 297 299 297 300 303 304 306 308 311 309 309 308 307 305 306 306 306 307 308 310 314 318 323 329 336 338 339 338 336 335 331
293 292 291 291 291 293 291 291 291 291 292 293 294 295 296 297 299 300 301 304 308 307 305 304 302 303 303 303 304 303 302 304 308 310 310 314 321 326 334 336 336 337 337
293 292 291 291 291 292 291 290 290 291 291 291 292 293 294 295 297 298 300 303 302 303 302 301 299 300 299 299 299 300 299 300 301 302 302 305 311 318 326 329 332 335 337
293 292 291 291 290 289 290 290 289 289 289 290 290 291 291 293 295 296 297 299 300 301 300 299 298 297 297 295 295 295 293 289 289 290 294 300 308 315 323 327 330 328 326
294 293 292 292 292 289 288 290 289 289 288 289 289 289 290 292 293 294 296 296 296 296 297 297 296 295 293 293 293 290 286 286 288 286 291 300 307 314 321 324 324 321 320

GFSGL_sfc_thetae_096.txt.gz
Theta_e
344 343 344 349 349 347 349 349 347 347 347 347 348 349 349 351 351 348 347 348 345 346 345 346 345 344 344 345 347 343 341 339 332 334 341 341 340 340 345 346 349 349 353
343 344 345 348 347 349 350 350 349 346 346 344 343 343 343 345 349 350 348 349 346 344 345 344 345 347 342 345 344 341 343 341 339 336 337 340 342 345 346 344 349 354 351
342 342 342 343 348 348 349 350 350 345 345 344 339 334 332 339 347 350 350 350 349 347 345 345 346 346 344 343 343 341 342 345 343 341 340 343 343 344 343 345 346 345 348
342 340 339 342 342 342 344 348 349 350 347 346 346 343 342 346 349 351 350 347 347 349 349 350 348 348 346 345 344 344 342 342 341 340 339 340 340 344 343 342 343 342 344
339 339 339 340 342 338 340 342 345 349 350 351 350 350 350 353 354 350 352 350 347 346 348 349 351 351 347 345 348 346 345 343 342 341 340 340 340 339 339 342 340 341 340
334 335 338 337 337 338 339 340 341 341 347 350 351 349 348 353 344 339 348 350 351 349 347 348 349 349 347 341 340 342 346 345 342 340 339 338 338 338 340 341 338 337 334
328 330 332 332 332 332 333 334 335 336 339 340 345 348 348 350 337 333 337 343 348 349 350 349 349 353 347 351 344 338 336 336 340 342 339 338 337 338 338 336 337 338 338
327 329 331 332 331 331 331 331 331 334 336 338 339 341 343 350 335 331 334 340 341 341 346 349 350 351 349 348 347 347 348 346 341 340 343 345 343 345 338 340 338 340 343
317 320 324 326 326 330 329 330 331 331 332 333 337 338 340 342 330 326 331 344 343 343 344 345 348 350 341 334 344 346 346 346 343 332 333 333 333 332 336 343 340 338 340
313 316 317 319 320 322 323 325 329 330 332 334 334 336 334 340 323 321 327 341 341 344 346 347 334 340 331 328 343 347 346 347 348 348 350 339 333 339 330 340 345 340 340
313 314 315 314 316 317 318 320 323 322 322 325 330 334 338 334 328 317 319 336 336 339 344 347 344 319 315 315 316 329 336 337 336 338 343 348 349 346 346 343 344 345 343
309 309 310 313 314 316 314 315 315 315 317 319 326 329 334 333 321 317 316 319 325 328 330 335 335 318 314 317 319 323 318 320 329 334 336 339 342 344 348 350 349 347 349
304 304 306 307 308 310 310 311 313 314 314 314 313 315 316 319 327 315 316 317 320 325 330 327 317 315 314 318 321 320 320 330 332 330 334 337 340 344 346 346 346 348 350
301 301 303 303 303 304 308 309 309 308 308 308 308 309 311 313 315 317 321 316 317 321 324 324 322 318 317 320 323 331 334 336 338 339 341 344 345 342 341 343 342 343 343
300 300 300 300 300 302 305 305 307 307 303 304 305 305 306 308 311 307 306 312 309 308 307 316 321 325 326 330 333 336 338 341 342 343 342 343 343 342 340 342 342 342 340
298 299 299 298 299 300 300 302 304 303 302 300 298 300 306 304 300 299 297 297 297 300 310 314 317 321 321 323 326 329 333 335 339 343 342 341 341 343 342 343 343 342 341
297 298 297 297 297 297 298 298 298 302 302 300 299 299 299 298 298 297 296 295 297 300 309 314 316 321 322 324 326 330 332 335 337 338 340 342 344 343 341 343 344 343 343
295 300 295 295 295 296 296 297 298 298 298 300 301 300 300 298 297 297 295 300 307 306 310 314 317 321 325 322 318 318 319 320 322 325 328 332 339 344 344 344 344 343 343
294 294 295 294 294 297 295 296 297 297 297 298 299 299 300 299 298 297 296 302 305 309 313 317 321 320 315 312 312 312 312 313 315 317 320 324 331 339 341 343 343 326 330
294 300 297 292 292 292 293 293 293 293 293 294 295 296 298 298 297 299 301 302 304 309 312 311 310 309 310 309 309 308 308 309 311 313 313 317 321 330 337 341 341 339 336
292 292 296 291 290 290 290 290 291 291 291 291 292 294 295 295 295 297 298 300 303 307 308 309 309 309 308 306 306 305 305 306 308 309 311 313 318 319 321 329 339 342 342
291 291 290 289 289 290 289 289 289 290 290 290 290 292 293 293 293 295 297 297 299 301 304 307 307 305 304 302 303 303 303 302 303 305 307 308 309 311 315 321 328 336 335
291 291 290 289 289 291 288 288 289 291 290 290 290 290 290 291 292 293 294 296 297 299 303 305 304 302 302 302 301 302 300 300 301 302 301 301 303 305 307 312 319 327 333
291 291 290 289 289 289 288 287 288 290 290 290 289 289 290 290 290 290 292 294 296 297 299 300 301 300 298 299 299 299 299 299 299 298 296 295 296 298 302 307 313 322 328
291 290 290 289 289 288 288 287 287 290 289 288 288 289 289 289 288 289 291 292 293 294 296 298 298 298 298 297 297 296 294 290 292 291 291 291 292 295 298 302 308 315 323
291 291 290 290 289 288 287 286 286 287 288 288 287 288 288 288 288 288 289 290 291 292 293 294 295 296 296 295 294 291 287 285 287 286 288 290 291 294 299 303 308 313 319

GFSGL_sfc_thetae_099.txt.gz
Theta_e
345 343 344 346 345 344 345 346 348 347 347 347 349 349 350 349 349 347 346 345 344 342 343 343 343 343 342 343 344 341 340 336 332 336 336 340 339 342 345 345 348 348 347
341 343 345 346 346 345 345 346 349 347 346 346 346 345 346 347 348 348 345 347 346 344 342 342 342 346 341 341 342 339 341 339 337 334 337 339 341 342 344 344 346 349 345
340 339 342 343 342 344 345 345 348 347 344 344 342 341 341 342 343 347 349 347 346 346 346 342 342 343 342 341 340 339 339 342 340 338 337 340 341 341 342 344 345 344 346
341 339 338 340 335 337 339 342 345 348 343 343 342 339 337 334 338 345 347 347 347 347 347 346 345 346 344 344 343 341 340 339 338 338 337 338 339 342 341 339 340 340 342
339 339 338 338 340 339 338 339 340 343 347 346 345 345 343 343 347 346 348 349 346 345 346 347 348 349 346 343 347 345 343 341 340 338 338 337 337 336 335 338 338 338 338
336 337 338 337 337 337 336 336 336 337 339 341 345 347 346 351 342 337 346 348 349 347 346 346 347 346 345 339 338 338 344 343 341 339 339 337 337 337 337 338 335 333 332
330 331 331 332 331 331 332 332 332 333 335 336 338 342 343 345 333 330 334 343 345 346 347 348 348 351 345 348 342 337 336 334 339 345 341 341 338 338 337 334 333 334 334
322 325 326 328 330 330 330 329 330 331 331 333 335 338 339 343 328 327 331 337 341 341 341 345 346 347 348 347 347 346 346 346 342 339 342 346 345 344 339 340 338 336 338
315 316 318 321 325 323 322 325 328 329 330 331 334 335 336 338 326 322 327 339 341 341 342 342 344 344 338 329 341 344 345 346 341 330 332 332 331 330 335 339 339 336 340
311 313 314 315 316 316 319 320 324 324 324 328 330 334 332 338 318 319 327 338 339 340 342 343 330 326 318 318 332 339 340 343 343 342 343 339 332 336 330 338 343 339 340
309 309 309 309 312 312 314 315 315 318 319 321 327 335 335 330 327 316 318 329 327 329 332 333 337 322 315 313 314 330 332 333 335 336 337 339 341 343 345 339 341 343 342
305 306 305 305 307 309 308 311 312 311 311 310 311 315 316 320 318 317 314 315 319 321 323 328 332 319 313 313 316 321 318 319 330 334 336 338 339 341 343 345 346 344 347
302 302 302 303 304 304 305 305 307 308 307 307 308 308 309 313 314 312 312 313 315 318 321 320 314 312 311 316 317 316 317 327 331 333 334 338 342 343 344 343 344 347 347
299 299 299 299 300 301 304 306 305 303 303 305 305 304 306 308 308 306 306 306 310 310 312 312 315 315 315 318 323 328 331 331 332 334 336 341 344 344 342 342 340 341 339
298 298 297 298 297 298 299 301 302 302 301 301 301 301 303 303 305 300 298 302 300 301 301 310 313 315 318 320 322 325 328 330 331 334 336 338 340 342 342 342 340 339 338
296 296 296 295 295 296 296 296 301 301 300 298 297 298 301 302 298 297 296 296 297 299 306 307 310 312 315 319 321 324 326 328 325 326 329 330 331 334 338 342 341 340 339
294 294 293 294 294 294 294 294 294 297 299 298 297 297 297 296 296 295 295 294 298 300 303 307 309 312 315 321 324 320 318 318 316 316 318 319 321 325 329 336 339 341 339
292 299 292 292 293 293 293 293 294 293 293 293 296 296 296 295 295 294 295 296 300 301 304 307 312 315 318 317 314 312 310 309 309 310 311 314 316 318 321 325 331 337 339
293 292 291 290 291 292 291 291 291 290 290 290 292 294 295 294 294 294 295 297 298 299 301 305 309 310 311 311 309 309 309 308 308 308 310 311 311 313 314 318 324 319 325
293 299 294 290 289 289 289 289 289 289 289 289 290 290 291 291 290 291 293 295 296 297 300 302 304 307 309 310 308 307 306 306 305 306 306 307 308 311 312 314 315 316 321
291 292 296 289 289 289 289 288 288 288 287 288 288 290 293 289 289 290 291 292 293 295 296 297 300 302 304 307 306 305 304 304 304 303 303 305 305 305 307 310 311 313 317
290 290 289 288 288 288 288 288 287 287 287 288 288 289 292 289 289 290 290 290 291 292 294 296 297 298 302 305 303 302 301 301 301 302 301 301 302 302 302 304 307 308 311
290 290 289 288 289 291 288 287 287 287 287 287 288 288 288 288 289 288 289 290 290 291 294 295 296 296 298 300 301 301 299 299 299 300 298 298 299 299 299 299 301 302 305
291 290 289 288 289 288 288 287 287 288 287 287 287 287 287 288 289 289 289 289 290 290 291 292 293 294 295 296 298 299 299 299 299 298 298 297 296 296 296 297 298 301 303
290 289 289 289 288 289 288 288 286 286 286 286 286 287 288 288 288 288 288 289 289 289 290 291 292 292 292 293 295 296 295 291 293 293 294 293 293 293 293 294 295 297 299
291 290 289 289 288 288 287 287 286 286 285 285 285 287 288 288 288 288 288 288 288 289 289 290 292 292 293 294 294 291 288 287 289 287 289 289 289 290 292 293 295 297 299

GFSGL_sfc_thetae_102.txt.gz
Theta_e
344 343 345 345 346 347 347 347 348 351 349 349 350 351 352 351 353 352 350 351 350 349 349 350 350 351 348 349 353 348 348 343 341 346 344 350 351 353 355 357 356 359 354
344 345 346 348 348 346 347 347 350 351 350 349 350 351 352 351 353 352 351 350 350 349 349 348 348 348 349 349 349 349 348 348 345 343 346 347 350 353 353 354 355 353 354
342 341 341 339 341 341 344 347 349 350 350 347 347 349 349 349 350 350 351 352 349 349 349 348 348 348 349 349 348 346 346 347 347 346 345 348 349 350 352 354 353 355 351
340 339 339 337 338 340 341 342 343 348 350 347 347 346 344 345 345 346 349 351 352 352 350 350 349 349 350 352 349 350 350 347 347 346 345 346 347 352 349 346 348 352 349
340 340 338 339 340 339 338 339 339 341 343 349 348 348 347 344 343 345 346 349 352 352 351 351 353 350 343 346 353 355 352 350 349 347 347 346 347 347 348 348 346 347 349
340 338 338 337 337 335 336 336 336 338 339 341 343 347 348 350 337 334 341 351 353 352 352 354 354 348 348 338 336 338 347 352 351 348 348 347 349 347 348 347 347 345 343
329 331 332 333 332 330 332 332 333 334 337 337 338 341 342 346 327 328 334 344 349 352 352 352 353 353 349 354 344 336 337 334 339 353 350 351 349 352 350 348 346 344 345
318 320 326 330 327 327 327 328 329 330 333 334 336 338 339 341 324 323 328 344 345 346 345 346 347 349 349 346 351 352 352 353 351 346 348 352 354 355 352 352 350 347 348
314 315 317 321 321 321 321 323 326 325 325 330 334 336 339 328 319 322 333 343 342 343 346 345 343 344 324 324 340 346 348 350 342 331 331 331 330 329 334 344 345 345 344
311 311 314 316 316 318 320 321 324 323 323 328 335 334 327 330 314 316 325 329 326 329 335 337 326 326 319 320 330 337 339 343 345 345 347 344 339 343 330 342 347 344 345
309 309 309 310 311 312 314 315 316 318 318 317 318 318 319 315 312 311 312 321 321 325 327 329 333 320 314 313 314 325 332 331 334 338 341 343 345 347 348 349 348 347 345
306 306 307 307 309 309 310 311 311 311 311 311 311 312 314 316 310 308 308 310 313 319 320 326 326 312 308 309 317 319 315 317 330 334 336 337 339 343 347 349 353 350 352
303 303 303 305 305 307 307 306 305 307 307 308 308 307 308 310 308 307 307 308 309 312 314 313 310 308 310 317 317 316 317 333 335 334 335 337 341 345 349 350 352 354 353
301 301 301 301 301 302 304 305 304 303 304 304 304 304 305 307 305 304 304 305 305 308 308 310 313 313 313 317 322 327 331 334 334 334 334 339 342 341 344 348 346 349 345
300 299 298 298 298 299 300 301 302 302 302 302 301 301 301 302 301 299 298 301 302 303 303 314 316 318 319 321 324 325 328 329 323 323 324 323 323 325 327 334 336 340 340
297 297 297 297 297 298 298 298 299 299 298 296 296 297 300 298 296 295 293 294 296 298 307 310 311 313 315 317 319 323 325 320 316 318 318 316 316 317 318 321 327 331 333
296 296 296 296 296 295 295 295 294 296 298 295 294 295 295 294 293 293 293 294 297 300 304 306 309 312 313 315 318 315 315 314 313 313 313 314 314 314 315 316 317 321 323
298 297 295 295 294 294 294 294 294 293 292 292 294 294 293 292 292 292 292 295 298 299 300 301 303 307 310 311 312 311 311 311 311 310 310 311 312 312 312 312 314 315 318
295 294 293 294 294 293 293 293 292 292 292 291 292 293 293 292 292 292 293 295 294 295 297 297 299 299 302 303 306 309 309 309 308 308 307 308 308 307 308 311 313 309 310
296 296 294 292 292 292 292 292 291 291 291 291 291 291 292 292 291 291 292 293 293 293 294 294 295 299 299 302 301 303 306 306 305 305 305 305 305 304 304 307 308 308 310
296 297 296 293 292 292 292 291 291 291 291 290 291 292 292 290 290 290 291 291 291 290 290 292 293 295 296 298 300 302 304 302 303 302 301 301 302 302 303 303 302 303 305
295 295 293 293 292 293 292 292 292 292 291 291 291 291 291 291 290 290 290 290 290 291 291 291 292 294 295 296 297 298 298 298 299 300 299 299 298 299 299 300 300 300 302
294 293 293 293 293 293 293 293 292 292 292 292 291 291 290 290 290 290 290 290 290 290 291 291 292 293 294 294 295 295 293 294 296 298 297 297 297 297 297 297 297 297 297
294 294 293 292 293 293 293 293 293 291 292 292 291 291 290 290 290 290 290 290 290 290 290 291 291 291 292 292 293 293 293 295 297 297 296 296 295 295 295 295 295 295 296
295 294 293 293 293 294 294 294 293 293 292 292 291 291 290 291 291 291 291 291 291 290 290 290 290 290 291 291 292 293 292 288 290 290 291 292 292 292 293 293 293 294 294
295 295 294 293 293 293 293 293 293 293 292 292 291 291 290 291 291 291 291 291 291 290 290 289 289 289 290 290 291 289 287 286 288 286 288 288 288 289 290 290 291 292 293

GFSGL_sfc_thetae_105.txt.gz
Theta_e
350 354 355 355 356 357 356 357 357 358 359 358 359 358 359 360 362 362 361 361 360 360 359 359 359 362 355 356 358 358 354 352 344 345 353 356 360 361 361 364 360 359 353
350 352 352 355 356 355 355 357 358 357 360 360 360 360 361 360 361 362 359 359 359 358 358 358 358 356 358 359 355 358 354 357 351 350 356 355 360 364 364 365 359 359 362
350 350 353 354 355 356 356 357 360 359 360 359 357 358 359 360 360 361 361 361 360 359 359 357 357 358 359 358 359 356 354 355 356 353 353 357 358 360 361 363 363 365 359
344 344 344 350 351 350 352 353 355 359 360 359 358 357 358 357 356 356 356 357 359 358 360 360 359 358 358 360 357 360 361 360 359 356 353 353 355 360 359 354 353 357 356
341 340 338 341 346 347 348 348 350 354 355 358 358 358 357 354 353 355 355 355 355 357 360 360 362 356 346 350 359 363 360 359 353 349 350 351 351 350 352 354 352 353 355
340 339 341 341 345 342 344 344 346 348 350 353 354 356 355 353 329 332 345 358 360 360 359 362 363 353 350 337 337 337 347 359 360 358 355 351 356 356 355 353 353 350 345
333 336 338 334 334 336 339 340 341 343 345 345 348 350 350 344 324 326 334 357 357 357 358 358 358 357 354 359 346 338 338 333 339 358 356 358 358 359 360 357 356 354 352
323 327 329 330 330 333 332 331 332 336 339 342 346 347 338 328 319 323 331 355 355 352 351 351 351 345 331 336 352 356 358 361 362 358 359 359 361 362 362 360 358 357 357
317 318 321 325 326 328 326 326 328 330 334 340 342 335 329 322 314 317 332 338 338 339 341 337 336 331 324 322 341 343 348 355 344 334 330 328 328 328 335 350 351 351 349
313 314 318 321 325 325 327 328 327 329 326 323 323 322 316 316 310 311 322 329 330 331 333 335 325 323 315 315 330 332 333 339 343 345 350 350 343 352 332 352 353 350 351
313 312 314 317 317 318 319 321 323 322 319 319 318 318 314 312 308 308 309 320 322 324 325 326 327 315 310 309 311 333 331 327 333 338 341 343 345 347 349 354 357 353 349
315 315 316 317 317 317 316 316 318 321 319 318 317 316 314 314 307 307 307 308 311 319 319 322 323 308 307 308 317 313 313 319 336 336 337 337 339 342 345 349 353 354 355
312 312 312 313 314 315 315 314 313 316 313 312 314 313 312 312 310 306 305 306 307 312 312 311 310 308 311 317 315 314 319 335 336 335 332 332 334 335 340 343 347 352 357
309 309 309 309 309 311 311 311 310 310 309 309 308 306 307 307 304 304 304 306 307 310 311 313 314 314 313 317 322 325 329 332 330 329 327 328 329 329 328 331 330 333 335
306 306 306 306 306 305 306 307 306 303 303 304 305 305 304 300 297 297 296 300 304 303 305 314 315 316 317 319 321 324 328 328 326 325 324 324 324 324 324 324 324 324 325
305 304 304 304 304 304 303 302 298 297 296 295 295 298 301 295 294 293 292 293 295 298 307 308 308 312 313 314 315 317 321 321 321 321 321 321 320 321 321 321 322 321 320
304 304 302 302 302 302 301 301 298 297 296 294 294 293 293 292 292 292 292 293 297 299 303 304 305 307 309 311 312 314 311 313 316 317 316 317 317 317 316 317 319 319 319
303 300 302 301 301 301 301 300 300 299 298 298 294 294 292 292 292 292 292 296 301 301 301 300 299 301 301 304 306 306 307 308 309 309 309 311 311 311 312 311 313 314 315
302 301 301 301 300 299 300 299 299 299 298 298 299 296 296 292 292 292 293 299 298 298 298 299 299 299 300 300 301 302 302 303 305 307 308 306 305 305 305 305 305 304 306
301 300 301 300 299 299 299 299 298 298 298 298 298 297 298 298 298 298 298 298 297 297 296 296 297 298 299 300 300 301 300 299 300 300 302 304 304 303 302 303 303 302 303
301 300 299 300 299 300 300 299 299 299 299 298 298 295 290 297 296 297 297 297 296 296 296 296 296 297 297 297 297 297 297 298 298 300 301 302 303 300 301 300 299 299 299
302 302 300 300 300 300 300 300 300 300 300 300 299 297 291 298 297 297 297 296 296 296 295 294 293 293 294 294 294 294 293 293 294 296 297 296 296 297 298 298 297 297 298
303 302 301 301 301 300 299 301 301 301 302 302 302 301 299 298 298 297 297 297 297 295 294 293 292 292 293 294 294 294 293 293 294 294 294 294 295 295 295 296 296 296 295
304 303 302 301 301 301 301 302 302 297 302 302 303 302 302 300 298 297 298 298 298 297 296 295 293 292 292 292 293 293 293 294 294 293 293 292 292 292 292 292 293 294 295
305 304 303 303 301 301 301 301 302 303 302 302 303 303 302 301 299 298 298 298 298 297 296 294 294 293 292 292 292 292 291 287 289 289 291 291 290 290 290 290 291 292 292
305 303 304 304 303 303 303 303 303 303 303 303 303 303 303 302 300 299 299 298 298 297 296 294 294 293 292 291 291 289 286 285 288 286 288 288 288 288 289 289 290 290 291

GFSGL_sfc_thetae_108.txt.gz
Theta_e
355 356 356 355 354 359 360 357 359 362 366 360 360 361 359 360 363 364 361 359 359 360 359 359 359 361 353 351 352 351 349 348 344 345 349 355 362 362 363 365 361 358 354
355 355 357 356 355 353 356 356 359 358 363 362 361 362 360 360 362 361 359 358 358 357 358 358 357 355 361 361 354 357 356 357 349 352 357 351 358 364 363 366 360 356 357
355 355 355 356 353 354 356 358 358 359 358 359 362 359 357 359 359 360 360 360 359 357 357 357 357 358 358 356 359 354 353 352 354 351 349 351 353 357 359 364 362 363 354
353 353 355 356 353 356 357 359 358 358 359 358 358 360 359 359 358 359 358 358 358 357 358 358 358 357 359 359 357 360 358 355 354 352 349 348 349 358 356 349 348 351 351
344 350 352 356 358 357 357 358 358 360 360 360 358 359 360 361 355 360 360 360 360 359 360 359 359 356 348 349 356 359 361 357 351 349 347 347 347 352 352 350 348 349 354
342 341 340 344 345 350 353 354 355 355 359 360 359 358 358 355 328 331 345 361 360 359 358 360 360 354 352 341 339 338 347 359 356 352 349 349 356 356 353 351 352 350 347
343 341 339 340 337 339 342 347 350 351 353 353 355 355 348 345 322 327 333 358 360 359 360 360 360 353 350 356 347 338 339 335 339 360 357 357 357 366 366 359 360 356 355
333 335 337 337 337 335 336 338 341 347 349 352 344 344 339 329 318 322 333 357 351 347 349 347 344 338 334 336 352 357 359 360 362 359 363 361 364 362 362 363 361 361 359
325 327 330 330 333 336 335 337 338 335 344 337 339 337 329 322 312 314 334 348 346 346 343 336 338 336 317 319 342 347 350 353 342 334 334 332 332 331 337 354 353 356 349
319 324 328 329 331 332 333 336 340 334 328 327 326 324 317 319 308 309 321 338 338 337 340 338 318 321 313 312 334 337 339 343 340 342 347 347 342 350 333 357 357 351 355
315 320 323 328 329 332 333 337 334 326 324 322 320 319 316 318 312 307 307 322 328 330 330 329 329 313 310 309 312 334 332 330 336 340 343 345 348 349 349 353 355 351 347
319 318 320 323 324 325 328 330 328 325 323 324 323 322 320 317 307 306 306 307 310 322 322 323 324 309 308 309 316 314 313 319 336 337 337 338 339 339 341 343 348 350 351
321 321 322 323 324 325 325 325 323 325 322 320 320 318 318 318 316 306 306 307 309 315 316 312 310 308 310 316 315 316 316 331 332 330 330 331 332 333 337 338 340 346 348
318 318 319 319 319 319 318 319 319 319 319 317 316 315 312 309 303 304 307 309 309 310 311 317 315 314 312 317 321 325 329 331 328 327 327 327 329 328 328 330 328 328 327
316 315 314 314 315 314 309 311 309 304 305 313 312 310 310 306 300 296 296 302 304 305 304 315 314 316 317 318 320 322 323 324 323 324 322 322 323 323 323 326 325 325 323
311 311 310 310 310 309 306 302 297 297 295 294 293 299 300 295 294 293 292 293 295 297 310 310 310 310 311 312 313 315 318 318 318 318 320 319 318 319 319 319 320 319 320
311 310 308 308 308 307 307 304 300 297 295 294 293 293 293 292 293 292 292 292 295 300 307 306 305 305 305 307 308 309 310 311 314 313 313 313 313 314 313 314 315 315 314
311 303 308 307 307 307 307 307 306 305 304 301 294 296 293 293 292 292 293 297 306 305 305 305 305 305 305 304 306 305 306 306 308 309 311 312 313 311 310 309 309 309 308
307 306 307 307 306 306 306 305 305 305 305 304 304 296 297 294 293 294 294 305 303 303 303 303 303 303 304 304 305 306 306 305 303 305 303 304 305 305 306 306 306 302 303
306 305 306 305 304 305 306 305 305 305 304 304 303 303 305 303 305 304 304 304 303 303 303 302 302 303 303 303 303 302 303 302 303 303 303 302 302 302 301 302 302 301 301
305 305 306 305 305 305 305 305 305 305 304 304 303 297 289 303 303 304 304 303 303 302 302 302 301 301 301 301 301 300 300 300 300 300 300 300 300 299 300 302 301 300 300
306 305 304 304 305 305 305 305 305 305 305 305 304 300 294 302 306 306 305 305 304 304 302 301 300 299 300 300 299 299 298 297 297 297 296 296 295 295 297 297 298 299 298
306 305 305 305 305 304 304 305 305 305 305 305 306 305 304 306 306 305 305 306 306 305 305 303 301 300 299 297 297 296 295 294 294 295 293 293 292 292 293 293 294 295 295
308 307 306 305 305 305 305 305 306 301 305 306 306 306 306 306 306 305 304 306 304 304 304 303 302 300 300 298 297 296 295 295 293 292 293 292 290 291 291 292 292 293 293
310 309 308 307 306 304 305 305 306 307 306 306 306 306 306 306 306 305 305 305 304 304 303 303 302 301 300 299 298 296 292 287 290 289 291 292 291 291 291 291 290 291 291
307 306 307 309 308 307 306 305 306 307 307 307 307 307 307 307 306 306 305 305 304 304 303 303 301 300 300 299 298 291 286 285 290 286 290 291 290 290 290 290 290 290 289

GFSGL_sfc_thetae_111.txt.gz
Theta_e
355 357 356 354 354 357 357 358 359 360 361 362 362 360 360 360 361 362 366 364 359 360 360 359 359 365 354 350 350 349 347 346 342 346 347 353 367 366 362 365 359 364 354
359 361 356 357 355 352 355 356 360 360 361 361 362 361 360 360 365 361 359 359 359 357 357 358 356 352 363 368 351 364 356 358 346 355 352 351 362 369 369 372 357 354 356
358 356 356 360 354 354 354 355 358 361 361 359 360 361 363 361 362 363 361 360 358 359 359 360 357 357 358 358 360 356 353 353 356 349 348 349 352 354 360 366 368 368 352
354 353 360 360 357 355 357 356 356 359 360 360 361 360 360 361 361 360 360 359 359 357 358 357 359 358 359 360 358 364 362 357 357 350 348 347 349 363 360 350 349 351 351
346 350 351 360 363 361 360 359 357 357 359 359 359 359 360 357 354 355 359 359 360 358 359 359 359 357 348 349 353 363 366 357 352 349 347 346 345 350 349 350 350 352 357
346 347 351 356 352 358 359 355 360 358 358 358 357 358 359 346 328 329 343 358 359 359 358 359 358 359 355 342 341 340 347 357 359 357 350 349 358 356 353 353 353 351 348
347 346 343 347 341 343 346 352 355 354 357 357 357 352 347 339 319 323 333 354 359 359 360 360 359 353 348 353 347 340 339 336 339 356 355 356 357 363 364 359 358 356 353
344 343 342 340 337 337 338 338 340 345 352 353 347 344 339 327 315 318 326 359 353 354 352 352 350 344 329 330 341 353 356 357 362 358 361 360 360 358 357 359 360 361 359
331 333 338 340 340 339 335 334 337 342 339 341 341 333 329 320 311 315 333 353 350 346 337 333 337 332 317 318 339 343 345 350 339 334 335 332 331 331 337 352 353 355 352
327 329 332 334 334 338 341 342 344 339 334 330 324 324 319 319 308 310 322 341 344 342 344 328 317 321 314 314 335 336 333 334 336 341 345 347 340 349 333 351 356 349 345
319 326 331 334 336 337 338 339 334 328 327 325 320 318 316 317 310 308 308 323 320 329 335 333 328 313 310 310 312 331 326 325 333 341 342 343 345 347 348 347 352 343 339
320 321 324 330 330 333 336 334 330 325 323 321 322 325 323 320 308 307 307 308 311 316 320 324 322 308 308 309 316 314 314 318 333 333 333 333 334 334 334 336 347 348 341
321 321 323 325 327 331 331 331 327 329 329 329 327 324 321 319 314 308 306 307 309 310 310 310 309 308 308 314 315 315 316 330 331 328 327 328 328 330 339 336 339 344 342
322 323 324 324 324 326 325 326 325 324 324 323 322 320 319 315 309 308 308 310 310 312 314 318 315 314 313 315 321 324 327 326 325 325 325 325 326 326 324 326 324 324 324
321 320 321 319 321 313 306 308 312 303 300 318 314 313 310 309 301 296 297 304 306 306 304 317 315 316 316 316 317 319 321 319 319 318 318 319 320 320 319 321 320 319 318
316 316 315 316 315 314 309 302 296 296 295 294 294 300 301 296 295 294 293 293 294 296 310 311 310 310 310 310 310 310 313 313 311 312 312 313 314 314 314 314 316 315 315
315 314 312 312 312 311 308 305 301 297 295 294 293 294 294 293 293 293 292 293 296 299 310 309 308 308 307 308 308 308 307 309 314 309 308 308 310 312 312 311 311 311 310
314 305 312 312 311 311 310 309 306 305 304 301 294 297 293 293 293 293 293 295 309 307 307 307 307 307 307 307 307 307 307 307 306 306 307 308 308 307 306 306 306 307 306
310 309 311 312 311 310 310 310 310 309 308 307 305 297 297 295 296 294 295 308 306 306 306 305 305 305 306 306 306 306 306 305 304 305 304 304 304 305 304 302 303 300 301
309 307 306 311 308 308 308 308 308 308 307 307 307 307 307 303 306 307 308 308 306 306 306 306 305 305 305 305 304 304 303 303 303 302 302 302 302 301 300 300 300 300 300
307 306 308 305 306 307 307 307 307 307 306 305 305 300 292 305 307 307 307 306 306 306 305 305 305 304 304 304 303 303 302 302 301 301 300 300 299 297 298 298 298 298 299
307 306 304 305 307 307 307 307 306 306 307 306 306 301 295 303 307 307 307 307 307 307 307 306 304 303 303 302 301 301 300 300 300 299 298 297 296 296 296 296 296 296 296
308 307 306 305 306 306 306 306 306 306 306 307 307 306 305 306 307 306 307 307 308 307 308 306 306 304 305 304 302 300 298 298 298 297 294 293 293 294 294 293 294 294 294
307 307 307 306 306 307 306 306 307 303 306 307 307 307 307 307 307 306 306 306 307 307 307 307 306 304 304 303 303 302 301 300 297 295 294 293 291 291 292 291 291 292 293
307 308 309 309 308 306 307 307 307 308 307 307 307 308 308 308 308 307 307 307 306 306 306 306 306 304 303 303 303 302 289 287 293 290 293 293 292 292 292 292 291 291 292
310 309 307 309 309 309 308 308 307 308 308 308 309 309 309 309 309 309 308 307 307 307 306 307 306 305 304 303 302 290 286 286 291 286 292 293 292 292 292 291 291 292 291

GFSGL_sfc_thetae_114.txt.gz
Theta_e
356 356 358 356 358 362 362 364 365 351 346 358 364 364 363 365 366 365 365 362 358 363 363 362 360 363 359 356 354 352 349 350 344 346 349 351 354 356 361 363 366 359 357
356 355 358 357 359 357 360 361 361 363 360 361 365 367 366 366 363 366 363 360 359 358 360 362 360 355 360 362 359 358 357 355 354 348 355 353 355 357 365 364 362 356 356
353 358 354 356 357 360 359 361 364 364 366 362 364 366 364 364 362 361 364 364 362 361 360 358 353 357 358 360 361 360 356 357 354 353 350 353 352 354 352 359 354 360 353
358 356 358 357 353 353 358 362 361 366 362 362 362 362 365 361 361 361 361 359 362 360 363 360 361 358 356 362 357 358 357 355 352 352 345 345 351 353 355 351 349 355 354
346 345 353 353 351 354 353 357 364 361 363 362 360 360 362 351 339 340 347 352 357 357 360 357 359 352 348 348 354 358 360 357 355 349 348 348 350 350 349 354 351 353 355
342 346 350 354 354 348 349 350 359 363 361 362 360 358 348 335 326 329 339 351 354 351 355 358 351 344 348 342 342 342 345 354 352 351 349 347 349 352 353 353 352 350 346
347 349 350 349 346 346 344 347 344 354 357 354 352 347 334 326 317 321 332 354 360 357 354 354 351 338 332 339 340 342 342 337 338 350 350 350 350 351 355 350 348 351 350
347 346 345 343 340 338 338 339 341 343 346 342 341 337 330 318 314 318 328 356 356 350 347 351 339 330 323 324 336 347 348 352 355 348 351 349 347 349 350 349 351 352 352
340 342 343 343 340 337 334 336 339 337 333 331 329 324 324 312 311 314 331 356 345 335 330 330 331 326 317 317 339 337 338 338 330 330 331 329 328 328 331 342 348 345 343
329 334 336 337 340 341 340 338 338 334 327 323 321 319 316 309 309 310 322 339 343 337 327 321 317 317 314 314 328 332 327 327 327 331 337 345 341 341 334 348 344 335 335
324 326 332 332 333 335 335 336 333 330 326 325 320 317 312 312 306 308 308 318 325 324 326 326 320 312 310 309 312 329 325 320 325 330 337 342 338 334 335 335 339 340 331
321 322 324 327 332 333 330 329 329 327 325 323 321 321 317 312 308 307 307 309 314 317 312 311 314 308 306 308 313 314 313 317 332 328 326 325 325 326 329 333 340 341 339
321 323 322 325 328 331 330 330 325 325 321 321 321 322 320 317 314 308 307 308 311 314 315 312 310 308 308 315 316 316 318 323 323 324 323 322 326 329 329 326 326 326 324
320 321 321 322 312 308 313 324 315 314 325 330 326 324 320 315 307 306 308 312 312 315 314 319 316 316 313 316 318 318 317 317 316 314 315 318 318 317 317 317 315 316 317
320 321 319 319 314 306 298 299 304 297 297 315 312 308 310 308 298 296 296 301 301 303 301 317 320 318 315 316 315 314 313 312 310 311 311 312 313 314 314 315 315 313 311
319 318 318 320 319 315 308 299 296 296 295 294 295 301 297 296 295 294 293 293 295 297 311 311 311 310 309 310 310 310 310 310 311 309 308 308 307 307 307 309 310 308 308
316 322 316 316 313 312 309 304 298 296 296 294 294 294 294 294 294 293 293 293 296 301 312 312 312 309 310 309 309 308 307 310 309 306 307 307 307 305 304 305 305 304 303
316 308 311 313 315 314 311 308 304 302 300 299 295 297 294 294 294 293 293 296 310 307 309 308 308 309 308 308 306 305 305 305 305 305 304 304 304 302 301 301 301 301 300
316 315 318 315 312 314 315 311 310 311 307 303 300 297 296 296 295 294 294 312 310 307 309 307 308 307 306 306 306 306 306 304 304 303 302 302 301 300 299 299 299 298 298
311 310 309 313 309 313 312 311 310 312 311 309 309 307 305 302 305 310 313 313 309 307 307 307 307 307 307 307 306 306 305 304 302 301 300 300 299 298 297 297 297 296 296
309 308 310 309 307 308 309 308 309 310 307 308 306 300 294 304 310 310 309 309 308 306 307 306 308 308 307 305 304 303 301 301 301 300 298 298 297 295 296 296 296 296 296
308 308 305 305 307 309 309 310 310 309 309 307 302 298 296 302 307 308 309 308 307 308 307 308 306 305 304 304 303 300 299 298 298 297 296 295 295 294 294 294 294 294 294
308 307 306 306 308 308 308 308 307 306 306 308 307 301 301 303 306 308 308 308 309 309 309 308 308 307 307 306 305 302 299 298 298 296 294 294 293 293 292 291 291 290 290
308 307 307 307 308 308 307 307 308 304 306 308 308 306 307 308 307 307 307 309 309 309 309 309 308 305 306 306 305 305 303 301 299 297 296 293 292 291 292 290 290 291 291
308 308 309 309 308 307 308 308 308 308 308 307 307 308 307 307 308 308 308 307 307 307 308 308 307 307 306 305 303 300 290 289 294 288 293 294 293 293 292 292 291 291 291
309 305 307 308 308 309 308 307 308 308 308 309 308 309 309 311 310 310 310 309 309 308 309 309 309 308 306 305 302 292 285 287 292 286 291 292 292 293 293 292 292 292 292

GFSGL_sfc_thetae_117.txt.gz
Theta_e
349 349 348 349 351 350 351 350 351 345 338 336 338 347 350 350 351 351 349 349 348 348 349 348 348 345 345 346 349 348 343 343 335 338 343 346 344 347 350 354 358 355 350
348 349 349 349 348 351 349 350 349 340 341 349 351 352 351 352 353 352 351 350 348 347 348 347 347 351 347 349 346 345 346 346 342 338 341 343 344 348 349 348 352 356 350
348 348 348 347 348 348 349 348 350 349 350 352 352 352 352 352 351 350 350 350 350 349 346 347 349 349 348 345 345 343 347 348 344 342 342 343 342 348 347 348 349 351 356
339 342 344 344 344 346 348 349 350 352 351 351 351 352 351 348 347 349 350 351 349 350 349 350 349 347 349 347 345 346 348 346 345 343 342 342 343 347 346 347 347 351 351
343 344 342 345 346 346 349 348 349 351 350 349 349 347 341 336 334 338 348 345 346 343 341 350 343 345 343 341 345 344 345 343 344 342 340 340 341 345 345 347 345 347 348
343 340 344 343 343 342 343 344 347 347 346 346 344 336 331 327 327 326 336 343 346 343 340 343 339 333 335 337 337 339 339 341 340 340 340 340 340 341 346 345 342 342 340
340 343 343 339 337 336 340 341 343 346 346 341 333 325 317 316 319 321 331 341 344 339 340 342 331 327 322 326 333 339 339 338 337 340 339 340 340 340 341 338 339 340 341
342 339 339 337 336 335 335 339 342 341 337 332 328 320 311 310 315 319 330 343 331 331 332 328 322 317 317 322 332 330 332 327 326 333 332 332 334 334 334 338 341 342 343
337 337 336 335 333 334 336 336 332 328 324 324 319 313 308 306 312 320 336 335 326 321 320 320 316 313 316 320 327 320 318 319 323 325 327 329 329 330 332 335 332 330 328
332 334 337 336 335 333 332 334 331 326 322 320 316 310 310 305 310 315 325 334 322 316 314 312 316 312 313 313 317 318 313 315 316 323 329 333 334 330 328 328 329 326 322
326 331 331 333 332 333 333 332 327 321 318 315 312 309 308 307 307 309 313 318 321 319 312 310 311 311 309 309 311 315 312 313 320 322 320 320 320 321 323 323 322 322 318
324 325 327 331 333 330 327 327 326 321 317 314 313 311 309 305 308 308 309 311 313 308 307 310 310 309 310 312 315 314 315 318 317 315 314 314 314 314 316 315 315 315 315
322 323 323 314 314 323 326 325 323 322 320 319 319 313 311 308 304 307 308 310 312 308 311 313 312 310 312 313 313 313 313 310 309 308 309 309 311 312 313 312 312 313 313
319 319 313 307 303 304 308 304 304 303 310 321 319 313 306 299 297 298 300 301 306 303 303 307 314 312 312 311 311 308 308 308 306 305 305 305 307 308 305 308 307 307 306
319 318 315 307 301 296 295 300 300 295 296 306 302 301 302 296 292 294 293 293 294 296 299 306 304 304 305 306 306 307 305 306 303 301 301 301 302 303 302 304 303 303 302
317 316 317 313 309 305 301 296 297 297 297 295 296 295 294 295 295 294 293 293 295 297 303 302 301 301 302 301 301 301 303 302 301 302 302 302 300 300 300 300 300 298 297
317 316 317 315 312 304 301 299 296 296 297 295 294 294 295 294 294 293 293 294 297 301 304 303 302 302 301 300 299 299 299 299 301 302 301 300 300 299 298 297 297 297 296
305 309 306 309 308 306 303 300 297 297 296 294 295 295 294 294 294 294 293 298 301 301 299 299 300 300 300 299 298 297 298 297 297 297 297 297 296 295 295 295 295 294 294
306 308 308 305 306 307 305 302 299 301 297 295 293 294 294 294 294 294 294 300 299 299 298 299 299 298 298 298 298 298 297 297 296 295 295 294 294 294 293 293 293 295 295
303 308 307 303 302 303 304 305 302 303 300 295 295 297 296 297 299 302 301 301 300 299 299 298 298 299 298 298 297 296 296 295 294 293 293 292 292 291 291 291 292 291 291
303 301 308 302 300 301 302 300 301 304 302 302 301 301 300 300 300 302 302 302 301 299 298 298 298 298 298 297 296 295 294 294 293 292 291 290 290 289 289 290 290 290 290
303 301 299 300 301 300 301 302 302 301 301 299 296 294 297 298 300 302 301 301 301 301 299 298 297 298 297 296 295 294 293 292 292 291 290 289 289 289 289 289 289 290 290
302 302 300 300 301 304 301 301 301 300 300 299 296 294 294 296 298 302 302 302 302 301 301 300 300 298 298 297 296 295 293 292 291 291 289 289 288 287 287 289 291 290 290
302 301 300 299 299 300 300 301 301 300 301 301 299 297 297 298 299 302 301 302 301 301 302 301 300 299 298 298 297 296 296 294 293 292 290 289 287 288 289 290 291 291 291
302 301 301 301 300 300 300 300 300 300 301 301 301 300 300 301 301 301 300 300 301 301 301 301 301 300 300 298 297 293 290 291 292 290 290 290 289 288 288 288 291 291 291
304 303 303 303 304 304 301 300 302 302 301 302 302 301 303 302 302 302 301 300 300 300 300 300 300 300 299 299 298 292 286 287 289 287 290 288 287 287 288 288 291 292 292

GFSGL_sfc_thetae_120.txt.gz
Theta_e
346 346 344 345 347 348 347 342 345 344 339 338 336 340 348 348 348 348 347 345 345 345 345 346 345 344 342 344 345 344 342 339 332 336 339 343 343 345 349 350 352 352 351
346 346 345 345 347 346 346 348 349 343 342 339 337 345 346 349 348 348 347 349 346 344 345 345 344 349 345 346 343 342 342 343 339 335 339 342 341 348 349 349 351 354 351
346 346 344 344 344 345 345 347 348 342 339 340 348 348 349 350 349 349 349 349 348 347 346 344 344 346 347 343 342 341 343 344 341 340 339 341 341 347 346 348 348 348 351
343 344 345 343 345 344 346 346 346 346 346 346 349 348 346 347 345 347 349 349 348 346 347 346 345 345 344 343 343 342 344 342 341 338 338 339 340 345 344 343 342 345 345
338 338 340 342 343 344 344 342 345 348 347 348 344 340 338 336 335 339 344 345 344 339 344 341 336 338 337 336 344 341 341 339 339 338 337 338 339 339 339 343 339 341 344
338 340 342 343 342 342 343 344 344 344 344 342 334 330 327 331 327 327 336 339 341 340 339 336 330 329 332 333 333 337 336 338 336 336 337 336 336 336 338 337 337 337 335
340 341 342 340 338 338 340 340 340 341 338 329 322 320 317 318 320 320 329 340 340 336 338 329 325 325 327 333 333 333 328 330 334 335 329 329 329 332 333 332 333 334 336
340 340 338 336 335 335 338 339 340 338 332 327 321 318 316 318 318 320 329 335 333 329 324 320 317 317 322 326 320 318 318 319 321 324 323 326 330 331 331 333 334 333 333
337 337 335 336 335 335 330 328 324 328 325 321 316 313 312 313 316 325 329 327 321 318 316 313 312 312 317 322 316 313 314 317 323 324 326 325 323 324 326 325 323 320 318
335 335 335 334 333 333 332 328 324 320 315 313 311 309 310 309 314 321 325 321 314 312 311 311 315 312 312 314 315 312 314 313 318 318 318 319 318 317 320 315 315 311 314
332 334 335 334 335 332 333 326 322 319 316 312 311 310 308 308 309 315 320 324 320 314 309 310 310 312 311 311 313 314 314 315 316 313 313 312 313 313 312 312 310 311 311
329 329 330 332 332 330 327 322 319 315 311 307 305 303 303 306 308 309 310 315 313 311 309 310 312 309 308 309 310 310 311 312 311 309 308 308 307 307 308 309 308 308 312
322 317 316 315 315 321 324 323 321 318 315 313 310 307 304 301 303 307 307 310 311 309 312 312 310 307 307 308 310 310 309 306 306 303 302 302 303 302 303 304 304 304 305
313 310 308 306 305 307 304 304 305 308 318 319 312 305 300 296 296 300 301 300 303 302 307 310 310 310 309 308 306 306 306 303 302 300 299 299 301 302 302 301 300 301 299
314 309 305 302 299 297 297 299 299 296 298 308 311 306 299 292 293 295 295 295 295 298 304 303 303 302 301 301 301 301 300 300 301 301 300 299 299 299 298 298 298 296 294
316 314 310 307 303 300 297 297 297 297 297 296 296 299 295 295 295 294 293 293 296 299 300 300 299 300 299 299 298 298 298 300 298 299 297 297 296 296 295 295 295 294 293
311 312 312 310 305 302 300 298 295 299 297 295 295 295 295 294 294 292 293 295 297 302 302 299 299 298 297 297 296 296 295 296 297 296 295 295 295 294 293 293 293 293 292
307 309 312 309 305 301 301 299 297 295 297 296 296 295 294 293 294 293 294 298 300 300 300 300 299 297 297 296 296 295 295 295 294 294 293 293 293 292 292 291 291 290 291
299 301 302 307 306 302 298 295 295 294 292 293 294 295 295 293 294 294 296 298 297 296 297 296 296 296 296 296 295 295 294 293 292 291 291 290 290 290 289 290 290 291 290
300 308 305 300 302 301 299 296 296 295 292 292 293 294 296 297 299 301 301 300 299 297 296 297 297 297 296 295 294 294 293 292 290 290 289 289 289 288 288 288 288 287 287
302 300 306 298 297 298 299 299 298 298 296 294 296 296 297 297 298 300 299 298 298 298 297 297 297 296 296 295 294 294 294 292 290 289 289 288 288 287 287 287 287 287 288
300 298 297 298 297 297 299 298 299 300 301 299 298 298 297 299 300 302 300 300 300 300 299 298 297 295 295 294 294 292 291 290 290 290 289 288 287 287 287 286 287 288 288
301 299 297 295 297 300 298 298 298 298 300 299 298 296 295 295 298 300 301 300 300 298 298 298 297 296 297 296 295 294 292 291 291 290 289 288 287 286 286 286 287 287 289
301 299 298 296 295 295 297 297 298 298 298 298 296 294 293 294 297 300 300 301 300 300 300 299 298 298 297 297 296 295 294 293 292 291 290 288 287 287 286 286 287 287 289
301 299 298 297 296 296 296 298 297 298 298 299 299 297 296 296 296 299 299 300 300 300 300 299 299 299 298 297 295 295 293 291 292 290 290 289 288 288 288 287 287 288 289
301 299 299 300 300 300 298 298 301 300 299 298 299 298 298 298 299 299 299 299 300 299 300 300 299 298 298 297 296 293 288 287 290 288 289 288 287 286 285 285 286 287 288